GFSSE_500_spd_000.txt.gz
Wind_Speed
18 19 17 14 18 21 21 18 16 15 11 8 7 8 9 8 8 9 10 10 11 13 13 14 16 17 18 19 18 17 19 19 19 21 22 25 26 27 30 28 30 36 37
17 21 19 20 20 18 15 11 8 5 4 6 3 4 6 8 8 10 11 12 13 12 14 14 15 14 13 15 17 18 18 18 20 20 21 20 21 23 25 27 32 32 33
25 23 23 19 16 14 9 8 7 7 7 3 3 6 8 10 9 8 8 8 9 9 10 11 12 14 15 13 13 15 18 20 22 24 24 20 19 24 27 25 28 29 29
26 25 19 15 13 10 9 9 8 7 4 3 3 5 5 5 5 6 7 7 8 9 10 10 10 12 13 15 16 16 15 16 17 19 19 21 20 20 22 24 24 27 24
23 22 14 11 9 8 7 4 3 4 5 3 2 0 2 4 6 7 8 9 10 11 13 14 15 14 15 16 17 16 15 16 15 15 16 17 18 22 25 21 21 25 27
17 11 10 8 6 5 3 3 4 4 2 2 4 5 6 7 8 10 12 13 13 13 14 14 16 16 16 15 16 18 18 19 18 18 18 16 18 20 23 18 20 21 20
12 10 7 4 4 4 4 4 3 2 3 5 7 8 11 12 12 13 15 17 18 18 19 18 18 18 18 17 18 20 21 20 21 20 20 20 21 20 14 19 20 20 14
11 7 6 7 5 4 3 2 2 4 7 9 11 12 13 14 14 16 18 19 21 22 23 22 24 24 25 25 26 25 24 23 22 21 21 23 24 22 22 21 19 15 13
9 8 9 7 5 4 3 5 6 9 11 11 13 13 16 18 19 22 23 25 25 26 26 25 25 25 25 25 24 25 27 27 25 24 24 23 25 24 23 22 21 17 17
9 9 8 6 5 7 9 11 11 12 14 14 16 18 20 22 24 26 27 26 24 25 25 24 25 26 26 24 25 26 24 24 24 25 27 26 26 25 25 25 22 22 21
9 8 7 7 10 11 11 12 13 14 15 18 20 21 23 25 26 26 25 25 25 25 28 29 30 33 33 31 30 30 28 28 26 25 24 26 28 29 29 29 28 26 24
7 10 11 12 13 10 10 13 15 17 18 20 21 22 23 24 26 27 27 28 28 30 32 34 35 35 36 35 32 33 31 31 29 29 28 28 26 27 28 30 30 31 28
10 14 15 13 13 12 13 16 17 20 25 24 25 26 26 27 29 30 30 31 32 35 36 37 37 35 34 34 32 30 27 29 31 29 29 29 29 26 28 29 30 31 32
8 15 16 17 16 17 18 21 22 23 24 27 28 28 29 31 33 33 33 35 36 36 36 36 35 33 31 29 28 28 31 32 32 31 29 29 30 31 29 28 30 32 32
11 17 21 19 19 19 20 23 22 26 29 27 27 28 28 35 37 38 40 41 39 37 36 35 33 31 30 28 28 31 33 33 34 35 35 34 33 33 36 34 32 32 34
11 14 16 20 22 7 26 28 33 34 31 32 30 30 36 39 38 41 43 44 41 40 38 37 36 35 33 34 34 35 36 37 39 41 43 42 42 42 40 40 39 37 36
17 19 20 20 20 25 24 28 35 33 34 37 38 42 43 45 43 44 41 41 41 41 42 45 44 42 41 39 40 42 44 45 44 44 46 47 46 45 46 45 46 44 42
24 28 32 31 27 31 31 33 35 38 42 41 40 45 51 47 47 40 41 41 43 45 45 47 49 50 51 51 51 52 52 52 52 50 51 51 53 53 50 47 48 50 50
24 30 34 30 36 35 40 39 43 41 41 37 46 50 50 51 50 48 48 48 47 48 50 52 53 55 57 57 58 58 59 60 61 62 60 58 56 57 59 59 54 53 52
29 29 31 36 40 40 44 45 44 42 40 43 48 48 53 51 50 50 51 52 54 56 57 58 59 62 65 65 65 65 67 67 68 70 71 70 68 67 64 65 66 64 62
28 33 40 41 43 49 47 40 39 39 41 49 49 51 50 50 51 54 56 59 60 62 64 65 68 70 71 73 73 73 73 72 73 74 75 76 77 77 76 74 73 73 72
35 40 41 43 46 45 44 42 40 45 48 48 48 52 55 56 58 60 63 66 68 71 73 74 75 75 77 78 77 78 78 77 77 78 80 81 81 79 80 81 80 80 80
38 40 42 43 44 43 42 45 48 45 46 48 52 55 58 60 63 66 69 72 74 77 79 81 82 82 82 82 83 85 84 84 86 83 80 80 81 80 81 81 82 82 81
38 40 42 45 46 46 45 44 45 46 49 51 54 57 61 64 68 71 74 77 80 82 84 84 85 84 84 84 86 86 88 88 88 87 85 83 82 82 81 81 81 83 84
37 39 39 40 42 43 42 44 45 48 50 53 58 62 65 69 73 75 78 80 81 83 82 81 82 84 85 87 88 89 89 89 88 89 86 83 83 82 83 84 86 87 88
42 36 36 39 39 39 41 43 44 48 53 57 61 65 69 72 76 78 81 84 85 80 79 79 80 82 83 85 86 86 87 89 90 91 92 87 87 84 86 90 93 94 95

GFSSE_500_spd_003.txt.gz
Wind_Speed
23 25 23 19 16 19 23 21 16 13 10 7 8 9 9 8 7 9 10 12 13 13 14 16 17 19 20 19 18 17 15 15 14 15 16 16 17 19 19 19 25 24 32
19 20 18 19 20 23 20 16 11 9 8 8 4 4 4 4 5 6 7 7 8 10 12 14 16 18 19 20 20 19 17 17 18 17 16 17 19 19 17 17 18 22 26
24 22 22 24 25 20 16 10 11 10 9 4 1 1 0 2 4 5 7 10 11 13 14 15 15 17 18 18 19 17 17 16 16 17 17 16 16 19 20 17 18 20 24
30 27 26 25 22 17 11 10 10 9 4 3 4 3 4 5 7 8 10 11 12 14 16 17 18 19 19 19 17 17 18 20 18 19 17 17 18 17 16 17 17 16 19
32 29 24 20 15 11 8 6 5 4 4 5 5 8 9 10 11 12 13 14 16 16 17 18 20 21 20 22 20 19 18 19 20 21 21 19 19 19 19 19 19 17 18
31 19 16 14 8 5 4 3 4 4 5 6 9 11 13 14 16 17 17 18 20 20 21 22 23 24 23 25 23 22 22 21 22 22 23 23 21 22 22 20 15 16 19
26 18 14 8 5 5 6 6 6 6 7 9 11 14 16 18 19 19 20 21 23 25 25 26 27 27 27 28 29 29 29 27 26 26 25 25 24 23 23 21 21 19 16
16 12 10 8 8 8 7 7 7 8 10 12 13 16 17 19 19 20 22 24 28 29 30 28 27 26 27 27 28 29 30 29 29 30 29 28 28 26 25 23 23 23 17
12 11 10 11 10 8 7 9 9 11 12 14 16 18 19 21 23 25 28 30 32 32 28 25 25 25 26 26 28 29 29 27 28 29 30 31 31 30 28 26 25 25 22
12 10 11 11 9 9 10 10 12 15 15 16 19 20 22 24 26 29 29 28 27 28 29 28 29 29 30 31 32 31 29 30 29 31 27 28 31 32 33 31 26 26 26
11 11 12 10 9 12 12 13 14 17 18 21 25 24 24 26 27 28 27 27 28 29 31 32 35 37 38 36 35 34 31 29 29 29 29 29 28 30 31 32 31 29 29
10 11 11 12 13 13 13 15 18 21 22 24 26 26 26 26 29 29 29 29 29 30 33 36 37 37 37 37 34 33 30 28 26 26 28 29 29 28 29 30 31 31 31
10 11 12 12 11 14 16 19 21 23 22 24 25 29 30 29 29 28 32 33 32 33 36 37 37 31 28 31 33 32 30 28 25 25 27 29 29 28 27 28 28 31 31
11 12 11 14 15 20 20 20 23 27 24 25 29 30 29 30 29 31 37 36 35 35 36 32 32 31 30 29 30 31 33 32 32 30 28 27 30 31 31 29 29 30 32
12 14 15 16 19 22 26 20 25 31 25 33 33 27 33 35 32 35 39 37 36 33 30 30 31 31 31 31 32 32 33 36 38 38 38 38 39 39 37 36 35 33 33
8 11 14 13 18 13 18 22 20 23 29 32 33 35 37 39 40 38 38 35 34 34 34 34 35 35 35 35 36 37 37 38 40 42 44 44 44 44 45 46 45 42 39
11 15 18 20 25 25 22 25 27 31 31 36 41 38 37 37 38 42 38 35 37 38 39 40 42 44 46 44 44 44 45 46 47 47 49 49 48 47 46 46 46 49 48
15 19 22 25 27 20 22 27 28 41 41 40 38 36 39 40 46 43 39 39 40 42 43 43 46 48 49 50 50 51 52 54 56 57 58 58 57 56 55 55 52 49 50
19 24 26 21 19 29 19 30 36 42 41 37 38 40 45 45 49 44 42 43 46 46 48 49 50 52 54 56 58 60 61 62 63 63 63 63 64 65 65 64 63 61 59
26 24 26 30 31 35 36 40 43 44 32 39 43 46 49 48 48 48 48 49 49 51 54 56 57 60 62 63 63 64 65 67 70 70 71 71 71 71 71 72 73 73 71
21 27 32 36 39 41 44 44 44 37 45 36 47 45 48 48 46 47 50 54 58 60 61 62 65 66 67 69 71 71 71 73 74 76 76 76 76 77 79 79 79 80 79
27 29 33 39 43 45 44 45 42 42 42 47 50 50 50 51 53 56 59 62 65 67 69 72 75 75 75 77 77 77 78 76 77 79 81 81 81 81 81 83 85 86 87
32 35 38 38 41 45 45 44 45 47 46 47 49 50 52 55 59 62 65 69 72 75 76 79 81 81 81 81 81 81 80 80 81 78 81 84 85 85 85 86 86 87 87
37 40 42 43 47 48 46 44 45 44 45 47 49 53 58 62 65 69 72 75 77 79 80 81 83 85 84 84 83 82 84 87 88 91 89 84 86 89 89 87 86 86 87
38 42 45 47 43 40 39 40 41 43 44 49 55 59 62 65 68 71 75 78 80 83 85 85 85 84 85 85 86 87 88 90 94 95 93 91 90 91 91 90 88 88 89
43 44 44 41 40 38 39 39 40 44 48 52 56 60 62 66 70 78 82 84 87 88 88 88 89 89 89 89 88 88 88 88 89 91 93 93 94 94 95 95 95 94 92

GFSSE_500_spd_006.txt.gz
Wind_Speed
18 17 20 24 25 23 27 29 22 15 9 7 7 5 6 7 7 7 8 10 11 12 14 15 15 14 15 16 16 16 17 15 13 13 15 16 14 15 16 14 13 19 23
19 22 21 25 26 29 29 22 16 11 7 7 4 1 2 3 4 5 7 9 10 12 13 15 16 17 17 16 16 14 13 14 13 12 13 14 18 18 18 18 18 16 17
19 22 24 28 30 27 25 17 13 9 8 5 3 3 2 4 5 7 8 10 12 14 15 16 17 19 20 21 20 17 17 15 15 13 14 14 15 17 18 19 18 16 17
20 24 28 28 27 23 17 14 11 9 6 5 5 5 6 7 8 10 13 14 16 17 19 20 21 22 23 23 23 21 19 19 19 19 18 18 16 15 17 16 18 20 18
25 26 25 23 19 16 12 11 7 6 6 6 7 8 10 12 13 16 18 19 20 22 23 25 26 27 27 27 26 25 22 22 23 24 23 22 22 19 17 18 17 19 20
26 26 19 20 17 10 9 8 6 5 6 7 9 11 13 16 18 20 22 23 24 25 27 29 31 31 30 29 28 28 26 26 29 30 27 27 25 23 20 20 18 18 18
26 23 19 16 9 8 7 7 7 6 8 10 11 13 15 18 21 22 23 24 26 28 30 31 30 29 28 27 26 25 24 23 25 28 29 28 28 28 25 24 22 20 21
21 17 14 10 8 8 7 8 8 11 11 12 13 15 18 20 21 24 27 28 30 32 31 29 25 25 26 27 28 28 28 28 28 26 27 27 27 29 27 27 26 23 23
12 12 9 7 10 8 8 10 12 13 14 14 17 19 20 22 25 29 31 30 32 30 29 28 26 27 28 29 31 33 33 32 30 29 28 27 27 28 29 28 28 27 25
9 9 8 10 9 9 11 12 14 16 17 18 19 21 23 26 29 31 32 32 30 30 31 32 30 30 32 34 34 33 33 31 28 28 28 28 27 29 28 29 27 28 28
8 7 7 8 9 10 12 15 17 17 18 19 20 23 26 28 31 33 33 32 30 29 31 32 32 33 35 35 37 34 31 29 28 28 27 25 26 27 29 30 30 29 29
6 5 6 8 10 11 14 17 17 17 19 19 20 23 26 27 31 33 33 34 30 35 33 33 34 35 34 33 30 31 31 28 26 27 27 24 23 23 25 26 28 28 29
3 5 8 9 11 14 16 19 21 22 23 23 25 25 28 31 32 33 35 37 34 36 37 36 34 33 30 26 26 27 28 29 27 27 27 27 28 26 26 27 27 27 27
5 5 7 11 15 18 21 21 24 24 25 26 26 29 33 33 34 34 38 38 38 42 36 31 29 30 28 27 27 28 28 28 29 30 30 30 32 32 32 31 32 31 31
7 9 13 17 19 20 20 19 18 20 22 22 25 28 30 32 34 38 38 38 37 38 33 30 29 30 30 30 31 31 32 33 34 34 34 35 37 38 38 38 38 37 36
10 14 16 19 21 23 23 26 26 27 26 21 24 29 33 36 37 34 37 38 38 38 36 34 33 34 36 37 38 38 38 39 40 40 41 41 41 41 42 41 42 43 43
14 16 18 21 23 26 30 16 24 25 18 27 33 36 30 31 31 36 39 40 41 39 39 37 36 37 39 40 42 42 42 44 44 46 48 50 49 49 49 49 48 49 48
14 18 20 20 18 18 19 15 21 22 32 32 37 32 26 35 39 42 44 41 41 39 39 40 41 43 45 47 49 49 50 51 53 54 55 56 57 57 56 56 56 56 56
18 19 22 17 18 26 22 34 34 38 38 35 32 29 41 44 43 47 43 44 44 44 45 48 49 51 54 54 56 58 60 62 63 64 64 64 64 65 65 65 65 65 63
19 23 22 22 24 24 33 41 45 43 43 38 38 41 42 48 52 51 49 49 50 53 53 55 57 59 61 62 64 66 68 69 71 72 73 73 72 71 71 71 71 71 72
19 22 26 30 30 36 43 51 50 48 42 39 41 47 53 52 48 48 50 54 56 58 60 63 66 68 70 72 74 75 75 77 76 76 75 77 78 78 78 77 77 77 77
24 28 29 34 39 43 47 50 49 48 48 49 47 45 45 46 47 51 55 58 61 63 66 70 73 76 78 80 81 81 82 80 78 79 80 80 79 80 82 82 82 81 81
33 37 37 39 41 43 47 46 41 40 41 42 42 43 43 48 53 57 61 63 65 68 71 75 77 80 83 84 84 85 87 90 91 89 88 86 85 82 82 83 85 85 85
35 34 39 40 45 46 45 43 42 41 41 41 42 46 50 54 59 61 62 64 68 74 76 79 81 86 90 93 93 93 95 95 93 94 93 90 90 91 92 91 92 92 92
32 38 40 49 48 45 45 44 42 42 44 47 49 53 56 57 58 61 66 71 76 81 83 85 90 94 96 95 94 93 93 93 94 96 95 92 90 90 91 94 98 98 97
40 43 47 39 40 41 38 39 42 44 47 48 52 56 59 61 65 70 75 82 86 87 90 92 95 96 96 95 94 93 90 86 83 81 80 77 73 71 75 77 81 85 90

GFSSE_500_spd_009.txt.gz
Wind_Speed
21 16 17 17 19 20 25 29 28 24 14 6 5 6 4 3 3 5 8 10 11 12 12 14 15 15 15 15 16 17 16 14 14 14 13 12 12 14 16 16 17 18 18
16 16 18 18 20 21 27 25 23 16 9 6 6 6 4 1 2 6 8 9 11 14 16 17 19 21 21 19 17 16 18 16 15 14 16 15 13 12 15 17 20 20 20
14 16 16 17 21 21 23 22 16 11 8 7 6 6 3 2 4 7 9 11 13 15 17 20 22 23 24 22 20 19 17 18 19 18 18 18 19 17 16 16 17 20 19
9 12 17 15 17 18 17 15 11 10 8 7 7 6 5 6 8 11 13 15 17 19 21 23 25 26 26 25 24 21 19 18 19 20 21 22 21 21 21 19 18 19 19
9 15 12 17 16 15 14 10 8 7 7 7 8 9 10 10 13 16 18 20 21 22 24 26 28 29 28 25 22 21 20 20 20 22 22 22 25 24 24 24 23 19 19
12 15 14 14 15 14 10 8 7 5 7 10 11 10 11 14 17 19 21 22 23 25 29 31 31 31 28 24 23 21 19 20 20 21 21 21 22 24 26 27 26 23 23
13 16 15 14 12 9 7 5 6 8 9 10 11 11 15 17 19 21 23 24 28 31 31 32 30 28 25 24 25 25 25 25 26 27 27 25 23 22 25 26 28 27 26
14 16 14 10 8 7 5 6 7 7 9 10 13 16 18 20 23 24 25 28 30 30 31 31 30 29 27 26 27 28 30 31 32 30 29 27 26 25 24 25 26 28 28
10 12 9 9 8 8 7 7 6 8 12 15 17 19 22 24 25 27 28 29 30 32 33 32 30 30 30 30 31 31 30 29 30 30 28 27 26 26 27 27 26 26 26
7 8 8 8 8 7 4 5 9 14 17 18 19 21 23 26 27 27 27 28 30 30 32 30 30 33 32 32 32 33 32 29 27 26 24 24 27 27 26 28 29 28 28
8 7 7 6 4 4 6 10 14 15 17 18 21 24 25 27 28 27 29 32 33 31 33 32 35 37 36 35 34 33 33 31 27 24 25 24 23 25 24 25 28 29 29
7 6 5 4 5 7 10 13 14 17 19 25 26 25 26 29 30 29 30 33 32 34 35 35 38 41 36 35 33 31 27 25 26 24 23 23 24 24 22 23 23 24 27
7 6 4 4 6 10 13 15 18 21 24 28 28 27 27 28 30 33 33 34 33 35 34 34 37 37 34 30 27 27 25 24 23 24 24 23 24 27 28 28 26 24 25
4 2 3 7 11 14 17 21 25 28 30 32 33 24 25 28 30 33 33 34 35 33 34 37 35 33 31 30 28 28 29 29 28 27 27 27 27 28 30 33 34 32 30
2 5 6 10 13 19 21 24 26 28 29 29 27 23 27 28 29 31 33 33 29 32 37 40 40 37 36 35 34 33 32 33 33 33 33 33 33 34 34 35 37 38 38
7 9 11 13 16 19 23 26 31 32 30 29 27 23 29 25 25 29 29 30 32 39 40 44 42 39 37 35 35 36 37 37 39 39 39 40 39 40 41 41 42 43 43
9 13 15 16 17 21 20 18 28 30 31 11 20 27 26 25 25 31 32 37 37 42 44 45 42 39 38 40 42 44 45 46 47 47 47 48 48 49 49 48 49 50 50
13 16 17 21 20 17 20 21 32 21 28 35 36 31 32 46 37 34 42 40 45 48 48 46 43 44 47 48 50 52 54 55 55 56 57 57 58 59 59 59 58 57 57
16 18 21 22 18 19 21 28 33 37 42 43 41 38 32 36 40 44 49 50 47 46 46 46 48 50 52 54 57 59 60 62 63 63 64 66 67 68 69 68 67 67 67
18 20 20 19 22 25 27 37 43 44 44 46 47 43 45 49 47 44 45 45 44 47 50 52 53 55 58 60 63 66 68 69 70 71 72 73 74 75 76 77 77 76 76
18 19 23 25 32 37 38 41 44 45 49 52 49 43 40 41 43 44 44 46 49 52 56 57 59 62 65 68 71 72 72 71 74 77 79 81 81 82 83 85 86 87 86
18 23 29 34 36 39 43 45 49 51 49 47 44 42 42 42 42 44 49 53 57 60 59 60 63 65 69 71 74 76 78 80 81 86 88 89 89 88 88 89 90 91 93
24 29 34 38 33 36 41 46 49 46 44 41 41 42 45 48 50 53 57 60 62 60 61 64 68 70 75 78 82 86 89 92 97 97 96 97 97 95 94 93 90 89 89
32 33 37 40 40 45 49 45 44 46 44 45 47 49 51 53 55 58 60 60 61 64 69 72 74 79 85 88 92 95 102 107 107 107 103 100 98 97 97 97 97 97 97
29 35 39 42 42 42 41 45 43 42 43 46 48 51 53 55 57 60 61 63 68 72 75 80 84 88 91 95 98 102 104 103 101 99 95 89 84 82 83 84 84 85 89
30 34 33 35 38 41 43 43 44 46 50 53 55 55 56 58 60 62 66 70 74 77 81 85 89 93 97 100 104 104 101 95 90 83 81 74 66 58 58 61 63 63 65

GFSSE_500_spd_015.txt.gz
Wind_Speed
34 36 33 35 32 28 23 22 21 21 20 17 11 9 11 9 6 3 2 3 4 7 9 11 13 15 17 18 18 18 17 17 16 16 16 16 17 17 17 16 16 17 17
35 38 39 37 27 29 21 20 20 18 16 15 10 11 12 9 7 5 5 5 7 10 13 14 17 19 21 20 20 19 18 19 18 18 17 18 18 19 20 20 19 19 18
37 41 39 33 30 21 18 18 17 15 14 13 10 13 12 10 8 7 6 9 11 14 15 17 18 20 22 22 21 20 19 17 18 18 19 20 15 20 22 23 22 23 20
36 43 44 35 40 18 16 17 15 14 13 10 10 13 13 11 10 8 9 11 14 16 18 20 20 22 23 22 19 18 18 18 17 17 16 19 16 20 20 21 22 24 23
40 45 46 38 24 17 16 15 15 12 12 10 12 14 14 14 11 10 12 14 17 18 19 20 21 22 22 21 19 18 18 19 18 19 21 23 23 24 26 24 23 24 25
44 44 40 38 17 14 15 15 14 12 12 11 14 15 14 12 11 14 15 17 20 22 23 23 22 25 25 24 21 19 20 22 22 23 24 25 28 28 27 27 26 25 25
37 40 37 17 19 17 15 16 12 12 11 11 12 12 12 13 15 16 18 21 22 23 25 23 22 27 26 27 24 22 24 25 26 28 29 30 31 31 30 29 27 28 27
34 33 29 19 18 13 14 9 10 10 9 9 9 10 14 16 19 21 22 23 26 26 27 28 26 27 28 27 22 26 28 28 28 30 32 31 33 32 30 29 30 28 28
13 26 15 18 14 9 7 7 8 8 6 7 10 14 17 20 23 24 27 27 27 27 32 28 26 26 27 26 27 30 31 29 29 31 33 32 32 31 30 28 29 30 30
23 11 8 8 8 7 6 5 7 7 8 10 15 18 21 23 26 28 31 30 29 28 30 28 28 28 29 30 30 32 33 34 34 34 32 33 32 29 29 28 27 29 30
9 4 4 5 3 3 5 7 7 10 12 14 17 19 23 26 30 32 34 35 32 32 32 31 30 29 32 32 31 35 36 37 37 35 32 32 32 30 27 28 28 28 28
4 2 3 3 4 6 8 8 9 9 12 16 19 22 27 28 29 33 35 32 35 34 34 36 34 31 32 34 37 34 35 37 38 39 32 33 31 32 32 30 29 29 28
5 5 4 4 6 6 7 8 10 13 16 19 22 26 28 27 28 31 36 29 37 37 35 32 33 30 34 36 35 35 37 40 40 42 36 37 35 33 33 33 32 32 32
4 5 5 7 7 7 8 10 14 17 21 23 26 31 32 27 29 33 32 30 26 30 31 31 32 39 43 41 39 39 38 38 43 43 41 37 38 36 35 35 35 35 35
3 4 7 8 7 9 11 15 19 22 24 26 29 32 30 25 28 33 33 35 29 38 36 45 46 43 41 40 42 43 42 43 43 41 44 39 38 40 39 39 40 40 40
5 7 8 8 9 12 15 19 21 25 29 24 27 20 23 28 29 34 37 43 44 42 46 51 45 45 46 50 47 47 46 44 43 43 44 48 45 44 45 46 45 46 47
7 8 10 12 13 15 17 20 23 27 21 26 35 41 46 33 32 31 40 40 40 36 41 44 49 52 51 47 45 43 44 44 45 45 46 50 52 54 53 53 54 55 55
8 10 13 15 18 19 20 21 24 32 39 38 39 39 41 44 40 32 35 35 39 41 42 44 45 46 46 47 48 46 48 49 51 52 54 56 57 58 63 62 61 63 64
11 13 16 19 20 22 20 24 27 34 39 38 41 44 47 44 41 42 40 40 40 42 44 45 47 50 52 51 53 55 57 59 59 60 61 66 67 67 67 70 72 71 72
15 17 20 24 24 22 24 29 33 37 42 44 45 46 45 44 42 42 41 42 45 49 52 54 55 55 55 56 55 55 54 56 59 62 64 67 70 73 74 75 75 78 79
20 22 22 24 22 25 29 33 36 38 37 35 40 44 45 46 46 47 49 52 53 53 56 56 55 55 56 56 59 59 58 60 63 67 70 72 74 77 80 82 83 82 85
21 25 24 26 28 31 33 35 33 32 33 36 38 41 43 46 49 51 51 53 55 56 57 57 58 56 56 58 61 64 63 64 68 73 76 80 83 86 88 90 91 94 94
24 25 26 26 28 30 29 28 28 30 34 37 39 42 45 48 51 53 56 57 57 57 57 57 58 58 59 61 65 68 72 76 78 80 83 86 89 93 97 100 101 102 103
27 27 23 21 21 22 24 27 30 34 38 41 45 48 51 52 53 55 58 58 59 58 58 58 60 61 65 68 72 76 80 83 86 90 94 96 100 104 105 105 107 106 103
23 17 17 18 21 24 27 30 33 36 40 43 47 51 53 55 56 58 61 61 61 60 61 61 63 68 72 75 80 82 86 90 94 98 101 105 104 99 87 83 79 74 72
16 17 19 21 23 27 30 33 36 40 44 47 50 50 54 57 58 60 62 63 63 63 63 66 70 73 77 82 84 88 94 98 103 103 98 89 80 68 62 58 55 55 55

GFSSE_500_spd_018.txt.gz
Wind_Speed
35 35 36 36 38 38 36 32 30 31 25 24 20 13 11 14 13 10 7 6 4 4 7 9 11 12 13 14 15 16 17 16 16 16 16 15 17 18 20 21 19 21 20
34 36 40 41 40 38 34 35 30 29 24 21 18 13 14 16 14 11 7 5 5 7 10 12 13 13 15 17 18 15 16 15 14 13 15 14 17 17 19 21 23 24 24
37 37 43 42 40 40 37 32 30 27 22 20 16 13 19 18 14 11 8 7 9 10 12 13 15 16 17 17 16 14 14 15 15 15 15 10 15 15 16 18 20 21 24
39 40 39 39 43 40 40 38 33 25 20 20 15 15 20 18 13 10 9 10 11 13 15 15 16 17 17 19 19 19 17 16 17 15 18 15 13 17 18 21 22 22 22
39 37 40 43 44 42 40 39 28 23 18 17 16 15 18 15 12 9 12 13 15 17 18 18 19 18 19 20 20 20 19 18 18 18 19 20 19 20 21 23 25 26 24
34 42 46 47 49 48 43 34 26 18 15 15 13 12 14 12 10 12 15 16 18 21 22 22 22 22 23 22 21 22 18 18 20 22 21 25 25 25 25 26 26 27 28
35 37 47 50 54 43 39 25 22 10 11 9 8 9 10 10 12 14 17 20 21 24 26 26 26 27 27 26 25 22 20 23 26 28 22 27 26 29 29 30 31 29 29
35 30 34 39 33 31 27 21 12 4 6 6 7 7 8 12 15 17 20 23 25 27 28 27 27 28 25 25 26 22 24 26 29 31 25 31 27 29 28 31 31 32 30
33 35 37 25 23 20 14 14 10 4 5 5 6 13 11 13 17 20 21 24 27 29 30 30 31 29 27 27 27 26 26 26 28 31 31 31 29 29 29 30 31 31 31
37 12 22 14 10 8 6 10 6 3 5 7 8 9 12 15 18 20 25 26 29 31 29 30 32 33 33 34 31 30 30 32 33 33 31 33 34 32 30 29 30 31 31
28 37 11 5 2 8 11 8 3 4 4 7 10 13 14 18 22 26 28 28 30 31 29 29 31 32 32 32 29 28 35 37 37 37 31 33 37 35 33 32 31 30 30
11 9 4 11 14 13 7 3 4 6 8 10 13 16 18 22 25 27 29 26 30 28 25 28 28 28 26 29 31 39 38 44 43 44 36 34 36 38 37 36 35 34 33
11 11 10 8 4 2 3 3 5 8 11 15 17 18 19 26 26 28 24 26 32 34 28 24 36 33 31 33 40 49 49 44 44 47 45 37 39 42 43 39 38 37 36
3 4 4 2 2 2 3 5 7 10 14 17 20 20 23 17 24 33 27 28 34 32 30 41 46 45 36 40 49 46 41 40 45 46 47 44 41 41 43 43 39 38 36
2 1 2 4 5 4 6 8 12 15 17 29 25 21 13 22 35 31 30 31 31 35 38 47 47 47 41 41 45 45 46 49 49 47 49 43 43 43 42 44 43 42 41
1 3 5 6 8 8 10 14 16 18 18 13 32 21 30 30 29 33 33 30 30 32 33 33 35 40 43 48 49 46 44 44 44 45 44 44 44 46 45 45 46 47 46
3 5 8 10 11 12 15 17 18 20 20 25 30 28 31 32 34 33 32 33 33 33 34 34 37 38 40 40 43 45 46 47 48 49 50 51 50 50 50 50 50 50 53
5 7 7 11 13 16 18 20 22 22 25 30 34 34 29 29 31 33 35 36 37 38 39 40 42 44 47 48 48 47 48 47 50 51 52 54 58 60 60 60 60 60 61
7 11 14 16 17 20 23 24 25 27 31 34 32 31 31 32 35 37 38 39 41 41 42 45 46 47 48 49 50 51 51 51 50 53 54 56 57 60 60 61 62 64 64
12 14 18 20 21 21 25 26 27 31 33 28 26 30 34 39 41 42 42 42 44 46 50 53 55 55 53 52 53 52 52 50 50 53 56 56 58 61 64 68 68 70 72
17 17 21 22 20 23 27 29 29 30 23 25 30 33 36 39 41 43 46 49 51 53 54 55 57 58 54 52 51 50 52 52 53 57 59 63 67 70 72 75 77 79 79
22 20 23 24 27 27 27 26 25 23 25 28 32 35 38 42 43 45 47 49 52 55 57 58 59 59 55 53 54 54 55 57 60 63 67 71 74 77 80 84 86 87 90
23 23 25 28 27 23 21 21 23 25 29 32 36 38 42 45 47 48 50 52 55 57 58 59 60 59 57 57 59 61 64 66 70 74 78 82 85 89 94 96 99 101 103
25 28 29 22 20 20 22 25 28 31 35 37 39 43 47 49 50 52 53 56 59 61 61 61 62 59 59 61 63 67 71 75 80 83 87 89 93 96 97 95 94 95 92
28 27 20 18 19 23 26 28 33 36 40 43 46 49 51 54 56 56 60 62 63 64 64 63 62 60 62 65 70 73 77 81 85 91 92 97 96 90 84 85 82 77 71
25 20 19 20 24 27 30 34 38 41 45 47 50 52 54 56 56 56 62 62 65 65 64 64 62 64 68 70 74 78 82 88 96 101 99 90 83 76 71 68 62 54 52

GFSSE_500_spd_021.txt.gz
Wind_Speed
38 44 37 35 36 40 40 41 37 37 34 29 26 25 19 15 15 15 12 9 7 5 6 8 9 11 11 12 13 13 11 11 11 12 13 14 16 17 17 16 19 20 21
38 42 38 34 35 36 43 43 38 38 35 29 24 22 17 16 19 17 13 10 8 7 8 9 12 13 13 13 14 13 12 11 11 11 10 9 12 13 14 15 16 19 22
36 37 25 33 35 39 41 44 37 38 38 26 25 20 17 20 21 18 13 10 9 9 11 13 14 15 14 13 14 14 13 13 12 11 11 13 12 12 13 15 15 16 18
41 45 37 31 38 44 41 40 39 37 36 33 26 21 17 22 21 17 13 11 11 13 13 15 16 17 17 17 17 16 17 13 14 15 12 15 15 15 16 16 18 20 19
40 42 37 42 44 42 41 43 41 40 41 31 24 19 15 18 18 15 12 14 14 15 16 18 20 21 19 20 20 19 20 14 11 15 18 18 18 20 19 21 23 22 23
37 36 39 39 37 46 47 46 38 36 31 26 21 13 12 17 18 14 15 14 16 18 20 22 22 23 24 25 25 24 20 13 12 16 19 21 22 24 23 23 25 26 28
33 31 31 35 41 49 50 42 37 32 26 22 8 9 13 16 14 15 14 15 19 20 21 23 24 25 24 24 23 23 25 20 16 19 20 21 24 27 26 25 25 26 30
23 29 29 23 24 50 45 38 31 21 21 7 10 10 9 10 10 11 15 17 20 22 24 25 25 25 25 26 24 24 27 26 22 22 22 25 23 23 25 26 26 27 29
24 26 36 27 25 27 24 25 17 13 11 9 8 5 4 8 9 14 19 20 23 26 30 30 31 27 26 27 29 28 27 28 27 30 34 34 31 28 27 26 27 28 28
21 30 40 33 25 23 16 10 9 15 9 5 2 5 9 8 15 16 20 23 25 28 28 30 31 25 25 27 28 28 26 25 26 33 39 39 38 34 33 29 29 30 28
33 33 42 22 24 8 10 11 16 6 5 4 5 9 12 11 15 18 21 25 27 28 24 26 29 18 26 26 26 26 24 31 36 42 44 39 40 39 35 32 31 30 31
30 28 11 7 14 21 24 18 11 8 6 5 7 10 13 14 16 19 17 20 20 22 28 32 35 29 27 29 33 36 34 40 47 45 41 39 37 41 40 39 36 34 34
12 9 19 20 19 14 11 7 6 5 2 8 11 15 18 17 16 17 21 30 22 25 27 27 29 33 33 40 37 36 33 37 43 46 45 45 46 46 43 42 41 39 38
8 10 11 13 11 8 7 3 2 3 3 8 8 12 13 15 15 27 25 25 26 26 23 26 29 33 37 36 38 37 37 36 38 42 46 45 45 46 46 44 42 43 39
7 8 9 9 6 4 3 3 4 6 8 11 9 18 18 16 21 22 25 23 23 24 24 25 26 28 31 35 37 39 42 43 42 40 43 42 42 44 45 43 41 41 42
2 5 6 5 5 4 3 5 7 9 11 12 15 19 23 21 18 18 19 20 23 26 27 28 29 31 34 36 39 43 45 46 47 47 48 48 48 46 46 46 45 44 45
2 2 4 4 4 6 8 9 12 13 15 17 21 22 18 16 17 19 22 26 28 30 31 32 33 36 38 39 40 41 43 45 47 48 47 48 48 47 46 47 48 49 52
4 4 6 7 9 11 13 15 18 16 18 20 24 17 16 20 23 25 27 30 32 34 36 38 40 41 44 46 48 50 52 50 45 43 45 47 48 49 49 49 50 50 51
4 6 8 11 15 19 16 18 19 21 24 25 18 18 21 24 27 31 33 35 38 39 40 42 44 47 49 49 50 52 52 49 46 46 46 47 49 52 53 54 54 55 56
5 6 11 16 18 20 17 19 22 21 21 19 19 23 27 30 34 36 37 38 41 42 44 46 48 49 52 52 52 53 50 48 46 47 47 51 54 58 61 63 64 66 67
6 15 15 16 17 22 21 21 19 18 18 21 24 28 33 36 39 41 42 43 46 48 49 50 51 53 55 55 55 54 49 47 49 52 53 56 60 65 69 73 74 76 78
13 16 14 17 22 23 18 16 17 19 22 25 29 34 38 40 43 45 46 48 51 53 54 55 55 57 58 57 57 55 49 48 51 55 58 62 66 71 77 81 84 86 88
20 21 19 23 21 16 16 19 21 24 27 30 34 38 42 45 48 51 52 54 56 59 57 56 58 58 58 58 55 53 54 57 60 62 65 69 73 79 86 93 97 99 100
25 23 25 23 18 17 20 23 25 29 31 35 38 41 44 47 50 53 56 59 61 61 61 60 59 60 60 57 54 57 61 65 68 69 72 77 82 88 96 100 93 87 82
26 24 23 20 19 20 24 27 31 35 38 41 45 47 50 52 55 58 59 61 61 62 61 60 60 62 59 56 57 62 66 68 71 75 79 84 89 98 103 90 81 77 73
21 19 17 19 20 24 29 33 36 39 42 46 50 52 55 58 59 59 60 61 62 61 59 59 62 60 57 58 61 67 70 72 76 81 83 88 97 97 82 72 69 66 62

GFSSE_500_spd_024.txt.gz
Wind_Speed
28 33 34 37 42 43 41 38 35 37 36 38 30 27 29 26 22 18 15 14 13 11 11 10 12 14 15 14 13 13 12 13 13 12 13 12 10 11 13 16 18 19 19
33 34 36 38 38 36 39 31 34 34 37 38 34 29 28 22 21 19 17 15 12 11 10 11 14 15 17 17 15 13 14 13 14 13 12 10 10 12 10 11 13 14 16
34 37 35 32 33 27 30 30 32 35 36 39 32 32 24 23 21 21 17 14 12 12 12 13 15 17 19 17 15 15 13 15 16 15 13 12 13 13 15 15 16 16 18
38 39 39 37 31 37 38 36 37 37 38 37 33 32 28 21 20 21 17 15 13 15 14 15 17 20 21 20 18 18 18 16 16 13 13 14 15 16 17 18 20 21 21
39 40 41 37 36 36 35 39 39 38 38 37 32 34 28 17 18 20 16 16 18 15 15 17 18 19 18 20 19 20 19 19 17 13 11 12 13 14 17 19 23 24 25
45 43 39 38 37 34 36 37 37 39 41 36 38 36 20 15 15 18 20 21 16 15 17 19 21 22 22 21 22 20 15 17 18 18 18 17 16 18 19 19 21 24 24
41 37 30 36 32 31 35 42 41 40 37 34 37 18 6 9 14 19 19 16 16 19 21 22 25 27 28 27 28 27 23 17 18 22 22 22 23 26 27 26 26 25 24
34 36 35 33 29 27 41 46 45 38 36 31 17 10 10 14 16 14 13 15 19 23 24 27 30 31 31 30 30 31 29 28 26 23 21 22 25 28 30 31 31 29 26
36 30 37 38 23 34 37 32 30 28 19 10 9 8 9 9 9 10 15 17 22 25 27 28 28 28 27 28 23 29 26 23 24 23 23 25 31 38 35 34 34 30 27
32 26 36 40 22 28 28 23 17 9 16 11 10 6 6 6 12 13 18 20 20 21 25 27 22 26 29 27 19 23 25 27 27 27 29 33 40 38 34 35 33 34 31
22 38 17 36 40 28 19 14 12 17 15 12 9 8 9 12 15 20 19 19 20 20 20 20 22 25 26 25 26 26 29 32 34 34 35 38 39 39 40 38 33 34 32
27 28 28 27 23 15 12 18 17 14 12 8 6 9 12 13 15 16 13 14 19 22 21 23 23 26 28 29 31 32 34 34 36 39 43 45 44 42 41 41 40 38 35
18 32 28 16 8 11 18 17 16 10 5 5 8 10 4 6 9 15 20 23 22 23 22 23 23 24 26 30 31 30 30 29 31 34 37 40 42 43 42 41 40 39 37
12 16 14 15 10 14 12 11 9 7 8 6 5 8 8 13 14 16 17 18 15 14 16 18 21 24 27 30 32 33 34 36 37 37 39 41 41 43 44 44 43 39 39
14 16 17 16 15 13 11 8 6 5 3 6 7 8 13 15 16 11 10 14 16 19 23 26 28 30 31 32 34 36 37 39 40 40 40 41 42 45 45 46 46 45 42
13 13 12 13 12 9 6 4 0 4 5 6 8 12 15 12 8 10 14 19 23 25 27 28 29 31 32 34 35 37 39 41 43 45 46 46 45 43 44 46 47 46 46
9 8 8 7 6 4 3 2 4 6 7 9 12 16 11 9 12 15 20 23 25 27 28 30 32 34 36 37 38 40 42 43 45 47 49 49 48 47 44 43 45 46 45
9 8 6 4 5 5 5 4 6 8 11 15 16 12 9 14 17 19 23 26 29 30 32 34 37 39 40 40 41 44 47 47 48 50 49 47 47 47 47 46 45 44 45
5 4 3 4 7 7 8 8 10 12 15 16 12 11 14 19 22 25 28 33 35 37 38 40 41 44 47 46 45 47 49 51 51 50 47 46 46 47 50 50 51 53 54
4 5 8 9 9 10 14 14 14 14 13 11 12 16 19 23 27 31 34 37 39 41 43 46 48 51 52 50 49 49 51 52 53 50 47 47 49 51 54 57 59 62 64
7 10 13 11 14 15 17 13 10 10 12 14 18 22 26 29 32 37 39 42 44 47 50 52 52 53 53 52 52 51 53 54 51 48 49 52 55 59 63 65 67 69 70
9 9 8 10 16 16 12 10 12 15 17 21 25 29 32 36 39 42 45 48 50 53 54 56 57 56 56 54 53 53 54 50 46 47 51 55 59 61 62 65 70 73 76
10 13 6 13 12 11 11 12 16 19 23 27 30 33 37 39 42 46 49 52 54 55 56 58 58 57 54 53 53 55 53 48 49 52 54 58 61 65 70 75 79 83 87
11 12 11 15 10 10 14 17 21 25 29 32 35 38 41 44 47 49 52 54 57 58 59 59 58 55 54 54 56 54 52 54 57 58 63 67 70 75 79 79 79 84 90
15 14 12 9 12 14 17 22 26 30 34 37 40 43 46 48 50 52 55 58 58 59 59 58 56 55 56 57 54 53 55 57 60 64 67 71 77 80 80 79 85 91 93
14 15 11 14 16 19 22 27 32 36 39 42 45 48 51 52 55 57 59 59 59 60 59 57 57 58 59 57 56 56 58 62 66 69 69 72 76 77 74 82 88 89 84

GFSSE_500_spd_027.txt.gz
Wind_Speed
22 22 24 27 31 32 31 33 36 37 37 31 33 32 33 32 29 22 20 19 17 14 11 12 12 14 16 17 17 16 16 16 16 14 13 13 12 11 12 12 12 13 15
23 26 30 32 31 32 33 33 30 37 28 30 33 31 32 28 27 21 18 18 15 13 13 14 15 15 16 19 19 19 18 17 16 17 18 15 12 12 12 12 13 14 15
30 30 33 33 33 32 26 27 30 33 32 31 33 33 29 26 26 18 18 18 15 14 15 16 16 16 17 18 17 16 18 19 19 19 18 17 15 14 14 13 14 16 19
36 37 38 39 38 34 32 28 36 34 31 33 32 32 27 26 21 16 18 20 17 18 18 17 17 18 19 19 17 16 18 19 20 20 19 16 16 16 15 16 16 17 20
36 41 42 39 33 31 31 32 33 32 32 34 32 31 25 26 22 17 19 20 21 20 21 18 20 22 23 22 22 22 20 18 20 20 17 16 14 14 14 14 15 17 20
32 36 40 41 37 35 36 37 34 31 32 31 32 30 26 23 15 16 18 20 19 21 21 22 24 24 24 26 27 25 26 26 23 21 22 21 21 21 21 24 25 24 27
35 38 41 39 33 32 36 34 33 31 33 34 34 32 26 15 19 16 18 14 19 22 21 23 25 28 31 30 28 26 25 26 26 25 24 27 28 28 29 23 24 25 27
43 43 45 35 33 33 30 32 30 32 38 37 36 30 10 8 9 12 16 19 18 20 21 23 29 30 30 28 25 27 24 22 23 25 25 28 31 31 30 27 32 30 30
38 46 35 38 32 35 25 30 30 38 45 37 26 11 10 12 14 14 13 14 17 21 24 22 22 20 23 25 25 25 25 24 22 22 24 25 27 30 34 36 38 36 34
28 29 39 40 46 40 28 31 37 37 30 16 15 12 11 12 10 7 7 14 20 24 25 21 19 20 24 25 27 27 28 29 30 31 31 34 34 34 37 41 41 39 37
23 35 39 45 46 40 36 30 28 29 19 16 13 10 4 4 5 9 14 22 24 17 19 21 23 23 24 26 28 27 28 30 34 36 37 36 34 36 40 41 40 37 36
17 23 31 27 19 26 20 24 22 18 20 15 11 8 8 11 13 16 16 17 19 23 23 19 18 20 21 22 23 25 27 28 30 33 35 37 38 39 38 38 40 40 39
18 25 17 21 29 26 15 22 22 16 11 8 6 7 7 6 5 9 13 18 20 17 15 16 20 22 24 26 27 27 29 30 32 33 35 38 39 40 40 41 44 45 43
7 15 15 10 9 6 15 18 13 11 11 8 5 8 6 7 9 12 13 14 10 14 18 21 23 25 27 30 31 32 33 35 37 38 40 41 41 42 42 42 43 46 47
15 19 18 17 15 16 12 12 10 8 9 8 5 4 8 12 14 11 7 9 13 17 22 25 27 29 31 33 35 38 39 40 41 41 41 41 42 43 43 44 44 44 46
19 19 18 16 13 13 9 8 6 4 3 3 5 7 10 11 9 9 10 14 18 22 26 29 32 34 36 37 40 42 43 44 44 44 44 46 46 45 44 43 43 42 42
13 12 14 13 10 9 6 6 3 2 2 4 6 9 11 6 8 12 16 21 24 27 32 35 37 39 40 41 43 45 46 47 46 46 47 48 48 48 46 44 43 42 42
11 10 9 6 5 2 2 1 3 3 6 8 9 12 7 8 13 18 22 26 29 32 36 39 40 42 43 45 46 47 49 49 47 47 46 46 48 47 44 43 43 43 44
7 6 3 3 1 3 3 2 6 8 9 8 7 8 10 13 19 24 27 30 33 36 39 41 43 45 47 48 49 49 49 49 47 46 46 48 46 42 42 43 46 47 49
10 8 5 3 1 1 6 7 5 4 3 4 7 11 14 19 24 28 31 34 38 41 42 44 47 49 49 50 50 50 50 48 47 48 49 47 43 44 45 47 49 52 54
5 1 2 3 1 4 6 3 2 3 6 8 13 17 21 24 28 31 35 39 42 45 47 49 51 51 52 51 51 51 50 49 49 52 50 46 47 49 51 54 56 58 60
3 1 1 2 4 4 4 5 5 7 10 14 18 22 26 29 33 37 41 45 48 49 51 51 51 52 53 52 51 50 50 51 53 52 50 50 51 53 55 58 60 63 65
5 3 2 5 7 5 9 9 9 14 17 22 26 30 33 36 40 44 46 48 49 51 53 54 53 53 55 53 52 53 54 54 55 52 51 52 53 58 61 65 68 69 68
8 5 6 8 11 9 12 14 15 19 24 30 33 35 37 41 45 47 48 50 51 53 53 54 53 56 54 53 55 57 58 58 58 58 58 60 63 65 69 72 74 76 77
9 5 6 10 13 12 14 18 18 24 30 35 38 39 43 46 49 51 53 54 55 53 55 55 56 56 55 57 59 58 58 61 62 60 61 65 68 73 76 78 80 83 79
12 7 11 11 13 12 17 21 24 30 36 39 41 44 47 50 51 53 54 54 56 56 55 56 57 57 60 62 62 62 63 65 65 66 68 69 71 72 75 78 74 75 73

GFSSE_500_spd_030.txt.gz
Wind_Speed
22 24 22 21 22 24 27 28 27 28 25 23 21 24 26 23 22 17 16 12 11 13 12 11 12 13 14 14 16 16 17 16 15 14 14 15 15 16 14 13 12 11 12
20 22 23 24 26 29 29 28 24 21 22 23 23 25 25 22 20 19 15 10 11 13 11 12 14 15 15 17 18 19 19 18 16 15 14 14 16 16 14 14 15 14 13
23 26 26 27 29 30 31 30 27 27 25 26 27 28 25 24 19 21 16 11 12 14 12 15 17 17 17 21 22 22 23 21 20 19 17 15 14 16 15 16 14 14 14
27 27 28 30 31 33 34 30 27 27 27 29 30 26 28 25 22 22 16 13 14 15 14 17 19 20 20 22 22 23 23 24 24 22 21 20 16 14 14 14 12 11 12
29 30 31 31 29 29 29 26 25 27 27 27 26 28 25 26 25 25 19 13 16 16 17 18 20 21 23 24 24 25 26 25 25 25 23 22 20 18 16 17 16 15 18
32 31 30 29 29 29 27 24 32 32 28 27 28 32 25 27 26 24 14 14 14 19 18 19 20 22 24 25 29 28 23 18 19 21 23 23 23 26 27 26 28 28 30
30 27 29 32 36 30 29 26 25 28 27 28 28 29 30 32 23 16 12 10 14 17 13 20 21 21 25 28 29 26 22 21 19 17 18 20 23 27 31 32 33 34 31
31 33 35 32 33 33 41 21 29 29 27 29 29 37 34 33 12 6 7 15 15 16 20 19 20 27 27 26 22 22 22 23 23 23 24 22 23 23 25 28 30 35 35
32 35 38 35 41 50 43 38 31 33 31 30 32 39 30 11 7 7 12 14 16 15 14 17 23 28 30 24 24 24 25 24 23 23 25 27 30 30 31 34 35 36 37
30 33 26 45 48 52 44 42 31 30 32 33 32 21 13 8 10 13 11 10 8 13 20 24 26 23 25 24 22 21 20 21 23 25 26 26 27 30 31 33 34 38 40
28 26 40 43 45 47 42 42 33 38 32 27 10 13 10 9 9 6 8 13 16 19 23 20 21 19 17 17 18 21 24 27 29 31 32 35 35 36 37 38 37 36 36
27 26 27 40 41 44 45 43 44 29 25 18 20 15 14 7 8 10 14 18 18 18 19 16 11 14 17 21 24 26 26 28 29 31 32 35 37 39 41 42 43 44 43
17 21 23 27 30 34 32 25 32 26 14 15 14 11 8 13 15 11 9 14 17 18 12 13 15 18 22 25 27 29 30 31 31 31 34 36 38 39 41 41 41 42 43
22 5 15 3 15 18 20 20 20 15 15 11 11 10 10 10 9 10 14 13 8 10 12 17 21 24 26 29 31 31 32 35 37 37 38 40 41 41 42 41 41 41 41
20 20 23 22 21 15 17 17 16 15 13 12 10 8 11 12 10 9 5 6 10 13 18 21 25 29 32 35 37 38 39 41 42 43 43 43 43 43 42 42 40 41 41
22 20 21 20 18 16 15 14 12 14 12 10 9 6 10 9 8 6 7 10 15 19 22 26 30 34 36 39 40 42 43 45 45 46 46 46 45 45 45 43 42 42 41
19 17 17 15 13 10 10 11 10 10 12 10 6 7 9 8 6 8 12 15 20 24 28 31 34 37 40 42 44 46 47 47 48 47 46 46 46 46 46 46 47 46 43
19 16 16 14 11 7 5 7 8 7 9 7 6 7 7 9 11 13 16 21 25 30 33 35 39 42 44 46 47 48 49 49 49 47 46 45 45 45 47 48 47 42 40
17 13 11 8 8 7 4 3 6 7 5 6 7 5 8 11 13 17 21 26 30 34 38 40 43 45 47 48 49 50 51 50 49 47 45 45 46 47 49 48 44 44 46
12 8 5 6 5 3 5 5 6 6 6 6 5 8 10 14 19 23 27 31 35 38 41 43 46 48 49 51 52 52 50 48 45 45 46 48 50 51 51 49 49 51 52
11 8 7 8 5 4 7 5 5 6 5 6 8 12 16 20 24 28 32 35 39 42 44 46 48 50 51 51 51 50 50 47 46 47 50 51 51 51 52 53 55 57 59
5 4 6 9 4 5 4 5 6 6 9 11 13 17 21 26 29 32 35 38 42 46 48 48 48 49 49 49 51 51 50 49 52 54 54 53 54 56 58 59 60 60 63
4 5 6 9 8 7 9 8 11 13 16 18 18 22 26 31 34 37 40 44 46 46 46 46 48 49 48 51 52 52 52 53 55 55 56 58 61 62 63 63 63 65 67
7 7 8 11 9 10 12 11 13 16 19 21 21 28 33 36 40 43 44 45 47 47 48 45 48 52 54 53 53 54 57 58 59 60 62 65 67 69 70 69 70 72 76
11 11 12 16 14 11 13 13 14 18 22 24 27 36 39 42 45 47 45 48 46 45 42 41 58 58 56 55 57 59 59 62 64 67 69 71 74 75 76 78 80 80 76
16 13 17 24 7 7 12 16 17 22 25 28 32 39 43 46 47 46 47 47 48 43 45 52 58 57 57 59 60 62 65 69 72 75 77 79 80 81 83 83 81 76 72

GFSSE_500_spd_033.txt.gz
Wind_Speed
25 22 20 19 19 19 20 21 22 24 21 16 13 12 11 14 15 15 13 8 5 9 10 10 11 13 12 13 15 16 16 15 15 15 15 15 17 17 16 14 13 11 11
21 21 19 20 21 22 23 24 23 22 19 17 16 17 17 18 16 15 12 10 6 10 13 14 13 13 13 14 16 18 17 17 17 17 16 17 17 15 16 17 15 14 13
22 23 22 22 23 24 24 25 22 21 21 20 18 22 22 19 15 15 12 13 9 13 17 16 14 14 14 16 17 18 19 20 21 20 19 19 20 20 18 17 17 15 13
25 26 27 27 26 24 23 23 23 20 19 20 23 25 22 19 15 17 13 12 13 16 18 16 14 16 16 17 20 21 23 25 24 22 20 19 19 20 21 21 21 18 17
26 30 29 31 28 25 20 21 22 21 19 18 23 22 22 20 19 18 17 14 14 17 18 18 16 17 19 19 20 24 29 25 21 18 16 18 19 19 20 21 23 23 22
29 29 32 32 29 25 23 24 23 23 23 25 25 23 23 19 20 23 22 16 14 16 17 20 17 18 19 18 20 25 28 22 21 17 17 15 16 19 22 23 26 28 29
31 30 32 29 27 25 28 31 26 19 24 26 21 20 22 18 23 23 21 17 18 16 18 14 16 19 18 19 24 23 20 20 21 21 20 20 21 21 19 21 23 26 29
30 31 29 27 30 32 27 35 36 22 29 22 19 22 23 23 29 19 18 19 17 12 12 14 18 17 19 22 22 19 19 18 21 19 19 19 21 22 24 24 25 27 29
28 27 29 28 30 33 41 45 45 27 33 28 24 24 24 27 23 11 12 7 8 11 12 14 15 20 22 20 22 20 15 15 17 20 23 24 26 25 27 28 28 29 30
30 28 30 27 35 48 38 49 39 38 32 29 32 28 22 13 13 11 8 9 9 9 11 15 20 20 19 16 12 13 17 19 22 24 25 26 27 29 30 31 33 33 34
30 31 29 28 39 46 38 46 39 38 40 34 34 26 17 17 13 10 10 9 11 12 16 18 18 14 11 12 15 19 23 24 27 28 30 32 33 34 36 37 38 38 38
30 24 24 29 46 40 41 49 45 47 44 34 26 18 15 12 11 10 12 11 14 17 16 15 10 11 14 17 19 22 24 27 29 31 32 33 34 36 38 39 41 42 42
28 21 26 28 38 43 49 45 38 32 31 29 25 21 21 17 15 13 15 15 16 17 16 10 10 14 17 20 23 26 28 30 32 34 36 39 39 41 42 41 42 43 45
21 22 22 29 30 36 34 35 35 34 21 14 20 18 13 11 14 12 12 14 17 13 9 11 16 18 22 24 27 30 32 35 36 38 40 41 42 43 43 42 40 41 42
9 15 18 15 14 11 20 19 21 28 24 19 16 15 14 12 12 14 15 10 8 10 12 16 20 23 27 29 32 35 37 39 42 43 44 44 44 45 44 42 40 41 41
23 24 25 23 25 24 20 17 17 18 16 15 15 14 14 13 15 14 11 9 11 14 17 21 24 28 31 34 37 39 41 42 44 46 46 46 45 44 43 43 43 43 42
24 25 25 22 22 20 18 14 15 15 15 14 13 13 11 11 10 12 13 11 13 18 21 26 29 32 36 39 42 43 45 46 47 47 46 45 44 44 44 45 45 45 46
20 19 18 17 17 15 14 13 12 13 14 14 12 10 12 11 9 10 11 14 18 22 26 30 33 37 39 42 44 46 47 48 47 46 44 44 44 45 46 47 47 48 48
18 16 15 14 13 10 11 14 13 13 13 15 12 12 11 10 10 13 15 19 24 27 31 35 38 41 43 45 47 48 48 47 45 44 45 45 44 46 47 47 48 48 49
14 12 10 10 11 10 8 8 10 12 11 12 10 9 7 10 12 15 20 23 28 32 36 38 42 45 47 48 49 48 47 45 45 46 46 46 47 48 49 49 50 52 55
10 8 8 9 7 7 7 6 7 9 9 8 8 9 10 12 16 20 25 29 33 36 39 42 44 47 48 48 47 46 46 46 47 47 47 48 50 51 53 54 57 60 62
10 8 7 9 10 8 8 7 9 10 10 13 15 13 13 16 20 24 29 33 36 41 42 43 45 45 46 48 47 48 49 48 48 48 50 52 54 56 58 61 64 66 67
13 13 12 16 16 14 14 12 11 13 15 16 18 18 22 23 23 29 32 37 41 43 44 45 45 43 48 52 52 55 53 50 50 51 53 56 59 62 65 68 71 72 73
12 12 16 19 18 13 12 11 11 10 13 18 21 21 23 30 30 35 37 41 44 45 43 45 46 47 46 53 55 56 54 54 55 57 59 62 64 66 69 72 73 75 75
15 14 15 16 16 15 14 14 11 11 16 17 21 24 27 32 34 38 40 46 47 43 44 46 50 52 50 50 55 55 55 56 59 64 67 69 71 73 78 80 77 79 80
18 16 17 19 18 21 20 17 14 15 19 21 24 26 32 34 39 42 43 48 43 44 50 53 54 54 52 52 55 55 57 60 65 68 70 74 76 80 80 81 83 86 85

GFSSE_500_spd_036.txt.gz
Wind_Speed
29 27 24 23 24 25 23 22 23 21 20 20 15 12 11 11 10 12 12 10 9 9 9 10 11 12 11 10 10 11 12 11 12 13 14 15 16 17 17 17 17 15 15
32 29 25 25 24 24 23 22 22 20 21 19 15 13 15 14 15 12 11 12 11 10 10 12 12 14 13 10 11 12 13 11 14 16 16 16 15 16 18 18 19 19 18
38 30 25 25 24 24 25 24 22 22 22 17 17 18 17 15 14 12 12 11 12 13 13 14 15 16 13 12 14 14 15 16 18 18 17 18 17 17 17 19 20 21 20
31 29 25 25 26 27 28 26 23 16 17 17 15 19 17 18 16 13 13 12 13 15 15 15 16 17 12 13 16 17 19 22 21 17 17 17 16 18 19 19 20 22 22
19 23 25 27 29 31 31 27 21 15 14 17 17 17 16 18 16 15 16 15 15 16 16 17 17 15 13 16 17 18 20 22 19 16 14 12 13 15 18 19 21 23 23
20 23 25 29 32 34 33 24 19 20 15 17 18 19 20 18 16 15 21 19 19 19 17 17 15 15 14 16 18 19 22 19 17 16 16 16 14 15 16 17 19 23 26
26 27 28 28 31 30 26 24 25 22 26 20 19 21 20 16 14 18 22 23 20 20 17 14 12 12 15 15 18 19 19 20 19 17 16 14 12 12 15 16 17 19 22
27 28 29 30 27 23 25 27 28 29 21 22 25 22 19 17 17 19 21 23 21 16 13 14 14 15 14 16 17 17 19 15 12 13 16 18 19 19 19 19 20 22 23
25 29 29 25 28 28 30 35 32 29 37 25 26 24 21 20 21 21 22 17 13 12 11 9 13 13 14 16 16 15 12 13 15 18 20 22 23 24 24 25 26 27 28
31 28 28 24 27 27 32 38 34 36 32 36 28 27 29 23 24 23 18 14 11 9 11 11 12 16 16 15 11 11 13 17 18 20 23 25 27 29 29 30 32 33 34
31 30 29 27 30 30 37 38 43 46 43 38 31 32 32 28 23 17 15 13 11 11 12 10 13 14 10 10 12 16 18 20 24 26 27 29 31 32 34 36 38 39 40
33 33 33 33 31 38 35 38 49 39 53 35 33 39 34 24 18 16 15 14 12 11 12 12 14 11 11 13 17 20 22 25 28 30 32 33 35 37 39 40 41 42 43
33 33 33 33 32 39 38 48 42 33 41 45 37 37 26 22 17 15 13 12 11 12 12 15 14 10 14 18 20 23 26 29 33 35 36 38 39 40 40 41 42 42 43
31 32 34 33 29 30 27 39 43 52 53 45 34 27 22 18 15 15 15 13 12 13 15 11 11 15 18 22 25 28 31 34 37 39 40 41 42 42 42 41 41 40 39
32 33 31 32 27 24 36 28 35 46 30 22 22 16 19 16 14 15 12 12 13 9 10 13 16 19 22 25 29 33 35 38 40 42 43 44 43 43 42 42 39 38 39
27 30 24 29 26 29 23 22 27 34 31 21 21 17 14 13 14 13 15 15 11 11 14 16 20 23 26 30 33 37 40 42 44 44 46 46 45 43 42 42 42 41 40
17 26 24 24 22 22 21 21 22 22 19 20 17 16 16 16 13 16 15 13 12 14 17 21 24 28 31 34 37 40 43 44 44 46 47 47 44 43 44 44 43 43 42
18 20 25 24 27 22 21 18 16 14 16 13 15 14 15 14 12 11 13 13 14 18 21 25 29 33 35 38 41 43 43 44 47 47 46 46 45 45 44 43 41 40 40
18 15 16 16 17 15 13 11 10 9 9 12 13 13 14 13 13 11 12 14 17 21 25 29 33 36 39 41 43 43 44 46 45 44 45 45 44 44 43 41 41 43 45
12 11 10 11 15 14 13 12 13 14 13 15 16 16 14 13 12 11 15 17 20 25 28 32 35 39 41 43 43 46 47 44 43 45 46 46 45 44 44 45 47 49 52
10 9 10 11 12 12 12 12 15 15 16 18 16 14 12 13 13 15 18 21 25 29 31 35 38 40 42 41 45 48 47 46 47 49 50 48 47 47 48 52 56 59 60
12 11 11 13 12 13 13 12 12 13 15 15 15 14 15 18 18 19 21 25 28 33 33 37 40 42 40 44 47 50 54 53 48 49 51 50 49 50 53 57 59 61 64
12 11 11 13 13 11 10 9 10 14 14 16 16 16 20 23 25 28 29 35 37 38 39 42 41 41 43 47 50 52 54 54 53 55 53 54 54 56 60 63 64 66 68
13 12 12 13 15 14 13 14 14 16 17 19 19 19 21 23 23 25 31 36 39 42 42 45 43 44 47 52 53 54 54 54 55 56 57 56 59 63 67 69 71 73 73
15 16 17 18 19 20 21 22 22 21 21 19 16 15 19 23 26 30 34 36 39 41 45 48 46 47 54 57 57 59 58 57 53 56 59 63 64 66 70 73 76 77 79
20 20 21 19 19 22 26 30 21 22 19 18 19 19 23 27 29 33 35 37 43 44 47 47 49 55 59 58 61 61 60 56 56 59 62 64 68 71 74 79 81 81 83

GFSSE_500_spd_039.txt.gz
Wind_Speed
37 30 29 27 27 26 25 24 24 25 25 24 23 19 16 15 12 10 11 12 11 11 11 11 11 10 10 10 9 9 10 11 11 11 13 13 12 14 15 15 16 17 18
38 37 30 28 27 26 27 29 28 26 25 25 19 19 16 17 15 11 13 12 11 11 12 12 12 11 12 11 9 10 10 10 13 15 14 12 12 13 13 13 14 16 16
42 32 29 30 29 28 29 30 27 25 23 21 17 17 20 19 20 12 13 13 12 12 12 13 12 14 13 11 10 12 11 12 16 17 14 14 14 15 16 16 16 14 15
30 33 34 31 31 30 28 28 26 23 22 17 18 20 20 22 21 16 17 13 12 12 11 11 14 15 15 13 12 14 12 15 18 19 15 14 12 13 14 16 17 16 16
32 37 37 33 33 30 28 28 27 24 18 14 18 21 21 19 18 19 17 16 12 12 13 15 16 17 16 14 14 14 13 16 18 16 17 15 15 16 15 15 15 16 18
37 38 38 38 19 21 31 30 29 22 18 18 14 19 19 19 18 20 19 17 13 14 15 16 16 16 13 13 14 14 16 18 15 16 15 15 14 13 14 15 16 16 17
16 17 20 19 19 24 29 30 31 24 21 22 21 19 22 20 19 19 16 15 17 19 17 16 13 10 11 12 14 15 16 16 16 11 10 12 13 14 15 16 17 19 20
14 15 22 24 24 25 23 23 27 27 27 27 26 26 22 24 20 18 14 14 16 19 17 14 10 12 13 13 14 14 16 15 12 14 14 15 17 18 19 21 22 22 23
20 24 23 24 24 22 25 25 27 29 29 25 28 30 30 27 23 21 16 16 17 16 14 12 8 10 12 13 14 15 12 11 13 16 17 19 21 22 24 24 24 26 28
26 20 19 25 27 25 26 28 31 31 40 33 30 38 35 31 26 23 20 18 16 14 10 9 10 10 12 13 12 10 11 13 16 18 22 23 26 27 29 30 31 32 34
27 26 26 28 28 23 24 41 30 32 34 40 42 38 41 37 27 27 24 17 13 11 10 10 10 10 10 10 10 12 14 17 20 22 26 27 28 31 33 35 36 37 37
28 27 29 31 28 27 26 25 33 37 43 38 49 47 47 38 34 27 20 16 12 11 13 14 11 10 11 12 13 15 18 21 25 26 29 31 34 36 38 40 41 42 42
26 28 30 32 30 28 30 28 31 34 43 44 55 58 44 44 33 26 19 14 11 10 12 12 13 12 12 14 17 20 24 27 30 32 35 37 37 38 40 41 42 42 43
30 28 30 29 30 29 30 36 40 34 51 55 35 42 39 44 32 21 15 11 12 12 13 13 13 13 13 16 20 24 28 31 33 34 37 38 39 41 42 43 43 42 42
33 33 31 28 31 32 31 29 37 40 29 31 39 45 45 25 20 14 11 11 11 13 12 12 12 14 17 21 24 28 32 35 37 40 41 42 43 46 47 46 44 42 42
33 34 32 31 31 35 34 30 42 30 26 28 34 33 23 18 13 9 9 11 13 11 11 13 14 17 20 25 28 33 36 38 40 42 43 43 47 48 47 46 45 44 43
30 30 27 28 31 32 30 25 36 25 15 18 23 20 16 13 9 9 11 14 14 12 14 15 18 22 25 29 33 36 38 40 41 42 45 46 46 47 47 47 47 47 46
12 18 22 21 24 33 25 17 16 20 24 20 14 14 11 10 11 10 13 14 15 13 14 18 22 26 29 32 35 38 38 38 40 44 44 45 47 49 47 47 47 45 41
12 14 19 15 19 19 21 17 15 14 17 16 15 12 11 11 12 12 12 12 13 14 18 22 26 30 32 35 37 39 38 41 43 43 44 44 47 50 50 47 46 44 43
9 9 10 10 11 10 11 10 10 8 8 10 10 10 11 11 11 11 12 13 16 19 21 26 29 32 34 38 39 37 41 44 45 45 46 46 46 48 49 48 47 47 46
6 5 5 6 8 7 9 9 7 9 9 10 11 12 13 12 13 15 17 18 20 22 25 28 31 33 36 41 39 41 45 42 45 46 49 50 49 49 49 48 51 52 53
3 2 2 2 4 4 4 5 8 11 13 14 16 16 15 15 17 18 20 21 24 27 31 35 41 39 42 43 41 44 47 51 51 49 48 49 49 49 49 51 52 54 57
7 7 8 7 7 8 8 9 9 11 13 16 17 16 15 16 17 21 25 29 34 34 38 40 39 39 42 43 43 48 52 54 56 59 57 52 51 51 54 56 57 59 61
11 10 10 10 11 12 13 13 12 14 15 18 18 19 20 20 22 26 26 30 30 35 38 39 40 42 46 50 51 53 56 56 58 60 62 61 57 54 57 59 61 64 67
11 12 13 14 15 17 17 20 21 19 20 21 22 22 22 20 21 24 27 31 35 38 41 41 43 46 47 53 56 59 58 57 57 59 58 58 62 63 62 61 63 69 74
16 16 17 19 19 19 19 22 27 26 30 28 26 28 24 21 21 27 29 33 35 39 42 42 42 46 55 55 59 61 60 61 62 62 59 59 63 64 68 68 70 75 80

GFSSE_500_spd_042.txt.gz
Wind_Speed
42 42 40 37 34 32 31 29 27 26 25 25 24 24 23 21 19 16 14 13 13 13 12 13 12 13 10 11 10 10 10 11 10 11 10 11 10 10 10 11 11 11 11
30 35 33 28 28 29 29 28 27 27 28 27 26 24 23 20 17 17 15 15 14 12 12 13 13 12 11 10 9 10 9 10 9 10 11 11 12 11 12 12 13 13 12
31 39 36 34 30 28 29 29 28 29 29 27 25 22 21 18 18 19 17 16 17 14 12 11 12 12 12 12 10 10 11 11 12 12 12 12 11 11 11 13 14 14 14
17 39 36 35 31 29 31 32 31 31 27 25 21 20 21 19 19 21 19 20 19 13 11 11 10 12 13 13 12 11 12 11 11 11 12 11 11 12 13 14 14 15 14
25 38 35 35 30 39 36 32 30 29 27 24 18 20 21 20 21 22 22 19 17 11 12 11 12 13 15 15 13 13 11 10 13 12 13 12 12 14 14 16 16 16 17
31 23 29 36 35 33 34 28 28 27 25 21 19 16 17 19 22 23 20 18 17 16 12 8 11 14 16 14 12 12 10 10 13 14 13 10 9 12 12 13 15 16 17
33 24 31 36 36 36 22 26 26 26 25 21 21 21 20 19 22 22 20 17 16 15 13 13 15 15 11 10 10 9 10 11 13 11 9 11 13 13 14 16 17 18 18
34 30 26 37 46 44 39 26 23 23 27 25 23 25 23 24 23 22 17 14 11 11 11 14 13 13 10 10 9 11 12 13 7 9 10 12 15 18 18 19 20 21 22
17 23 19 25 24 16 24 21 19 20 27 27 26 25 27 28 28 25 19 16 12 12 13 13 10 8 6 7 10 11 10 9 9 9 14 17 18 20 21 22 23 25 26
20 21 37 23 26 28 26 21 23 26 24 33 27 26 22 24 29 32 26 19 16 12 12 11 9 7 6 8 10 9 9 9 9 16 18 20 22 22 24 25 26 28 29
28 22 18 16 21 29 13 14 23 26 25 31 32 28 39 36 36 38 32 27 19 11 11 10 8 6 8 6 8 8 10 13 14 17 21 22 24 25 26 28 31 34 36
25 21 22 21 16 23 15 17 17 17 30 21 31 30 33 34 42 41 38 32 18 14 11 10 10 9 8 8 10 11 13 17 18 22 24 25 28 31 33 35 39 42 43
25 22 21 22 25 23 22 21 18 23 25 22 29 35 39 37 46 50 41 34 24 18 14 12 12 11 10 9 11 15 17 20 21 25 28 32 35 37 38 40 42 43 43
25 27 24 22 24 25 25 25 25 27 33 34 35 42 46 46 38 35 35 28 19 14 12 10 10 11 9 11 15 17 20 23 25 29 32 35 36 38 40 41 42 42 42
24 28 27 26 27 26 24 22 25 29 40 37 31 35 34 43 36 38 17 19 11 10 9 10 11 10 11 14 17 20 23 27 29 31 33 35 37 39 40 41 43 45 45
28 30 30 29 29 26 29 28 27 28 34 37 25 28 35 38 30 19 17 10 11 9 9 10 9 11 13 17 20 23 26 29 31 32 32 36 37 39 42 43 43 44 46
30 31 32 31 29 29 28 25 28 28 30 27 21 19 23 20 23 14 10 11 10 9 10 11 11 14 17 19 23 25 29 33 33 34 38 36 38 40 42 43 44 45 45
27 25 25 27 26 24 20 22 30 28 26 22 14 15 20 18 14 12 10 10 10 12 12 13 14 17 19 22 25 27 31 33 33 36 40 42 40 41 43 44 45 44 44
15 9 3 13 19 28 33 30 19 19 19 15 17 18 16 12 11 10 11 12 12 13 15 15 17 20 21 22 24 30 33 34 36 39 41 44 46 45 44 45 47 46 44
11 14 15 16 18 18 16 18 14 13 15 15 16 11 4 9 12 11 9 13 13 14 15 19 20 23 21 29 35 35 37 38 39 41 44 46 46 49 49 48 48 46 45
8 9 11 11 12 7 8 10 9 8 10 11 9 11 13 12 14 11 12 11 13 16 20 22 25 28 30 35 36 36 38 38 42 44 46 47 48 49 49 50 50 48 48
3 5 6 7 5 4 7 7 6 6 3 3 8 10 12 15 13 12 11 15 18 22 26 28 31 34 37 37 37 39 42 45 47 50 51 51 52 54 54 53 50 50 52
4 5 7 8 8 8 6 6 7 7 6 9 13 14 14 16 12 13 15 18 23 28 31 36 35 40 39 35 40 42 44 48 51 53 56 58 58 58 56 55 55 54 55
5 5 7 8 10 11 10 10 11 10 10 11 15 16 16 18 17 18 20 22 24 27 30 31 34 37 38 39 41 44 50 52 54 59 60 61 61 62 60 58 55 56 58
5 7 8 9 10 13 14 13 15 16 18 17 19 22 23 22 23 26 24 22 24 28 32 34 37 38 42 43 47 50 52 56 58 62 66 65 62 63 65 62 60 59 62
10 12 11 12 12 12 12 15 15 14 16 26 29 29 29 27 26 24 23 22 28 31 32 33 36 38 40 46 53 52 56 62 66 68 71 66 63 65 65 67 68 69 70

GFSSE_500_spd_045.txt.gz
Wind_Speed
44 30 50 38 33 35 37 34 32 29 27 26 25 25 24 23 23 23 24 22 18 18 18 18 15 16 15 16 14 15 12 11 10 10 9 9 9 9 9 9 10 11 12
46 44 51 42 30 32 33 33 31 29 28 26 26 25 25 25 25 24 22 19 18 19 18 16 15 14 15 15 13 13 10 11 12 11 10 11 11 10 11 10 11 10 10
50 21 26 32 31 32 35 35 32 31 29 28 27 26 26 24 22 20 20 20 20 19 17 15 14 14 15 14 13 12 11 10 11 10 9 10 10 8 10 10 9 10 11
58 60 38 25 35 38 38 34 31 31 30 30 27 24 23 25 19 19 21 21 19 19 16 14 14 14 14 14 13 11 11 10 9 8 8 10 9 9 10 10 11 12 11
57 61 57 36 37 41 37 38 35 35 34 31 28 25 22 19 20 19 20 21 19 16 15 14 14 13 14 14 14 9 11 7 7 7 9 9 7 6 9 8 10 11 12
33 39 37 40 45 43 42 41 40 38 35 31 27 24 18 17 19 20 18 18 18 17 18 16 13 11 13 14 13 7 10 4 7 9 8 5 7 8 9 11 12 13 15
18 33 35 33 48 47 40 41 42 37 36 31 23 21 22 19 16 17 18 17 19 20 19 16 15 13 12 12 9 2 5 7 8 5 5 5 7 10 13 15 16 17 17
24 24 22 33 34 40 37 38 43 38 34 24 24 24 23 24 17 18 16 17 16 16 17 15 13 11 10 9 7 1 4 8 4 4 6 10 13 15 17 17 18 18 19
22 16 25 22 24 35 38 36 29 31 25 26 27 26 27 25 26 21 19 18 17 16 15 13 10 10 8 5 3 3 2 3 5 6 8 11 15 16 17 18 20 22 23
16 19 17 20 30 36 40 38 29 29 21 23 25 28 25 28 23 23 22 23 20 19 18 15 10 8 7 4 2 4 2 5 5 8 11 13 16 16 17 20 23 26 27
17 24 21 24 25 20 35 30 15 22 26 25 23 26 27 21 26 28 32 31 28 24 20 14 11 9 5 4 4 3 4 9 9 12 15 15 16 19 22 25 27 30 31
15 21 29 14 15 16 26 20 13 25 25 14 24 20 24 30 27 27 34 32 31 29 20 15 14 11 7 7 5 7 8 10 12 14 17 17 21 24 27 28 29 32 35
19 22 16 20 12 10 16 11 11 14 12 11 14 19 17 22 24 39 41 32 35 32 23 21 18 12 9 8 9 10 8 13 15 17 16 19 22 24 26 28 31 34 34
19 19 19 20 21 16 13 11 12 12 11 14 22 27 25 24 27 35 36 40 31 36 25 17 12 13 11 10 9 11 13 14 17 15 18 21 23 27 29 31 32 33 33
19 20 20 23 23 22 19 17 18 17 9 17 17 26 30 33 33 33 33 30 22 20 17 13 14 13 12 12 12 12 15 17 17 20 21 23 27 30 32 33 34 35 37
22 20 20 25 24 22 23 21 17 23 26 34 22 19 18 24 19 26 28 17 23 19 14 13 13 13 13 12 14 15 17 18 20 22 24 27 29 31 34 35 36 38 40
23 23 23 24 21 21 20 24 19 17 18 20 20 18 22 20 15 24 20 21 15 12 12 13 15 13 12 13 15 17 18 19 22 24 26 29 32 34 37 39 39 39 41
21 21 21 20 20 22 22 20 16 18 23 22 21 26 22 9 14 23 18 15 13 13 15 15 15 13 14 16 16 16 21 25 28 29 29 30 34 38 40 41 41 42 43
16 15 6 10 17 18 20 21 21 24 20 24 29 22 14 21 21 18 14 12 11 15 16 17 16 17 18 17 16 21 25 26 29 32 34 35 36 39 42 43 44 45 46
14 16 19 24 14 11 20 17 17 24 17 17 14 20 18 17 18 13 10 13 14 15 17 18 19 19 19 21 21 25 28 28 29 32 36 40 41 43 44 45 47 48 49
11 15 17 18 22 20 18 15 17 16 15 16 14 18 19 17 13 11 11 14 16 17 17 19 20 23 23 27 31 30 30 32 34 37 41 43 45 46 47 51 51 51 50
9 10 12 15 13 13 13 15 13 11 11 8 7 8 11 10 9 11 14 17 19 19 18 21 23 27 31 33 35 32 32 32 36 41 45 47 48 50 55 58 57 53 49
6 9 11 12 12 13 12 11 10 9 9 5 3 7 9 9 12 14 16 19 17 22 20 22 26 27 28 30 34 34 37 36 39 43 48 49 51 51 56 58 56 53 51
4 6 7 9 9 10 9 6 5 8 8 6 5 6 7 10 14 16 17 18 18 24 23 24 27 29 32 37 35 35 37 39 45 47 49 53 55 56 60 59 56 56 57
2 2 2 4 5 4 3 2 5 5 7 8 9 16 17 17 19 19 22 24 26 26 24 28 29 31 32 36 35 39 39 43 48 49 52 55 61 60 60 61 59 61 61
5 3 4 3 3 3 4 4 4 4 8 9 11 17 15 20 23 27 24 26 23 25 28 30 31 32 33 32 37 41 44 49 51 52 54 56 61 63 63 60 61 62 67

GFSSE_500_spd_048.txt.gz
Wind_Speed
41 40 46 38 43 41 38 40 25 25 28 29 28 25 25 24 23 22 22 22 23 24 22 19 18 17 16 15 16 18 17 17 17 14 10 8 8 6 6 8 7 8 8
44 37 48 48 45 41 40 38 20 27 29 29 28 28 27 27 24 24 23 23 23 23 21 21 20 16 15 17 16 18 18 15 15 12 10 10 9 9 7 7 7 7 8
40 45 46 44 35 51 44 30 31 32 32 30 29 27 29 28 26 24 23 23 23 21 22 21 18 16 16 18 18 17 17 14 13 12 11 8 8 5 6 7 8 9 9
41 44 50 54 46 38 42 40 35 34 31 33 31 31 31 28 24 23 21 23 24 23 21 19 18 16 16 17 16 14 15 14 12 8 6 7 6 6 5 6 7 7 8
39 38 47 51 47 39 41 31 36 35 36 33 31 31 30 27 23 20 23 23 22 21 20 20 18 16 14 15 14 13 15 12 10 7 6 6 4 4 5 5 7 8 10
48 41 41 42 34 38 44 43 41 39 37 34 34 32 28 24 21 22 22 22 21 19 17 19 17 16 14 15 14 13 10 8 5 5 3 2 4 5 6 8 10 10 12
44 44 47 35 34 46 56 49 46 43 37 35 34 32 29 28 23 18 16 16 18 17 18 21 21 17 13 14 14 11 9 7 4 2 2 2 3 6 7 9 11 12 14
32 37 40 17 18 27 49 45 48 44 41 36 36 35 31 25 23 22 15 15 18 18 17 19 22 19 14 10 13 9 8 6 5 4 4 4 5 7 10 10 11 13 15
24 23 26 15 20 34 56 46 58 49 41 42 39 34 28 26 26 23 21 18 16 20 19 18 18 19 14 12 12 10 8 6 7 5 5 5 8 10 11 11 14 17 19
16 10 18 17 26 38 55 38 40 50 45 42 38 31 27 29 29 24 22 24 20 23 23 19 19 18 14 16 13 10 7 6 5 6 6 9 11 13 13 15 18 18 18
12 12 10 18 19 20 33 40 27 32 42 35 32 25 22 28 25 24 23 24 24 25 27 23 21 17 15 15 15 12 8 6 6 9 10 10 12 13 15 17 17 18 21
16 16 16 17 16 22 21 26 32 31 25 30 17 24 21 17 27 23 22 25 26 33 37 28 22 20 19 16 13 12 11 9 10 11 11 13 13 15 16 18 19 21 23
19 19 19 17 13 16 11 24 33 15 24 26 14 18 24 17 21 18 23 24 25 28 31 28 19 21 18 14 11 10 9 10 11 12 13 14 14 15 18 20 23 26 27
21 22 23 17 12 15 12 16 11 11 14 18 10 13 15 17 16 18 23 24 19 26 26 22 29 31 23 13 13 12 12 11 13 16 15 14 15 17 19 22 25 28 30
20 19 20 18 17 12 5 5 7 4 9 12 9 3 10 16 19 17 19 18 16 19 20 24 27 19 15 16 15 11 12 14 17 18 17 17 17 19 21 24 28 31 33
17 18 20 20 20 15 14 14 14 9 10 15 18 17 11 13 15 16 17 14 16 17 17 23 16 16 17 16 14 14 14 15 17 17 18 20 21 22 25 27 30 32 34
16 19 21 24 23 21 22 20 19 13 12 8 20 20 20 17 16 18 18 17 17 19 22 16 16 17 18 17 15 16 17 15 16 19 20 21 23 26 27 29 32 34 36
14 17 22 24 25 25 25 21 21 19 18 17 17 22 19 19 20 20 14 16 20 19 17 17 18 20 20 19 18 17 17 16 18 19 20 23 26 28 30 32 36 38 38
7 5 17 21 24 25 22 22 29 28 22 23 21 22 21 21 19 16 16 21 18 16 15 18 20 20 20 19 18 21 20 21 24 23 22 26 32 33 34 36 39 41 41
10 10 3 12 25 20 22 25 25 23 23 21 17 20 22 26 17 21 20 18 17 17 21 21 21 21 19 21 23 25 24 26 26 28 27 31 34 36 38 40 41 43 44
12 12 18 27 24 14 8 16 20 20 21 23 21 18 19 22 26 20 19 19 19 20 22 22 21 22 22 24 25 28 29 31 28 28 29 32 36 38 41 43 44 45 46
7 11 16 18 21 19 15 15 18 17 19 17 13 16 17 20 18 20 20 19 19 21 21 21 20 21 23 25 26 26 27 29 32 31 36 38 40 42 44 46 46 47 49
9 9 14 14 14 13 15 16 15 12 14 12 11 9 12 11 13 16 19 21 19 20 22 22 24 24 23 27 27 30 30 32 33 34 37 39 41 44 47 48 48 52 53
6 9 11 11 9 9 10 12 13 13 13 14 12 10 9 9 13 16 16 19 21 23 21 22 27 28 27 28 30 32 33 35 35 36 38 41 43 47 49 51 53 54 54
2 3 4 5 4 5 6 6 7 8 7 7 4 1 4 11 16 17 17 20 20 22 24 26 31 27 28 30 32 35 36 35 37 38 40 45 47 49 51 53 56 57 56
2 3 1 0 1 0 2 1 1 0 0 1 1 1 5 7 17 22 20 23 24 26 26 26 26 30 32 34 37 39 38 39 45 41 44 48 49 48 54 56 57 59 58

GFSSE_500_spd_051.txt.gz
Wind_Speed
31 36 36 36 33 44 40 37 25 24 28 21 19 20 20 21 22 22 24 23 21 21 21 21 20 18 16 15 14 13 15 16 16 15 12 14 12 9 9 7 6 6 7
29 28 37 35 37 43 42 31 38 26 30 23 20 20 23 24 23 23 23 24 22 21 21 21 20 18 16 15 15 16 16 15 17 15 11 11 11 8 7 6 4 4 6
33 33 34 38 39 41 42 37 36 31 30 21 21 22 22 22 25 22 23 22 23 23 21 21 20 20 17 17 17 16 16 15 12 14 11 7 8 5 6 5 4 4 4
27 37 35 38 38 39 40 46 49 34 26 24 22 22 24 23 25 23 24 23 22 22 22 22 21 19 18 18 18 18 16 14 12 11 9 7 7 4 3 3 4 5 5
30 30 36 37 38 38 37 29 41 45 47 28 25 26 25 25 24 24 22 19 19 21 22 22 20 20 20 21 19 17 14 13 11 9 7 4 4 4 5 4 3 5 7
32 37 39 40 42 39 42 43 44 39 32 32 28 29 29 26 24 22 21 22 24 23 22 20 21 21 20 20 19 16 15 13 10 8 6 6 6 5 5 5 5 5 7
33 35 39 42 43 45 45 46 43 48 38 32 34 32 28 28 25 22 21 21 22 20 17 17 20 21 18 18 17 16 13 11 10 9 8 8 6 5 5 5 6 7 10
36 36 40 43 45 47 52 47 41 48 41 36 37 33 31 29 28 23 20 20 15 15 16 19 20 20 20 19 17 16 13 12 12 11 10 9 8 7 5 5 7 10 13
33 26 27 43 49 51 48 45 49 49 45 37 37 36 34 32 27 23 23 22 21 17 18 17 17 21 24 24 17 18 16 15 14 12 11 10 8 6 7 8 9 12 14
15 16 15 23 17 20 25 43 48 45 46 44 43 39 36 33 28 25 25 22 22 23 20 15 22 21 25 21 18 18 16 15 15 14 13 11 9 8 8 9 12 13 12
9 12 15 20 10 19 33 38 44 37 44 43 45 40 38 32 27 26 27 26 23 24 23 22 19 24 23 21 17 19 19 18 16 14 12 10 9 10 12 13 13 13 14
11 16 11 17 13 16 15 30 37 32 45 51 44 41 39 26 17 20 27 24 24 24 23 24 25 27 25 22 20 18 19 18 14 12 12 13 12 12 13 13 13 15 18
17 17 17 13 9 3 3 13 25 27 37 33 43 41 26 26 21 21 19 22 27 22 17 23 22 28 22 25 23 22 18 16 14 14 14 14 14 14 15 16 16 16 18
16 17 17 12 9 9 4 13 17 19 24 26 26 25 26 28 25 15 23 19 18 22 20 18 13 22 26 25 22 21 18 18 16 15 15 15 15 17 17 18 18 19 21
16 18 15 12 9 10 5 18 15 15 19 21 25 21 18 16 14 18 18 16 16 18 17 15 17 22 27 30 29 19 23 19 16 16 15 16 17 17 18 18 20 23 25
12 14 15 14 14 14 5 15 11 7 16 18 18 16 13 14 16 18 19 17 21 19 17 16 18 23 29 29 22 25 21 15 16 17 18 18 16 16 17 19 22 25 29
11 14 13 15 17 17 13 12 11 13 13 14 16 18 17 19 18 15 16 17 23 21 17 19 21 22 25 25 24 23 18 16 18 19 20 18 17 17 19 23 25 28 31
11 15 15 17 17 21 20 22 17 16 20 20 18 19 18 17 21 20 22 24 24 18 18 21 23 23 21 22 24 21 19 17 20 20 23 22 22 24 24 28 29 32 33
6 10 16 18 21 25 24 23 23 21 27 20 23 19 21 23 21 22 23 24 19 18 23 23 22 22 24 25 23 21 21 21 22 24 27 27 28 29 28 31 33 37 38
5 10 15 26 24 33 28 28 26 19 27 25 25 27 24 27 25 24 25 19 20 23 23 24 23 23 23 23 23 23 23 24 26 29 32 29 30 30 29 33 37 38 41
5 12 11 15 19 36 34 33 28 27 31 30 26 27 29 26 27 25 21 23 21 20 23 21 19 22 23 23 23 24 26 29 31 28 27 30 33 34 37 36 38 40 43
4 9 16 17 17 13 15 15 21 27 29 26 32 27 28 25 23 28 27 24 23 23 18 19 21 24 24 24 23 27 29 28 30 30 30 31 32 34 35 38 41 43 46
3 6 10 14 12 11 12 14 13 11 22 26 18 18 17 19 23 23 22 23 23 21 21 21 22 24 26 24 28 30 29 28 30 31 33 34 34 36 38 40 43 47 49
4 5 7 10 12 12 10 12 15 17 18 18 15 13 15 16 17 17 18 22 21 23 23 23 24 26 29 30 31 32 32 31 32 32 35 34 36 38 40 43 45 49 52
4 4 4 5 7 9 14 13 13 14 14 15 16 13 14 15 17 19 22 20 19 24 25 26 28 27 29 32 33 35 36 35 36 36 35 36 40 42 46 50 46 49 51
1 4 5 6 5 7 8 12 15 17 17 19 14 12 11 11 16 21 24 22 23 23 24 25 26 29 32 31 32 36 38 35 31 34 36 38 40 43 51 57 51 53 53

GFSSE_500_spd_054.txt.gz
Wind_Speed
38 37 33 31 31 28 36 30 27 28 28 37 26 26 20 17 17 13 15 15 15 16 16 17 17 18 20 19 18 19 17 17 17 18 19 17 14 10 9 9 7 7 7
41 32 34 30 28 31 29 29 26 28 26 28 36 27 22 18 15 13 14 15 15 14 15 16 17 18 20 20 18 17 17 17 19 20 18 15 13 7 6 6 5 4 5
37 34 33 33 23 27 30 30 28 29 22 34 29 26 22 16 14 11 14 15 16 15 16 16 18 18 20 20 19 17 18 18 18 17 15 14 11 8 6 5 3 2 3
36 23 21 32 25 29 32 34 30 26 26 26 29 26 21 19 18 13 16 16 14 13 15 16 18 19 20 19 19 19 19 20 17 14 14 12 10 7 6 4 3 5 5
28 29 24 25 29 30 35 33 34 26 36 29 30 27 22 19 14 17 18 15 14 15 18 18 19 20 20 20 21 22 20 20 16 15 12 10 9 7 6 5 5 5 4
28 29 30 29 31 34 31 35 30 33 25 30 32 26 23 22 20 17 16 15 14 17 19 21 20 21 23 23 21 22 21 17 16 15 11 10 10 8 8 7 5 4 3
27 28 36 34 34 35 33 35 32 32 30 32 41 34 28 25 22 18 18 14 13 17 21 20 19 20 20 20 20 21 19 16 16 14 12 10 11 10 8 5 5 4 6
30 28 30 31 34 37 37 35 35 35 34 33 36 38 29 27 22 21 17 15 13 12 14 15 19 22 21 21 21 21 19 16 14 14 13 13 13 10 7 5 5 6 9
36 34 33 32 32 35 35 36 36 34 28 28 43 32 32 29 26 21 18 14 15 15 14 16 18 22 21 19 20 21 19 16 15 16 16 15 13 9 8 7 7 9 11
24 21 22 31 33 23 31 31 36 37 37 37 42 41 39 32 26 21 18 17 18 17 17 20 22 18 20 22 22 21 17 18 18 18 16 14 11 11 10 8 10 11 10
14 9 24 23 30 24 30 28 35 43 53 42 50 44 40 31 24 20 19 22 21 20 20 19 22 21 21 21 24 19 21 21 21 20 17 14 14 13 11 10 12 10 10
17 14 15 8 10 17 18 18 35 38 54 48 53 43 40 33 24 22 24 23 25 25 22 18 20 22 24 22 19 22 24 24 22 20 17 15 14 13 13 13 13 13 13
18 19 14 8 5 5 12 12 20 28 41 47 48 43 39 34 24 23 19 24 27 24 20 19 16 20 19 20 24 23 26 25 23 20 17 15 15 15 14 15 16 15 15
16 14 12 12 6 5 2 17 14 38 32 40 45 39 43 27 28 23 23 23 23 19 23 26 22 21 19 22 24 26 25 26 22 19 18 18 16 16 16 16 17 17 17
16 16 17 10 9 6 5 12 19 27 28 27 40 39 29 26 26 25 24 18 26 21 17 24 25 21 19 21 27 27 26 24 21 20 18 17 18 17 15 17 18 19 19
12 16 14 10 9 5 9 23 24 22 22 23 29 28 28 26 24 21 25 22 22 23 23 25 25 21 20 26 29 31 28 25 23 19 19 20 18 18 17 18 19 21 22
9 12 14 12 10 12 10 19 19 22 31 25 22 20 23 26 24 17 20 27 27 23 25 27 23 20 23 30 33 31 28 24 23 21 21 18 19 21 21 21 23 23 23
9 12 14 17 15 17 17 20 19 18 16 20 21 22 24 23 20 17 21 22 24 24 28 28 22 21 27 31 30 33 25 26 23 21 23 21 22 24 27 28 30 29 28
5 10 15 21 20 20 21 18 20 20 19 21 22 26 23 24 20 19 22 24 26 25 27 26 22 22 26 27 31 27 26 24 23 23 24 25 29 31 32 31 31 31 33
5 10 17 22 24 25 21 21 22 19 21 22 26 24 25 21 22 27 22 25 25 26 26 23 23 22 22 25 26 25 25 24 24 25 26 29 33 33 33 35 35 35 33
7 12 18 20 25 26 20 26 22 25 25 23 24 24 22 25 27 28 24 27 26 24 25 25 24 24 24 24 24 25 24 25 25 27 31 33 33 32 34 33 33 33 34
7 12 15 11 26 33 24 27 26 26 30 30 34 27 21 26 27 28 30 30 27 22 25 24 22 22 24 24 24 26 26 25 27 29 31 32 33 33 35 34 33 35 36
5 5 10 11 9 11 18 30 32 34 33 33 32 29 27 25 30 32 30 30 28 27 24 22 21 22 24 23 26 26 26 26 30 32 33 34 35 34 37 35 36 36 39
2 3 4 6 9 10 13 12 16 24 29 33 30 29 30 28 30 29 26 27 25 25 24 23 23 22 23 25 26 28 31 30 34 33 34 36 38 37 34 36 38 39 42
4 3 2 2 4 4 7 9 9 9 12 23 22 17 16 16 15 17 22 25 24 25 23 27 26 26 26 27 28 31 31 35 33 35 36 34 36 37 36 37 38 41 45
4 5 6 4 3 4 6 7 10 13 16 18 17 18 20 19 21 24 27 26 27 28 29 31 33 27 26 28 29 32 35 38 36 37 37 35 39 37 37 39 41 45 48

GFSSE_500_spd_057.txt.gz
Wind_Speed
38 39 40 37 28 27 34 36 24 29 24 28 31 31 27 26 23 19 18 14 12 10 9 9 8 9 12 13 14 15 19 19 17 18 19 21 22 20 16 11 9 10 9
37 39 41 32 35 23 28 22 22 24 21 28 30 31 28 26 27 23 17 12 9 9 8 8 11 11 12 13 15 17 19 17 17 18 19 21 21 17 12 10 7 7 6
33 37 37 38 26 31 22 23 23 14 15 24 31 36 29 27 25 24 16 11 8 6 8 11 12 13 14 14 16 16 16 16 16 17 18 18 17 13 10 8 7 6 5
30 33 35 34 34 33 25 24 19 18 20 21 25 32 32 30 27 19 14 10 11 10 13 13 12 15 15 17 15 15 16 16 17 18 15 16 14 11 9 7 6 7 7
26 35 25 34 26 36 26 25 27 23 19 19 28 38 35 31 26 18 16 14 15 12 9 11 14 15 16 16 15 15 17 18 18 17 15 15 11 9 9 9 8 8 7
26 25 30 26 35 22 28 22 26 27 24 26 27 35 36 31 25 22 16 17 11 9 12 14 14 13 14 17 18 17 18 19 16 17 15 12 10 10 11 10 8 7 6
25 26 27 29 29 33 27 25 27 27 28 26 26 32 35 28 25 24 20 16 10 11 13 12 13 12 15 16 18 17 18 17 17 17 15 13 12 12 12 10 9 7 6
23 25 28 32 31 33 39 33 32 30 31 30 23 33 35 33 29 25 20 14 13 14 12 9 9 12 15 16 17 17 18 17 18 18 17 14 14 12 11 10 8 7 7
23 24 24 26 34 31 36 31 28 27 27 27 25 35 34 36 31 27 20 18 16 14 13 11 13 12 12 15 15 17 19 20 19 19 17 15 15 14 12 10 9 8 9
20 20 24 38 39 27 20 27 30 33 37 21 22 30 34 40 34 26 23 20 18 16 16 15 14 14 14 15 16 17 20 20 19 19 18 18 16 15 13 12 11 11 11
17 13 18 22 23 33 28 26 27 32 32 22 26 27 38 37 35 27 24 22 20 19 19 18 19 15 18 18 19 19 24 20 21 20 20 19 17 16 15 14 14 13 12
18 15 14 5 21 36 36 42 35 38 32 27 31 29 28 42 35 30 26 25 21 18 18 21 21 20 19 21 20 19 21 21 22 22 21 19 18 17 17 15 16 15 14
15 12 10 8 13 11 20 27 29 39 42 47 36 40 33 45 34 30 27 26 22 23 22 25 22 20 20 22 19 20 20 23 23 24 22 20 19 19 17 17 17 17 18
17 13 2 3 1 6 11 19 24 32 35 46 52 43 40 44 41 32 30 28 26 23 23 24 25 21 22 20 20 21 25 24 25 27 22 21 19 18 18 18 18 18 18
13 11 8 7 7 7 12 11 19 23 32 48 47 45 44 47 44 36 31 32 24 19 23 22 18 27 25 26 21 23 26 25 27 25 24 21 19 18 18 18 18 17 19
8 8 8 10 11 8 12 9 19 25 32 44 33 39 44 49 47 39 37 32 23 20 23 25 21 25 27 26 25 27 26 27 25 26 23 20 21 19 19 19 19 19 21
6 9 7 11 13 11 9 14 18 23 28 31 28 36 38 38 45 37 37 33 27 23 25 27 28 28 27 26 25 27 28 28 26 25 23 23 20 20 19 18 21 24 27
4 5 7 12 14 17 14 17 20 24 29 27 23 26 29 39 37 35 36 34 31 28 30 29 26 29 27 25 28 30 29 28 29 28 25 25 21 24 23 25 25 28 29
2 6 8 12 13 14 16 18 23 29 31 29 30 33 27 31 32 33 33 29 24 26 30 27 26 26 28 27 30 31 31 30 30 25 26 23 25 25 27 30 33 33 32
7 7 9 12 15 19 21 20 25 27 29 29 27 28 30 31 31 32 27 22 22 25 26 27 27 29 30 27 32 35 33 33 30 25 25 26 27 29 31 33 34 34 34
12 12 16 19 21 23 26 26 22 19 23 21 24 24 26 29 30 30 27 26 23 24 27 26 28 28 27 27 30 28 31 24 22 27 26 28 30 31 32 34 35 35 34
10 12 19 11 23 26 28 24 24 28 23 30 25 24 29 24 28 28 28 27 24 24 27 27 26 26 27 24 21 21 22 25 27 26 29 30 32 34 36 36 36 37 39
9 10 13 14 9 25 23 30 25 27 26 29 27 26 27 31 30 28 28 30 27 26 27 27 26 26 24 23 24 26 28 28 29 31 30 30 33 36 37 38 40 38 36
8 9 8 7 8 3 14 26 22 27 25 26 29 29 34 25 25 32 29 31 27 28 28 28 29 25 26 27 30 31 31 31 32 30 31 32 37 36 38 37 36 38 38
6 6 7 6 1 4 4 5 9 15 27 29 35 32 34 29 24 29 33 30 30 29 31 31 27 26 26 28 30 30 29 27 30 33 34 36 38 39 39 38 39 38 39
5 7 7 5 5 5 5 8 8 9 6 17 25 23 23 24 19 19 23 24 26 25 26 28 28 30 33 34 31 29 30 29 32 34 36 39 41 40 39 39 40 42 39

GFSSE_500_spd_063.txt.gz
Wind_Speed
28 27 30 34 36 35 37 41 41 38 38 39 35 34 31 31 30 30 28 28 26 22 19 17 14 12 10 8 7 7 7 9 9 11 9 9 10 11 10 9 9 9 10
20 20 21 24 31 34 36 39 40 33 34 38 39 34 33 31 31 34 36 27 27 21 19 17 19 19 16 10 8 8 8 10 10 9 9 9 10 11 9 9 9 9 7
19 17 15 17 21 32 35 37 35 37 34 35 35 33 33 31 30 33 29 26 26 26 24 21 17 13 10 9 7 10 10 10 10 9 9 9 9 9 8 9 10 9 7
23 21 18 15 17 21 32 38 33 22 38 33 29 29 38 35 36 35 32 19 25 24 22 17 14 12 11 9 9 10 11 11 11 9 10 9 10 10 11 10 10 8 7
28 27 25 21 18 18 22 28 34 37 25 32 20 28 28 36 42 32 24 21 22 23 18 15 19 15 10 10 10 11 12 12 11 8 8 9 9 11 11 10 9 9 8
29 31 30 30 26 24 24 25 30 35 25 30 20 20 32 35 33 28 27 25 24 23 17 20 18 13 13 11 12 12 12 12 10 8 8 10 10 11 10 11 10 10 10
31 31 30 31 33 28 25 27 29 31 36 28 20 18 27 34 34 34 30 27 26 22 20 22 22 18 16 15 12 13 12 12 11 10 9 11 10 11 10 12 11 11 10
26 30 33 32 34 39 34 31 35 32 26 28 25 22 18 29 29 36 32 29 27 21 21 23 21 19 16 15 12 13 13 14 13 12 12 11 11 11 12 13 13 12 10
29 29 30 34 38 43 38 33 34 28 28 25 26 27 27 22 26 38 36 32 28 21 25 24 22 20 18 14 13 10 10 12 13 13 14 12 12 13 12 14 14 13 12
31 32 28 31 28 28 38 33 42 37 40 35 32 29 31 21 34 43 38 37 30 25 24 25 24 21 18 16 16 14 11 10 11 15 16 14 13 14 15 15 15 15 14
34 33 32 25 13 16 35 41 35 38 45 34 32 28 31 31 34 33 38 36 32 28 26 27 25 22 19 17 16 16 15 13 13 13 18 15 15 16 16 17 17 17 16
31 27 24 22 14 12 23 24 35 42 43 30 32 32 30 33 33 33 39 40 38 31 29 28 26 24 21 17 20 18 19 18 16 15 15 18 17 18 18 19 18 17 17
26 20 16 17 11 12 16 20 35 21 42 38 36 33 33 32 31 32 43 42 40 32 29 29 28 25 20 20 21 20 19 19 18 18 18 20 20 19 20 20 19 17 16
24 19 13 12 11 10 13 19 27 39 33 39 33 36 31 35 35 37 42 39 37 34 30 31 29 27 22 21 20 21 21 19 17 20 20 22 21 20 20 21 19 16 15
13 6 7 7 7 7 14 11 23 35 39 43 39 42 38 43 40 43 46 45 42 37 33 33 33 29 23 22 20 22 21 20 21 22 23 22 22 21 21 21 17 15 14
7 4 8 7 8 10 12 13 19 29 37 40 42 45 43 47 49 44 46 49 48 41 36 35 35 29 24 24 23 26 29 28 28 24 25 25 24 22 21 19 14 14 15
9 6 7 11 14 15 13 13 18 25 32 41 42 44 44 43 42 44 44 57 48 42 37 37 35 30 27 27 28 26 24 25 26 24 27 27 24 21 20 16 20 16 19
10 10 9 10 13 15 14 16 15 18 27 34 40 43 44 46 39 38 30 47 49 45 38 38 34 30 29 29 32 29 28 24 25 29 31 29 26 24 21 20 19 19 19
10 8 7 6 9 14 16 18 15 13 24 31 33 41 47 47 42 41 40 40 52 49 41 38 34 28 27 29 29 31 30 27 28 30 33 31 28 24 23 26 20 23 23
12 13 11 11 11 12 16 17 20 16 16 28 29 31 38 41 36 36 43 39 53 51 44 40 35 35 32 31 34 31 29 30 31 33 33 31 28 27 29 23 22 26 28
13 13 13 14 15 20 21 21 18 18 16 24 29 35 41 39 30 28 34 40 47 52 46 42 38 36 33 35 35 31 29 30 33 34 33 33 33 32 26 25 26 28 30
12 12 12 16 21 23 24 26 25 20 20 21 25 27 32 35 31 28 26 21 39 43 36 37 31 31 32 31 31 30 31 33 33 34 34 32 29 28 26 30 29 31 29
9 11 12 14 20 15 15 25 24 19 17 21 27 29 28 23 23 20 17 18 24 24 27 26 27 29 28 28 29 30 34 32 35 33 33 31 31 29 28 31 31 31 32
7 10 10 12 13 14 2 13 16 17 17 22 17 19 21 21 22 21 15 18 25 28 28 28 29 30 31 28 30 30 33 31 20 23 31 32 30 32 31 32 31 33 36
4 6 10 9 9 8 6 7 12 15 21 24 19 16 20 15 16 15 19 26 21 24 32 35 31 29 30 23 20 26 24 26 26 23 24 26 29 32 33 35 33 38 38
4 5 8 8 7 6 5 4 5 8 12 18 21 18 19 21 23 19 23 26 25 24 29 33 29 32 34 29 22 22 21 23 26 29 30 31 32 34 35 39 39 42 45

GFSSE_500_spd_066.txt.gz
Wind_Speed
26 27 25 26 30 30 32 36 37 37 38 37 35 33 31 29 30 30 32 25 21 23 24 24 23 19 16 15 13 12 9 8 6 5 5 5 4 5 6 6 6 7 7
23 24 22 21 22 25 29 35 38 40 38 38 36 36 35 31 30 29 33 29 24 26 24 26 25 20 15 15 13 11 9 8 8 7 6 6 5 5 6 6 7 8 8
25 24 22 20 19 21 25 30 35 38 40 38 39 39 40 35 31 30 35 35 31 28 25 25 20 19 19 15 14 12 10 7 8 9 7 5 6 6 6 7 7 8 8
26 22 24 23 21 21 22 25 30 35 36 37 37 38 37 34 35 33 35 36 34 25 24 19 20 22 19 16 15 12 9 10 9 10 8 6 5 5 6 8 9 7 5
27 24 24 24 25 24 23 23 25 31 34 31 39 39 39 34 34 36 37 34 39 33 25 22 22 20 15 13 13 12 11 11 11 11 9 6 6 6 6 7 7 6 5
26 31 26 28 29 26 26 25 28 27 31 29 35 40 37 36 35 38 37 37 41 30 25 25 23 19 17 18 15 14 14 11 13 12 9 9 8 6 6 7 6 6 6
27 28 25 27 28 28 30 33 37 36 30 35 39 36 32 28 29 38 40 41 31 27 28 24 19 18 18 18 16 15 13 12 11 12 12 10 8 6 6 7 8 7 7
25 26 27 27 29 30 34 35 33 29 35 33 30 28 30 32 34 35 40 37 32 31 29 22 20 17 19 20 16 14 13 12 14 13 12 10 9 7 7 7 8 9 9
29 30 31 31 28 30 34 37 38 41 30 34 41 34 24 28 35 37 36 34 33 33 27 19 16 18 21 19 17 16 13 14 13 12 13 11 9 8 9 8 9 11 10
30 30 30 33 33 32 32 30 39 50 31 31 39 36 32 29 22 28 38 37 35 33 29 19 20 21 22 21 20 17 14 10 8 9 14 14 12 13 10 10 10 12 10
28 29 27 30 29 28 30 30 37 45 45 30 37 35 35 28 23 18 30 40 37 34 29 24 23 24 23 21 18 18 17 14 13 12 13 14 14 14 11 12 12 12 11
28 24 24 27 23 24 25 21 36 45 43 45 38 32 32 29 29 23 32 39 38 38 32 24 25 22 23 22 20 20 21 17 15 15 15 13 16 15 13 13 14 13 14
24 22 21 24 20 19 21 20 19 24 26 36 39 38 31 27 27 29 30 35 42 37 33 31 25 24 24 24 23 23 21 17 16 16 15 16 17 16 16 14 14 15 15
23 19 15 13 16 17 19 14 18 30 26 32 44 33 31 28 29 31 26 33 41 38 34 35 28 27 25 25 25 26 24 19 19 16 14 15 16 17 18 16 15 17 15
18 13 8 6 9 10 12 14 17 15 22 32 42 29 25 28 28 30 28 30 37 37 37 35 28 27 27 27 26 27 26 19 20 17 16 16 17 19 20 17 14 17 14
12 9 5 4 9 9 10 12 12 14 26 35 39 33 27 27 27 30 33 30 33 39 39 36 32 30 30 29 29 28 27 21 22 21 23 21 20 21 20 19 20 15 12
13 9 9 9 9 12 12 13 11 14 34 39 37 35 38 29 33 33 37 35 39 42 44 37 37 35 33 30 29 30 27 21 21 21 21 21 21 23 20 22 20 17 16
12 10 8 9 9 11 12 14 13 11 21 28 33 35 37 39 37 42 37 41 40 44 48 45 41 37 35 33 32 30 29 27 25 23 23 23 22 22 25 23 22 19 18
12 12 11 10 10 12 15 15 17 17 17 21 31 36 41 46 40 41 44 48 47 46 49 51 46 40 37 35 34 31 29 27 26 26 25 24 24 25 27 26 24 24 23
11 13 12 12 12 12 15 19 19 19 19 17 24 28 36 40 38 41 38 33 34 42 38 50 50 41 38 38 35 28 27 25 25 26 27 27 27 27 28 28 29 28 21
13 14 13 12 13 17 21 23 24 20 18 20 18 28 32 37 37 39 42 41 38 42 42 52 52 45 41 40 37 29 28 30 28 28 29 30 28 27 27 31 32 26 25
9 11 13 13 16 18 23 19 20 20 15 16 14 23 30 28 29 36 33 34 31 35 49 42 47 50 42 43 36 31 31 27 26 28 29 32 30 25 25 25 25 27 28
6 9 11 14 16 19 20 12 10 16 14 15 15 14 25 21 26 33 36 36 29 28 30 30 43 42 35 35 28 27 27 24 27 29 31 32 28 24 25 25 25 28 30
5 5 10 12 16 16 15 7 4 11 12 12 12 9 19 22 24 22 20 15 11 10 9 13 25 24 26 23 24 26 26 25 27 25 23 23 25 24 26 28 29 29 29
6 5 7 11 11 12 10 8 5 6 10 11 12 15 8 13 6 16 20 13 10 5 6 20 23 24 24 24 27 28 27 21 20 20 26 23 16 23 26 27 28 29 32
8 7 7 10 10 11 9 7 6 4 4 11 15 15 19 15 10 5 10 11 11 13 12 12 22 24 24 26 27 29 27 21 20 19 21 23 25 27 27 29 31 34 34

GFSSE_500_spd_069.txt.gz
Wind_Speed
29 24 25 26 27 28 29 31 36 38 40 40 37 34 33 32 32 32 29 28 24 24 19 19 21 21 21 21 20 18 16 13 12 9 7 7 6 6 5 4 5 5 5
27 27 26 24 23 21 22 27 34 38 41 41 38 36 35 32 32 31 29 25 27 26 22 22 24 23 23 21 20 17 16 14 12 8 8 7 8 7 5 5 5 5 6
29 27 25 26 27 26 22 23 27 33 38 40 41 38 36 36 32 32 27 27 30 30 25 25 24 22 22 23 19 18 14 11 10 10 9 10 9 6 5 5 5 5 5
25 24 25 24 26 27 26 23 24 27 33 39 42 40 38 38 37 34 31 29 31 32 29 27 23 25 23 21 19 20 19 17 12 10 10 10 9 7 6 6 6 5 3
25 22 25 24 25 25 25 26 26 26 29 33 39 37 37 37 38 39 34 33 33 34 33 30 26 24 21 20 20 16 15 15 13 12 13 11 10 9 7 6 5 2 2
24 22 20 24 22 23 25 26 28 30 31 33 37 36 35 37 35 31 33 35 34 36 36 32 32 27 22 22 19 17 22 18 16 14 12 12 12 10 8 6 3 2 3
20 24 18 20 20 21 25 30 32 33 37 33 34 36 32 36 39 36 33 37 36 38 39 36 27 24 24 22 18 18 16 17 16 12 14 13 11 10 7 5 4 4 3
18 20 20 23 23 25 23 30 32 31 36 32 30 26 28 38 38 32 34 41 35 39 39 39 30 22 22 21 19 18 17 17 14 14 12 10 11 11 7 6 5 6 4
21 23 22 22 24 28 28 31 33 29 36 28 28 33 34 28 34 31 31 34 38 41 40 33 28 28 22 19 20 18 17 14 14 14 10 12 11 10 9 9 7 7 6
25 26 23 23 24 25 26 28 29 34 39 34 40 35 35 32 33 33 30 45 47 41 35 32 29 26 25 22 19 18 15 11 10 9 7 7 10 12 11 10 8 7 8
28 29 23 24 25 25 25 23 25 26 30 33 44 47 35 28 25 27 35 39 42 43 39 32 27 25 24 21 20 17 13 16 11 11 9 7 11 12 14 12 12 9 9
21 24 20 24 22 23 22 19 23 26 30 35 32 35 41 40 32 26 18 38 38 38 34 33 29 24 22 21 20 15 17 16 15 13 10 11 10 11 15 15 13 11 9
19 20 19 23 20 18 16 16 20 26 27 27 31 46 37 41 41 28 24 17 27 38 35 34 29 27 24 21 21 16 21 17 16 17 15 13 10 11 14 15 15 12 11
16 15 16 14 11 7 10 15 15 20 16 16 31 46 39 26 33 26 29 27 27 33 37 36 34 32 21 25 23 20 21 19 17 18 16 14 11 10 12 16 15 14 13
14 15 14 11 8 7 7 9 12 14 18 17 28 48 48 25 28 30 27 26 29 35 39 38 38 35 24 26 25 21 23 21 20 21 19 14 13 14 14 15 16 17 14
14 13 13 11 13 10 11 10 10 12 17 24 28 42 39 27 32 27 24 25 28 34 37 38 37 35 27 29 28 21 24 24 20 20 18 17 18 16 18 16 17 18 17
9 9 10 10 13 14 12 9 9 11 10 24 33 40 39 25 26 24 23 25 26 27 34 38 37 35 29 29 31 26 24 26 23 22 16 15 17 17 19 19 19 20 17
7 9 8 9 10 13 11 10 6 8 6 20 32 38 34 28 21 23 23 24 31 31 27 36 39 36 31 31 35 33 26 26 26 24 20 18 18 19 19 22 22 22 21
7 8 8 9 9 12 12 10 8 8 9 16 33 34 33 32 35 33 30 27 31 32 31 32 37 38 40 34 38 36 31 27 28 24 24 23 19 21 22 23 25 25 25
8 8 8 9 11 11 14 14 14 13 13 14 19 24 31 35 35 38 34 33 36 38 31 34 40 43 45 43 42 39 35 28 29 22 22 22 21 22 23 25 24 28 30
8 10 7 8 11 14 14 18 20 17 17 15 17 20 25 28 34 37 37 37 33 37 29 32 34 38 42 49 54 43 37 33 27 24 25 23 21 22 25 25 26 29 31
11 7 8 7 8 12 17 19 18 17 17 14 15 15 15 22 20 28 34 31 32 31 31 30 31 36 40 39 54 46 39 37 31 24 22 21 22 24 26 24 25 28 31
12 7 6 8 9 13 16 17 13 8 14 13 9 8 9 15 19 20 26 27 29 32 36 35 35 36 34 42 51 45 37 32 27 22 22 24 25 26 27 25 27 26 27
13 8 5 9 12 13 11 11 4 3 7 6 6 8 7 10 16 24 21 27 29 30 35 38 37 36 30 21 35 32 24 23 25 24 25 26 28 21 24 25 25 27 27
12 9 8 10 13 11 9 8 5 1 5 6 9 7 10 6 18 22 23 23 28 21 22 22 18 19 17 19 20 20 21 23 25 26 27 26 26 19 18 21 20 21 24
13 10 10 11 12 9 8 6 6 5 3 2 6 7 7 6 2 7 10 22 17 20 17 12 14 15 16 20 23 22 23 24 26 24 26 22 19 21 19 18 17 20 24

GFSSE_500_spd_072.txt.gz
Wind_Speed
27 25 22 23 27 30 31 30 28 32 35 38 40 38 39 37 34 32 30 28 24 24 22 23 20 18 19 20 21 22 22 19 18 17 15 11 10 11 10 10 9 8 8
24 25 26 26 25 26 27 28 27 27 30 34 39 39 39 38 35 33 32 30 28 25 23 25 21 20 21 22 22 23 21 20 18 15 14 12 12 11 10 10 9 8 6
28 27 24 24 22 25 27 26 24 25 28 31 34 37 39 39 37 33 31 31 28 25 25 26 24 22 24 23 24 22 20 18 15 15 14 13 13 12 11 10 9 7 5
29 28 25 22 23 24 25 25 26 26 27 30 35 37 39 36 37 35 30 30 25 25 28 28 27 26 26 23 22 22 20 15 17 19 16 14 13 12 11 10 8 6 2
28 25 24 24 25 26 27 26 24 26 28 30 33 36 37 39 37 36 34 30 26 25 28 31 30 27 26 26 24 19 20 21 16 15 15 14 13 12 11 10 6 4 3
25 22 23 28 25 24 22 23 27 28 30 32 33 34 34 35 37 39 36 35 30 30 33 34 32 30 26 25 22 20 20 16 15 19 17 15 14 13 13 8 6 5 4
26 23 21 25 24 22 25 23 26 31 31 36 37 35 35 36 36 38 36 34 32 33 33 34 33 32 29 25 21 21 20 18 19 19 17 15 15 13 10 7 7 6 4
23 26 20 23 25 24 27 27 28 34 38 36 40 37 35 34 35 36 35 32 31 35 35 36 36 35 34 28 22 21 19 15 18 18 17 15 13 12 10 9 8 7 7
22 23 23 24 24 27 28 28 28 34 45 35 43 44 29 31 30 28 34 32 35 36 36 36 37 38 39 29 20 20 19 19 19 18 15 13 12 11 11 10 10 9 7
29 26 27 26 24 28 29 27 27 30 33 38 28 31 32 23 39 36 29 29 35 36 36 36 37 35 34 24 20 19 18 18 18 16 14 9 9 10 10 11 10 8 9
28 26 26 27 27 27 27 24 24 26 29 26 31 29 27 30 32 27 29 30 35 39 42 36 37 38 27 23 22 21 18 18 17 13 12 7 6 8 10 13 11 12 12
22 25 25 23 23 22 24 21 21 20 20 21 24 29 32 39 35 28 25 31 35 38 38 39 40 38 26 25 22 22 18 19 19 15 12 10 11 10 10 12 15 14 16
21 22 20 19 16 16 17 18 15 15 20 23 25 28 27 37 33 28 24 24 26 29 50 46 39 32 29 26 21 24 18 20 19 17 15 12 14 13 13 12 15 15 17
17 18 16 14 13 8 6 10 10 13 14 19 22 30 30 45 37 38 27 23 17 38 40 39 36 33 30 24 23 19 20 21 19 17 14 11 13 14 12 12 15 15 18
15 16 13 10 8 8 6 8 9 9 14 14 15 24 29 49 42 36 32 25 24 24 31 32 35 34 31 28 29 26 22 22 21 18 14 12 14 15 13 14 14 17 19
16 13 11 12 10 9 10 10 10 10 13 14 20 22 31 48 43 29 30 30 29 31 33 36 41 37 34 31 25 25 24 22 22 20 16 14 15 18 17 16 17 18 20
16 12 11 12 11 9 8 9 9 9 10 13 20 26 45 36 38 27 30 30 32 30 34 35 41 37 36 34 33 25 28 23 22 22 20 18 18 18 17 17 18 19 22
17 14 13 12 12 8 6 7 7 8 10 6 14 22 43 48 42 27 26 27 27 27 25 29 30 31 32 32 32 32 27 26 24 23 23 22 21 21 20 19 19 22 24
17 14 13 13 12 13 10 8 8 8 8 5 12 25 50 39 32 27 26 26 23 25 25 25 24 30 36 32 33 34 32 31 28 27 23 25 26 24 22 21 23 24 26
16 13 13 12 11 9 11 10 11 14 10 5 12 28 39 40 32 27 22 26 25 24 28 28 26 27 29 29 33 36 37 36 31 30 26 26 27 26 23 24 24 26 26
14 14 13 11 10 9 11 11 13 15 15 13 19 26 25 36 34 33 30 29 34 30 26 31 32 28 32 33 36 37 41 42 38 33 31 30 29 27 26 24 26 26 30
14 14 14 10 8 10 13 16 15 12 16 19 20 22 19 19 27 31 36 35 35 35 32 28 34 32 28 32 28 41 39 40 45 39 36 34 31 28 24 25 27 29 31
14 13 12 9 8 12 17 15 13 6 9 19 19 19 19 20 20 22 27 34 38 37 35 31 34 29 27 28 31 29 35 35 43 46 37 36 29 26 29 29 31 31 33
15 12 11 9 9 14 12 12 10 5 10 16 15 12 12 13 19 24 22 29 36 33 30 30 31 31 28 30 34 34 27 22 33 33 31 29 28 28 31 33 35 35 35
15 13 12 9 9 11 9 8 7 5 4 10 11 13 12 14 21 25 28 28 28 29 27 26 29 30 33 36 36 30 26 22 27 27 26 28 28 31 34 34 30 33 32
17 15 13 11 9 7 9 6 6 4 2 4 8 11 12 13 18 25 25 29 25 26 27 27 28 26 25 28 30 29 23 25 25 26 27 27 26 30 31 31 20 24 28

GFSSE_500_spd_075.txt.gz
Wind_Speed
30 26 26 26 27 28 28 30 32 31 32 33 32 31 33 33 34 33 32 32 29 26 24 22 19 18 18 18 19 20 19 20 20 20 18 15 13 12 12 12 12 12 12
31 30 28 27 24 26 28 27 29 30 30 30 29 27 27 31 31 31 31 29 27 27 25 23 19 19 19 19 19 21 21 21 21 19 17 15 13 12 13 12 13 12 11
33 32 28 25 25 24 25 24 24 25 26 26 26 28 29 28 32 34 33 30 29 26 25 24 21 20 20 20 22 22 21 21 18 16 16 16 14 12 13 12 11 10 9
33 33 27 27 27 24 23 24 25 25 26 28 28 28 28 30 30 31 32 31 29 27 27 25 23 23 23 22 22 21 20 20 19 17 15 17 15 14 11 12 10 10 7
34 31 28 28 26 26 26 26 27 30 31 29 29 30 29 30 31 28 30 30 29 27 26 26 26 25 25 23 25 23 23 19 19 18 19 17 16 14 11 12 9 8 6
33 29 28 29 27 27 28 29 29 29 31 31 32 33 32 31 32 31 29 31 31 30 28 27 25 26 26 25 26 24 22 22 19 18 15 17 15 14 13 11 9 8 7
30 28 28 27 29 28 29 30 32 32 31 34 35 34 35 33 33 33 31 30 32 32 29 26 25 29 26 27 27 26 24 19 19 17 17 16 15 14 12 11 10 10 9
31 26 23 24 24 26 28 30 34 33 35 37 42 40 42 39 34 32 31 32 34 32 32 27 25 30 31 27 28 26 22 20 18 19 15 17 16 14 13 13 12 11 11
32 29 24 21 24 28 28 32 36 37 36 36 47 52 36 33 29 39 32 31 33 34 33 32 28 29 24 34 30 28 25 17 19 17 16 15 14 14 14 13 12 13 13
32 33 30 24 26 31 30 34 37 39 34 34 36 47 36 39 32 30 25 25 32 33 30 30 30 29 36 34 33 31 22 20 18 18 13 14 14 14 14 14 11 12 12
30 32 24 20 23 26 30 33 35 37 31 33 36 29 23 32 31 32 29 30 25 31 29 30 28 30 33 36 37 32 20 16 16 15 14 15 13 14 15 12 13 14 14
30 27 22 24 23 23 26 30 33 32 28 27 23 22 27 28 29 31 29 31 25 27 27 31 26 32 36 35 33 24 18 19 15 15 15 15 14 14 15 14 15 15 15
25 22 21 25 21 20 21 25 30 28 25 20 18 20 23 31 33 36 32 28 23 25 28 26 31 36 30 34 35 24 24 20 15 16 17 15 15 16 16 14 15 16 16
21 19 20 22 19 15 14 17 16 18 20 20 23 25 28 31 30 35 37 33 26 28 25 27 33 33 35 37 32 26 20 21 16 17 18 17 16 18 17 14 15 17 18
18 18 20 17 17 13 11 13 14 16 17 16 15 16 25 33 29 41 37 29 26 24 30 28 24 40 38 35 28 26 23 21 18 18 18 18 17 17 16 13 15 18 20
18 18 18 15 15 14 11 13 14 16 17 17 16 19 22 34 39 38 39 32 26 24 18 22 25 35 36 31 30 28 27 25 21 21 20 19 19 20 18 17 18 19 21
17 17 16 15 11 11 11 12 11 12 15 17 20 20 20 31 54 40 46 39 27 28 27 23 27 34 34 33 33 29 33 26 24 23 22 21 22 20 19 18 18 19 22
16 19 16 15 13 12 13 11 10 11 13 16 14 21 26 32 51 37 44 33 27 28 26 27 29 33 35 37 35 31 31 26 27 25 24 23 24 24 22 21 21 22 24
16 18 17 17 14 13 14 14 14 14 13 14 10 16 26 28 50 41 36 27 30 24 27 28 29 28 33 37 36 34 35 34 31 28 28 27 26 25 25 24 24 25 26
15 15 17 16 15 13 12 14 17 17 16 14 11 18 25 31 46 49 35 32 28 26 23 28 22 26 26 33 32 36 35 34 35 35 33 31 29 30 29 29 29 30 29
16 14 17 15 16 13 10 13 17 20 21 17 11 14 30 44 46 43 41 33 28 24 24 26 26 26 25 24 27 31 36 35 31 35 36 36 34 32 31 32 32 33 33
16 13 15 15 15 12 10 16 21 23 22 19 14 19 24 34 39 38 32 28 21 25 28 26 26 29 32 28 27 31 37 41 38 40 40 41 39 37 33 34 33 35 33
15 11 15 13 13 11 15 16 17 17 17 16 19 24 26 26 22 35 34 27 26 26 29 34 32 29 32 32 30 27 33 33 37 38 40 43 41 40 38 34 36 36 37
14 12 15 11 10 12 14 11 11 9 7 12 16 16 21 21 22 19 22 29 28 35 34 36 38 35 37 33 31 27 30 28 33 30 27 28 34 37 38 35 36 38 40
16 14 14 11 9 11 11 9 7 7 4 6 13 15 15 21 22 29 30 32 35 33 38 38 42 39 39 35 31 31 30 32 33 26 28 28 29 30 35 36 38 39 40
19 16 15 12 10 8 9 9 5 2 1 5 11 13 14 17 21 23 35 33 30 28 33 36 36 34 33 31 32 34 34 34 35 33 28 29 29 33 35 36 36 36 36

GFSSE_500_spd_078.txt.gz
Wind_Speed
30 28 27 28 28 28 26 27 28 28 29 29 28 28 26 26 26 28 28 28 26 25 25 25 25 24 21 18 16 15 16 16 19 19 19 18 15 13 12 11 11 12 12
32 32 28 29 28 26 24 24 26 27 27 26 25 26 28 25 23 25 26 25 25 25 24 23 23 22 20 17 16 16 16 17 19 20 19 17 14 13 11 10 11 13 10
30 31 34 30 29 27 25 25 25 25 22 22 22 22 22 22 24 23 25 23 23 26 24 23 22 22 20 17 17 16 18 19 21 19 17 15 15 13 12 13 12 11 8
32 32 32 29 29 30 26 24 24 24 26 27 27 27 26 23 22 22 22 23 24 28 27 24 21 19 18 17 17 19 21 21 20 18 15 15 14 14 14 14 12 10 9
30 35 33 28 29 31 29 26 26 27 28 30 31 29 29 25 25 24 22 20 23 27 29 26 21 19 19 19 21 23 22 21 18 16 16 12 14 17 15 14 11 10 8
30 31 31 32 30 31 31 27 29 32 32 33 31 29 33 30 29 27 24 22 23 27 28 26 23 21 21 22 23 23 22 20 19 17 15 13 12 15 16 13 12 9 8
28 30 28 30 30 28 28 27 29 31 34 33 33 31 35 33 32 32 29 25 25 28 28 24 23 20 22 23 25 23 22 20 17 18 17 16 17 16 15 12 10 9 10
29 27 26 30 29 26 28 29 31 30 33 31 34 33 38 38 37 32 29 28 26 28 29 23 21 23 25 27 24 24 22 22 19 18 14 19 16 15 13 11 11 11 12
29 27 24 26 26 28 28 32 35 34 34 31 33 33 37 45 30 40 28 35 27 26 30 28 25 25 26 27 25 24 22 22 24 24 15 18 16 15 12 12 12 13 13
30 27 25 24 23 24 25 32 37 37 34 31 35 35 35 34 38 36 36 39 20 23 28 32 31 28 28 28 31 24 25 26 27 19 17 18 16 14 12 14 13 13 12
28 27 25 23 20 22 27 31 35 36 34 33 32 32 31 29 26 45 33 29 31 19 25 31 33 32 31 25 26 28 29 29 29 21 14 16 14 15 14 14 15 15 14
26 25 24 22 19 24 23 27 29 29 31 31 27 30 30 21 23 36 26 28 32 24 24 32 32 33 31 28 28 30 32 30 23 11 16 16 16 16 14 15 17 16 16
25 22 22 21 19 24 23 25 23 23 23 27 27 25 26 23 27 28 25 28 29 25 23 27 27 27 28 31 30 29 28 28 15 17 17 17 18 15 14 16 18 18 17
23 21 21 19 19 23 22 21 20 18 17 19 25 25 23 25 22 32 31 32 31 30 22 25 26 30 29 32 31 27 29 27 20 19 19 18 16 14 15 17 19 18 19
21 19 19 17 19 22 21 21 22 19 17 17 19 23 27 30 28 31 35 38 34 35 24 26 30 28 27 29 32 34 34 29 22 22 20 19 17 17 17 19 20 19 20
20 18 18 17 19 19 19 19 21 19 15 18 17 23 24 23 31 34 38 36 35 34 23 28 33 33 28 32 33 34 30 23 21 21 21 20 19 17 19 22 23 21 19
19 18 20 18 19 18 18 18 18 18 17 13 16 19 25 27 26 36 39 37 42 32 29 22 35 32 32 32 38 37 28 26 26 26 23 22 21 20 22 25 27 26 20
20 20 22 20 18 17 19 20 19 18 17 16 16 17 24 30 27 33 38 45 44 39 27 27 26 31 23 23 31 32 29 28 29 32 25 25 25 24 24 25 26 26 24
22 22 23 21 17 15 18 20 19 19 20 21 21 18 22 26 27 32 46 47 49 42 27 26 24 25 24 26 30 37 35 31 29 37 31 31 29 28 27 27 26 28 27
25 20 19 20 16 14 16 18 20 19 19 21 25 23 24 23 26 41 49 50 48 40 27 26 25 25 25 29 33 39 38 34 28 31 29 32 33 33 31 29 28 31 31
29 20 16 18 16 14 15 18 20 21 26 26 25 23 23 23 28 30 53 49 49 35 30 24 25 24 26 28 30 34 37 30 31 31 34 35 36 36 36 33 32 33 35
30 18 15 15 15 12 13 17 23 27 28 28 24 21 21 22 27 38 49 54 42 32 28 22 25 26 24 25 28 26 28 27 28 30 35 38 37 39 40 39 37 36 37
26 14 16 15 13 10 11 18 19 17 19 18 19 16 12 21 27 38 54 49 36 33 26 25 24 24 26 27 27 27 26 26 31 32 36 34 36 41 41 40 41 41 41
25 12 15 15 13 8 12 13 13 14 12 11 6 13 16 16 20 31 39 38 39 23 18 20 25 27 29 28 27 28 33 31 31 33 33 36 34 31 27 35 40 40 42
19 12 15 14 13 10 8 8 11 11 9 7 3 9 11 12 17 18 21 35 30 25 24 23 26 28 33 31 29 31 34 32 32 32 31 34 35 32 35 35 38 39 35
20 13 15 14 13 11 7 7 8 9 7 3 3 4 8 11 13 18 20 23 34 33 28 27 28 31 34 36 34 37 37 36 33 35 36 37 34 35 39 36 37 35 37

GFSSE_500_spd_081.txt.gz
Wind_Speed
27 28 26 26 26 26 25 23 25 26 23 24 25 24 24 24 26 27 26 26 26 26 25 23 23 23 21 20 18 16 14 13 13 15 16 17 17 16 12 9 10 8 13
29 31 26 23 24 28 27 22 22 25 25 23 24 22 21 21 23 25 23 24 26 26 24 23 23 23 20 19 16 15 14 14 15 16 17 16 16 13 12 12 11 12 13
29 29 29 26 24 28 27 25 23 25 25 24 20 20 20 20 18 21 21 20 22 24 23 22 22 21 18 16 16 16 16 16 16 17 16 14 13 14 13 11 14 14 11
32 32 31 31 29 27 26 26 25 24 26 24 24 23 24 22 21 21 18 20 20 21 21 20 23 22 20 17 18 17 17 16 16 16 15 14 13 14 10 10 15 13 11
36 33 32 32 31 30 23 27 27 27 27 27 28 27 25 24 23 23 21 19 21 25 23 23 24 23 20 19 18 19 18 16 17 16 15 14 14 11 10 14 15 12 11
36 37 34 35 33 30 25 25 28 27 27 29 30 29 28 26 23 23 24 22 22 24 24 23 25 23 22 22 22 18 17 18 16 16 16 14 11 8 13 15 14 11 10
35 39 36 36 33 28 26 25 28 29 26 27 27 29 28 29 29 31 26 25 25 23 22 21 20 23 24 23 22 19 19 17 16 17 16 14 11 15 16 15 13 11 9
37 40 38 36 30 26 26 28 30 31 28 26 26 27 28 30 25 33 30 25 26 22 21 24 20 24 25 27 21 18 20 18 19 19 17 18 17 17 16 14 12 10 10
37 38 38 33 26 24 24 27 29 30 29 30 28 27 27 33 28 33 33 30 31 25 22 26 26 25 26 19 20 21 21 21 20 24 21 21 17 16 18 14 12 11 12
37 38 37 31 24 23 23 24 25 31 32 30 29 29 27 26 26 30 25 27 29 24 20 28 32 32 27 25 24 25 22 21 22 22 24 23 17 19 17 13 13 13 14
40 37 36 32 23 21 20 23 26 31 28 27 27 28 27 26 28 26 29 38 28 31 19 28 34 33 30 28 24 25 26 24 25 26 27 24 14 17 17 14 14 15 16
40 37 37 33 23 20 20 25 25 27 25 24 25 26 26 26 27 27 19 32 27 31 21 27 34 36 32 28 26 29 32 26 29 28 29 22 13 18 17 16 16 16 18
36 40 38 29 23 20 21 25 24 23 22 20 21 23 25 25 25 23 19 30 27 33 30 26 33 35 34 29 29 26 27 30 30 29 30 15 17 18 16 17 17 18 20
32 37 35 27 22 20 21 23 23 22 22 19 17 18 25 25 24 23 23 29 28 33 26 24 29 30 32 35 32 30 29 28 24 27 20 17 19 19 17 17 17 19 21
32 39 34 27 23 19 21 21 21 21 21 18 19 16 21 24 25 26 24 29 38 35 32 21 24 30 32 31 33 32 29 26 26 29 21 21 21 21 19 18 19 21 22
32 39 36 26 24 19 21 21 19 19 19 18 18 19 18 23 26 30 29 33 35 31 37 26 28 31 32 34 35 35 34 30 28 32 26 23 24 22 21 22 21 22 23
33 34 33 28 22 20 22 21 18 18 17 16 16 16 17 19 25 25 31 33 37 38 33 32 32 33 33 35 36 35 37 35 32 31 27 25 26 25 22 21 22 23 24
32 35 32 28 23 22 25 20 18 19 18 16 16 16 17 20 22 24 29 35 39 43 38 38 31 34 35 37 40 37 35 32 26 29 28 29 30 26 26 25 26 24 26
34 29 29 23 24 23 26 19 18 19 18 16 17 18 22 22 24 26 30 33 39 38 41 41 32 33 36 34 35 35 35 35 34 28 29 31 30 29 29 29 28 27 28
26 25 24 22 25 24 24 17 18 19 18 17 19 21 22 25 26 28 31 34 41 43 45 42 34 29 35 37 31 31 33 32 36 27 26 30 33 32 30 31 31 31 31
26 25 27 27 29 23 21 17 18 19 22 25 28 30 27 25 24 25 33 32 35 44 47 38 30 30 29 33 32 26 28 31 32 30 27 28 36 33 31 37 37 35 36
28 27 28 28 28 20 19 15 15 19 26 28 25 24 25 22 24 28 28 38 33 48 47 36 22 29 31 31 31 31 31 29 30 34 32 31 33 34 35 37 41 42 41
31 31 29 29 22 19 17 14 16 19 18 19 18 14 17 16 21 32 27 29 37 45 45 36 27 32 32 30 29 27 27 26 32 31 31 33 34 32 32 33 38 41 42
30 30 30 28 18 19 16 14 15 13 13 13 7 4 7 10 13 28 33 37 43 51 48 39 32 30 34 33 30 24 28 27 30 28 29 30 32 34 37 35 29 33 39
28 27 28 25 16 18 16 13 13 12 10 8 3 3 0 4 6 13 20 37 37 53 45 32 41 35 32 32 31 29 28 28 29 31 32 34 35 33 33 32 35 37 40
29 25 23 22 17 18 17 13 12 10 7 5 4 2 2 2 1 4 7 15 35 42 34 31 24 21 28 29 28 29 29 28 28 32 33 34 33 36 37 36 33 40 45

GFSSE_500_spd_084.txt.gz
Wind_Speed
22 21 20 20 20 20 21 24 24 25 25 24 22 22 22 23 24 24 25 25 26 25 27 27 26 23 21 19 18 17 16 16 15 14 14 14 14 14 15 12 11 11 10
22 21 22 21 20 21 22 24 25 24 25 25 24 22 22 20 20 23 23 23 24 24 25 26 25 23 21 19 17 16 16 17 16 15 15 15 13 13 13 12 11 13 12
24 24 25 25 22 22 25 27 26 24 24 24 25 23 20 19 19 19 18 19 21 22 24 24 25 24 22 20 18 17 17 17 16 15 15 14 13 14 13 12 12 13 13
24 26 27 27 24 23 25 28 27 25 23 23 24 24 23 22 22 23 22 20 19 20 22 24 25 24 22 21 20 19 18 17 15 15 15 13 14 14 15 11 11 12 13
24 26 29 28 27 26 26 27 29 26 24 25 24 26 26 26 25 24 24 22 21 19 21 25 26 25 23 23 22 21 18 17 16 16 16 14 15 16 13 11 10 14 12
23 26 30 29 28 29 31 29 29 29 25 26 26 27 30 28 26 25 25 22 21 21 22 25 25 24 24 25 24 21 19 18 17 17 17 17 17 13 12 13 13 13 12
23 27 31 30 30 30 31 31 29 28 26 25 26 27 24 26 26 26 24 24 25 27 22 23 27 28 28 27 25 21 19 18 18 18 17 18 16 13 11 13 14 13 13
26 27 31 30 29 30 31 33 31 28 27 26 25 25 23 27 27 27 28 31 33 31 23 24 28 31 31 29 27 23 19 18 19 20 20 20 18 16 15 16 14 15 13
28 27 30 32 30 28 32 32 31 28 28 26 23 27 24 25 25 31 30 29 29 32 27 26 29 32 34 31 30 25 24 22 23 21 23 22 21 19 18 17 16 15 14
32 29 31 32 31 27 31 32 30 28 25 27 24 28 24 25 22 19 23 26 17 27 29 27 31 32 34 32 32 27 23 23 23 24 25 23 23 22 19 18 17 16 15
33 29 34 32 27 25 30 32 29 27 26 27 25 26 24 25 24 19 21 26 23 24 28 28 26 33 33 33 25 29 25 25 25 25 25 25 24 24 22 17 17 17 16
35 29 35 34 25 24 31 32 29 25 26 25 24 26 24 24 25 23 27 28 24 28 30 33 25 34 32 32 30 28 30 29 27 26 25 25 25 27 19 19 18 18 17
37 32 33 33 24 27 31 32 27 25 24 23 22 23 24 24 24 26 30 25 24 24 27 28 24 30 32 34 33 31 30 30 28 28 28 26 26 32 21 21 19 19 17
35 30 31 32 28 29 32 32 27 23 23 22 21 22 23 23 26 25 25 25 20 30 22 32 28 31 34 37 35 33 32 33 34 30 30 30 27 20 19 20 20 18 18
32 28 28 30 29 30 33 33 26 21 21 21 21 22 21 21 27 26 24 22 20 27 25 26 31 29 34 39 37 34 32 28 32 33 31 26 25 23 21 22 20 19 19
33 28 29 27 31 32 32 33 26 20 19 20 20 21 18 20 22 23 24 22 22 28 30 30 32 30 33 38 40 39 36 32 32 30 25 24 29 24 23 23 21 21 23
32 30 29 28 29 33 34 33 26 21 19 19 18 19 17 19 20 20 21 24 26 36 35 30 36 30 29 34 38 39 38 38 34 29 26 27 31 26 25 23 24 26 26
31 30 29 30 31 33 32 32 26 22 20 20 19 18 16 15 18 21 23 24 28 33 42 34 38 31 29 32 36 36 37 39 37 34 31 30 34 31 30 28 28 28 27
34 31 29 27 30 29 29 29 25 22 21 19 18 20 19 20 19 19 23 28 26 30 48 42 41 35 31 35 35 39 39 37 35 35 33 33 37 33 33 32 30 29 28
34 30 25 25 27 24 28 26 24 22 21 18 19 21 21 20 21 21 24 25 28 31 39 45 43 42 37 37 38 38 37 35 34 35 31 34 34 33 33 33 33 32 30
31 25 22 24 24 23 26 26 23 23 21 19 21 24 27 30 28 26 25 24 26 31 33 48 48 48 42 36 38 37 33 33 36 36 36 38 34 30 33 36 35 35 33
29 27 23 21 24 25 26 24 23 21 21 23 25 28 29 30 29 28 26 23 30 27 33 39 46 43 43 37 30 36 34 31 33 36 37 40 31 31 34 31 40 32 31
28 28 24 24 26 23 26 23 22 20 20 24 23 27 27 26 24 25 21 25 33 40 29 35 40 46 40 36 30 28 31 29 32 32 34 36 34 31 33 34 34 33 35
31 32 29 27 26 22 26 24 20 17 20 19 17 18 13 15 18 19 18 28 38 41 39 38 44 45 33 26 28 31 32 33 34 37 37 36 32 33 35 36 36 35 37
36 33 30 29 26 24 27 23 19 18 16 14 11 10 6 10 11 11 28 32 30 41 43 42 51 44 30 24 27 31 34 32 36 36 36 36 32 30 32 33 34 36 38
38 32 29 27 26 26 27 22 20 17 13 10 7 9 7 4 3 9 11 21 33 35 34 41 49 44 32 27 32 32 30 29 30 32 31 30 28 32 35 38 35 35 37

GFSSE_500_spd_087.txt.gz
Wind_Speed
19 17 17 16 17 17 18 20 22 23 24 26 24 24 22 22 21 23 27 27 29 26 24 26 28 28 27 27 26 24 23 22 20 18 16 16 15 12 12 13 11 10 10
19 16 16 16 19 17 16 18 21 24 25 25 26 24 21 21 23 23 23 25 26 26 24 25 26 27 27 26 25 23 20 18 18 17 17 16 14 12 12 12 11 12 9
21 18 17 16 19 19 17 18 20 23 25 26 27 24 22 21 23 24 23 21 20 23 23 24 26 27 26 25 23 21 20 19 18 18 18 15 13 13 12 13 12 10 9
24 20 18 17 20 21 20 20 21 22 24 26 27 25 23 23 23 25 26 23 23 21 23 24 26 27 26 24 24 23 22 20 20 18 19 15 13 14 14 14 12 10 10
25 20 20 19 20 23 21 21 22 23 24 26 28 27 27 27 25 26 27 23 24 23 22 24 25 25 25 25 25 24 23 22 20 20 19 14 14 15 16 14 11 10 10
25 20 21 21 21 23 24 23 23 24 25 27 30 27 27 28 27 27 26 25 23 25 24 23 23 24 27 27 26 25 23 21 20 20 19 17 17 17 15 13 11 11 13
26 19 21 22 23 25 25 25 24 26 27 30 31 28 27 27 26 26 26 26 24 25 25 24 24 25 29 29 29 27 25 24 23 22 21 20 19 17 15 12 13 14 13
26 19 20 23 24 26 26 27 27 26 29 31 31 29 27 27 26 25 25 25 24 25 27 26 25 30 30 29 30 28 26 25 23 22 21 20 18 16 15 14 14 13 15
28 18 21 23 25 27 27 28 29 28 30 32 32 28 27 25 24 25 24 27 28 26 35 32 30 31 34 34 32 29 26 27 24 24 22 20 18 19 17 17 16 16 16
28 19 20 22 26 29 29 30 30 29 30 34 32 30 26 26 25 25 25 26 29 23 22 23 35 33 34 34 34 31 30 29 27 23 21 19 20 21 18 20 19 17 17
26 21 19 24 27 29 30 30 30 30 31 34 32 30 27 26 24 24 26 25 20 21 21 16 30 33 29 36 35 31 31 30 30 23 24 24 22 22 23 24 21 18 19
25 20 19 24 29 31 30 28 28 28 31 34 31 30 28 25 25 26 27 25 27 28 19 22 23 35 27 33 34 34 33 32 33 24 26 26 26 26 24 27 24 20 20
28 21 20 25 30 32 30 28 27 27 31 31 28 28 29 24 22 25 30 26 27 23 23 24 22 30 27 31 35 35 36 34 31 29 29 28 28 26 26 25 23 21 21
27 24 21 26 31 34 33 29 26 28 31 30 27 26 28 24 21 25 27 28 27 26 26 29 27 34 29 33 36 37 36 38 34 31 34 30 28 25 26 26 28 20 21
27 25 26 29 32 34 36 28 27 28 31 29 27 24 24 22 21 23 25 25 25 26 21 26 24 28 31 34 35 37 39 38 35 34 33 30 26 28 26 23 23 22 22
29 29 30 31 33 33 33 29 29 29 31 29 25 23 21 21 21 23 22 27 26 27 24 29 24 30 34 35 37 37 40 37 34 32 33 32 28 26 25 26 24 23 22
31 33 30 31 33 32 32 28 30 30 30 29 25 23 19 20 21 21 22 24 27 26 23 30 25 35 31 35 37 38 41 37 37 33 31 30 28 27 30 28 25 24 23
33 35 32 31 33 30 31 28 30 31 29 28 25 22 21 20 21 20 21 20 23 26 21 32 32 33 37 36 37 38 39 39 36 35 32 29 27 25 31 30 27 26 27
33 34 33 33 32 30 27 30 28 30 28 28 25 23 22 22 21 21 22 24 25 25 27 30 31 36 38 38 34 35 36 39 38 39 36 31 27 25 31 33 30 30 29
31 29 34 33 31 26 27 25 26 26 27 25 24 22 23 23 22 22 23 24 25 28 28 28 39 38 40 39 30 30 34 33 35 35 35 33 31 33 35 38 35 33 32
32 32 35 31 27 25 24 26 24 24 24 23 24 21 24 24 25 28 28 27 24 27 25 27 37 41 42 37 32 29 30 30 34 31 32 33 34 33 31 34 35 35 35
33 35 36 30 28 22 25 23 22 24 22 23 23 22 25 28 32 34 36 35 31 30 28 29 28 36 39 41 31 30 29 31 31 33 33 35 35 33 34 33 36 37 39
35 34 33 29 29 25 27 22 21 22 23 23 22 24 27 29 33 35 36 36 33 31 28 26 30 30 38 39 39 38 31 36 36 36 33 38 38 35 39 38 37 38 38
35 32 33 32 31 28 27 22 21 21 24 21 21 24 24 26 24 27 31 33 32 34 33 35 28 30 33 38 38 41 35 35 38 36 35 36 37 35 38 41 36 33 37
37 36 34 34 34 29 29 24 21 20 22 19 22 20 20 17 16 18 21 28 32 30 41 34 36 28 28 36 38 36 34 36 35 33 36 35 33 32 34 37 35 35 35
46 41 36 36 36 31 31 27 21 21 20 18 21 19 13 14 13 13 15 21 33 31 36 31 38 37 33 38 38 34 29 32 32 33 35 35 36 33 33 33 30 33 34

GFSSE_500_spd_090.txt.gz
Wind_Speed
22 20 19 16 16 16 18 18 20 19 19 19 23 21 21 22 23 22 21 23 26 28 28 27 26 28 29 29 28 30 29 29 25 22 19 17 16 15 14 13 9 8 8
25 23 19 18 17 18 18 20 21 21 21 20 21 23 23 23 22 24 24 23 24 26 28 27 25 26 30 30 29 30 30 28 27 24 20 19 18 16 14 12 9 9 7
26 25 21 18 18 20 20 20 23 23 22 20 21 23 23 25 25 24 24 25 23 24 24 25 25 27 28 29 28 28 27 26 24 21 21 21 18 16 14 12 10 8 7
26 27 23 21 20 21 22 24 25 22 22 22 21 24 25 25 27 27 28 25 27 26 24 22 22 25 27 28 28 27 26 25 24 23 23 22 18 17 15 14 12 9 8
29 29 24 23 21 23 24 25 28 26 23 21 22 25 26 27 28 28 28 29 28 25 22 23 22 22 24 27 29 28 27 26 26 24 24 21 18 17 16 16 14 10 9
32 32 26 25 24 26 26 26 28 26 25 24 24 25 27 27 27 28 28 29 26 25 25 25 23 22 25 27 30 29 29 27 25 25 24 19 20 18 17 15 13 9 7
34 35 28 26 26 27 26 26 27 27 27 26 26 26 27 28 27 29 28 28 25 28 30 26 25 23 26 30 30 30 28 27 26 25 24 20 20 17 16 13 11 11 11
36 36 29 26 26 27 26 26 25 26 27 28 28 27 28 28 28 29 28 28 26 27 26 29 28 29 27 27 29 29 28 28 29 25 25 20 19 17 13 13 12 11 12
38 35 28 25 26 26 25 24 27 27 29 30 31 30 28 28 28 28 28 25 26 22 26 21 26 28 28 27 30 31 29 30 29 26 23 19 19 16 16 16 14 13 14
37 34 28 23 25 25 25 27 28 29 31 33 33 32 29 29 29 27 27 28 30 27 28 22 24 27 25 29 31 33 32 30 27 25 22 19 20 17 18 16 16 14 15
37 34 28 22 25 25 25 28 29 29 33 35 35 34 31 30 28 27 27 28 29 29 30 24 17 22 34 32 31 33 32 30 29 24 24 23 22 20 19 20 18 19 19
36 36 29 22 25 26 26 28 28 30 34 35 36 34 32 30 29 27 27 28 26 27 25 22 17 18 22 31 31 35 33 30 31 27 25 23 22 21 21 22 22 22 22
35 33 28 23 25 28 29 30 31 33 32 33 33 30 31 29 29 26 27 27 26 27 24 26 24 19 16 27 32 34 33 31 33 31 29 25 25 24 23 24 22 20 25
31 30 29 24 25 29 29 31 34 34 31 31 31 28 28 28 28 25 27 27 25 27 28 24 23 23 23 28 32 31 37 35 35 32 32 29 27 25 26 24 22 24 21
34 32 28 24 27 29 29 33 37 35 29 29 28 27 27 26 27 24 25 25 24 24 25 27 26 25 26 28 30 30 38 37 38 34 36 30 29 26 25 24 23 21 22
34 33 27 27 27 28 31 36 38 35 30 30 30 26 25 26 26 23 23 22 21 23 24 28 29 27 28 30 28 31 37 38 34 35 36 29 30 28 25 25 26 22 25
34 34 30 25 26 30 33 36 36 34 30 31 29 26 24 27 25 21 19 21 22 24 25 27 28 27 29 31 35 37 36 36 34 34 35 31 31 29 27 24 23 24 21
35 35 32 25 29 32 33 36 35 31 29 31 27 25 23 27 25 22 18 20 21 22 23 29 28 32 26 32 39 37 41 34 35 33 34 30 30 31 29 27 23 28 23
35 35 32 29 29 33 35 37 33 25 30 27 26 25 23 27 27 23 20 21 20 20 21 27 24 29 32 39 38 42 37 36 35 35 34 32 29 26 26 23 26 28 25
36 36 35 30 29 35 36 35 32 25 28 23 25 24 23 25 26 22 21 20 21 23 24 28 22 28 39 41 40 38 34 34 36 35 34 33 29 29 27 24 22 29 28
38 40 36 25 29 32 32 28 27 27 24 23 25 22 22 23 25 23 23 24 24 24 24 26 23 24 35 41 39 42 31 31 35 31 31 32 33 31 29 28 29 31 34
39 43 30 26 31 29 30 25 29 26 20 22 24 20 21 24 26 26 28 31 32 32 29 24 26 25 38 39 38 38 31 26 29 28 29 26 27 29 27 31 30 27 26
43 43 32 28 30 29 26 30 29 23 20 20 21 18 22 24 28 31 32 35 37 36 35 33 28 25 40 38 44 40 37 27 30 30 29 29 28 30 30 32 33 30 30
41 40 35 32 32 30 26 33 26 23 18 20 19 19 22 25 28 28 28 31 35 35 36 36 31 30 33 38 37 42 39 32 32 34 34 32 32 31 34 36 35 36 34
40 41 37 36 32 31 28 33 27 22 19 18 18 19 21 24 25 24 23 22 22 28 32 35 32 38 35 32 30 34 37 37 37 34 33 36 35 35 34 31 29 31 32
42 42 39 41 33 32 30 33 30 22 18 16 18 19 21 22 23 21 19 17 19 15 28 36 35 37 38 32 32 33 36 30 35 37 32 32 36 34 29 27 25 28 31

GFSSE_500_spd_093.txt.gz
Wind_Speed
17 15 16 15 17 19 20 21 21 24 26 25 24 22 21 21 22 22 23 24 26 25 23 24 25 27 29 26 27 26 27 28 24 22 22 19 17 15 15 14 11 8 7
19 17 17 17 17 19 21 23 23 24 26 27 26 25 23 23 22 23 23 24 25 26 25 24 25 25 27 28 28 28 26 27 28 29 27 22 20 18 17 15 11 9 8
20 20 20 20 18 21 23 25 25 24 25 27 27 27 24 24 24 24 24 24 25 26 28 26 25 22 23 27 30 30 29 28 28 29 26 24 21 19 17 16 13 10 9
22 22 22 22 20 23 25 26 25 24 24 27 28 27 26 24 24 24 24 25 25 27 28 27 26 23 21 25 29 31 30 28 26 26 25 23 21 20 19 16 14 12 9
27 26 25 24 21 24 28 27 25 26 25 26 27 27 27 26 25 24 25 26 24 25 25 27 30 24 23 24 28 30 29 27 26 26 25 24 22 21 19 19 16 13 10
32 30 29 27 23 24 29 28 27 27 26 26 28 29 27 27 26 26 26 26 24 23 25 29 31 26 24 25 27 29 27 27 27 27 26 23 22 21 19 18 15 12 8
35 35 32 30 25 25 30 29 27 26 26 26 29 29 30 29 28 27 27 26 23 20 23 28 31 31 28 28 27 28 26 27 27 27 26 23 23 22 19 17 15 13 12
37 37 35 32 25 26 31 29 27 23 25 27 30 30 30 30 29 30 28 26 23 20 24 25 31 26 27 28 25 24 27 28 29 27 24 23 21 19 17 16 15 14 11
37 38 36 32 26 25 29 29 26 25 26 28 29 29 30 31 31 30 28 25 25 24 26 26 29 27 21 27 23 23 26 29 30 27 25 22 21 19 19 18 18 14 11
36 38 36 33 26 25 27 28 26 26 26 28 29 29 31 31 31 29 27 28 28 27 28 26 25 22 18 24 26 22 26 27 28 27 27 24 22 21 20 19 17 14 13
35 38 39 36 28 25 28 29 28 28 26 27 30 32 33 34 31 29 28 28 29 28 27 28 26 18 21 26 27 24 25 28 27 26 27 25 23 22 21 19 19 17 14
37 37 37 36 31 26 29 30 29 29 28 28 31 32 34 33 34 30 28 28 29 29 27 26 25 25 20 25 31 29 29 30 29 28 26 26 24 23 21 19 20 18 16
39 36 35 36 31 27 29 31 31 31 29 29 31 33 33 31 32 28 27 28 29 29 28 25 26 27 21 20 23 29 33 31 29 31 28 26 24 23 22 19 20 20 18
43 36 34 36 30 29 31 33 30 30 31 30 31 33 31 29 30 27 26 27 29 29 26 25 27 24 24 21 19 21 30 33 33 32 31 28 27 25 23 21 20 19 15
41 37 38 37 35 33 32 32 30 32 31 33 33 33 31 29 28 23 25 28 28 28 23 24 31 22 24 24 23 24 29 34 34 32 32 33 29 27 25 23 22 20 19
40 37 37 31 35 34 35 30 32 31 32 35 36 33 28 28 27 22 25 27 26 26 21 24 28 28 28 26 24 25 30 34 36 32 30 32 31 29 27 23 23 20 21
39 37 36 35 32 35 34 32 33 31 34 36 36 32 28 26 25 23 22 27 24 20 21 24 26 26 30 27 31 29 32 33 32 29 32 34 31 29 29 26 22 21 20
39 38 41 37 33 34 33 33 33 32 35 35 34 30 29 25 24 22 21 24 25 18 19 21 27 27 27 27 34 35 33 35 28 27 36 31 34 33 28 25 23 21 21
39 40 40 37 36 34 36 35 34 34 33 31 29 28 27 25 24 21 21 24 25 19 18 19 23 26 25 27 33 39 37 37 27 30 35 32 32 32 29 26 27 24 22
40 41 42 40 37 34 35 36 35 34 30 30 26 28 26 26 22 22 21 24 25 20 18 19 21 24 31 26 29 39 42 40 32 34 34 32 34 32 28 26 24 22 19
42 41 42 39 38 36 35 37 34 27 29 29 24 26 25 26 23 22 21 24 24 23 20 20 20 25 26 23 33 45 40 41 34 33 33 34 35 33 30 27 27 24 21
39 39 45 41 40 35 35 38 35 29 30 26 24 23 24 24 24 23 23 25 26 28 28 27 26 25 22 27 32 45 43 39 34 28 31 33 34 33 32 31 29 28 25
38 38 43 43 40 36 36 39 36 36 28 24 24 21 22 21 22 23 24 28 31 33 34 35 33 30 29 25 30 44 41 38 33 28 29 32 33 33 32 30 28 27 27
41 41 39 42 37 34 37 36 39 34 26 24 23 20 20 20 22 24 27 29 28 30 34 35 35 33 31 25 27 43 37 37 36 34 32 34 36 35 33 33 30 30 32
42 41 39 41 39 36 39 38 40 33 26 24 22 19 19 21 23 24 25 25 25 27 30 31 34 33 34 26 27 35 38 37 38 40 36 35 37 37 34 34 35 32 32
36 35 35 39 40 38 39 38 40 32 29 26 21 18 20 21 22 23 24 25 25 21 20 19 29 32 34 32 28 36 40 37 42 41 38 34 35 35 36 34 33 29 28

GFSSE_500_spd_096.txt.gz
Wind_Speed
19 11 13 13 14 16 16 18 18 19 20 22 23 25 25 26 26 25 25 23 23 24 22 20 22 22 23 26 28 27 27 26 26 25 23 22 20 19 18 16 13 12 11
21 15 13 14 15 16 18 20 21 22 22 22 22 24 26 26 25 26 26 25 24 24 24 22 23 25 25 25 28 29 28 27 27 26 24 24 22 22 18 17 15 13 12
27 22 16 17 17 18 20 22 23 23 23 23 23 24 27 27 26 26 27 26 26 26 25 25 24 26 27 27 27 30 29 27 27 28 28 28 26 23 22 20 18 15 13
30 25 22 20 21 20 22 24 25 25 25 24 24 24 27 29 28 28 29 28 28 27 24 24 23 24 27 29 26 25 28 28 27 27 27 29 24 25 23 20 17 16 14
32 27 27 26 25 23 24 27 26 26 26 25 25 25 27 30 29 28 29 29 28 27 25 21 22 23 27 33 33 25 26 28 28 28 28 27 23 22 21 20 17 16 14
34 32 31 30 30 26 26 29 29 28 27 26 25 27 26 29 30 30 29 30 28 25 23 21 23 23 25 27 28 26 24 28 29 29 27 24 23 21 20 19 17 15 14
37 37 36 36 33 30 27 30 31 30 29 27 26 25 26 28 30 31 31 30 28 25 24 23 24 20 21 27 24 29 22 27 28 28 25 24 23 21 19 17 16 16 14
37 37 37 36 36 34 27 29 33 32 30 27 25 25 25 27 29 30 31 31 28 24 24 23 26 19 21 32 30 26 21 24 27 26 23 24 22 21 20 19 17 17 16
34 34 34 34 34 31 28 30 32 31 30 26 26 26 25 28 29 30 30 29 29 29 25 24 27 23 31 26 24 22 22 22 26 26 24 23 22 21 19 19 18 17 15
36 31 33 35 34 31 29 30 30 32 31 28 28 26 26 28 30 30 29 30 30 28 27 26 28 29 26 23 20 22 22 20 24 25 24 23 20 22 22 19 19 17 15
37 34 31 34 35 35 34 32 30 33 32 30 28 26 27 30 30 30 30 28 28 29 28 26 29 28 26 22 21 21 25 23 23 24 25 25 23 23 22 21 19 19 16
36 31 28 32 33 35 33 33 30 34 34 32 29 27 29 30 30 30 29 28 27 29 29 28 29 29 27 24 25 27 29 27 27 25 23 25 26 22 23 21 20 20 18
37 32 29 34 33 34 35 34 32 35 34 34 29 27 30 30 30 29 28 28 27 29 29 28 27 27 29 30 22 22 31 28 29 26 26 26 26 25 24 22 21 21 19
42 36 32 32 38 39 34 33 34 33 36 34 29 29 31 29 31 28 27 28 29 29 30 27 27 26 32 32 23 19 22 30 31 28 29 27 26 26 26 25 23 21 20
50 38 34 35 41 38 39 43 35 33 36 34 32 32 31 29 30 28 28 29 29 27 30 30 28 28 30 29 23 23 21 25 29 32 30 28 27 27 26 24 23 22 20
53 43 38 38 38 41 41 41 43 37 37 35 33 35 32 29 30 27 27 28 28 27 29 29 28 27 30 27 27 26 21 21 27 32 32 30 31 28 27 25 24 23 22
57 49 39 41 37 41 38 41 38 35 36 36 35 36 32 31 29 26 26 28 27 26 27 25 26 25 27 25 26 26 28 30 29 30 32 31 29 30 29 27 25 23 22
53 53 42 43 39 41 39 39 38 35 38 35 36 36 32 31 27 23 25 28 26 23 22 20 20 22 27 27 31 30 28 31 32 30 31 33 34 30 30 29 25 25 23
52 51 46 45 43 41 40 38 40 37 37 35 37 36 34 30 24 22 25 27 26 21 19 22 18 21 25 27 25 30 27 35 34 31 30 37 33 30 29 28 25 25 24
56 53 50 49 44 43 41 37 41 37 35 35 37 36 34 27 23 22 26 26 25 22 20 20 21 18 24 27 26 32 28 40 39 33 32 39 33 29 30 29 28 28 27
52 52 52 51 44 42 38 35 40 37 35 35 39 37 31 25 24 25 27 25 24 23 21 22 19 21 20 21 24 30 29 44 39 36 34 36 29 30 31 30 30 28 26
49 42 49 49 47 41 37 36 42 41 35 38 40 34 28 25 25 27 28 25 24 24 24 25 26 26 25 22 24 27 24 41 41 41 39 36 32 32 31 31 32 30 29
42 41 42 45 44 40 36 37 37 41 36 38 37 29 28 26 26 28 28 26 24 26 27 29 32 33 33 32 28 28 31 44 47 44 41 35 32 30 31 33 35 34 32
43 41 41 43 40 39 36 34 37 38 33 36 33 33 27 28 28 28 27 25 24 28 30 30 32 34 37 36 34 32 28 40 45 43 41 38 35 32 33 35 36 35 34
38 37 37 41 36 37 35 33 36 37 35 35 37 32 27 31 29 29 26 23 26 26 27 29 31 32 34 34 34 33 28 38 47 39 36 35 37 35 37 38 37 37 36
29 32 37 38 34 33 38 35 35 37 37 37 37 30 29 32 32 28 25 24 23 23 24 27 29 29 34 36 34 33 27 33 37 34 34 35 35 36 40 41 40 39 38

GFSSE_500_spd_099.txt.gz
Wind_Speed
21 19 15 17 17 19 16 16 16 17 17 18 19 19 20 19 22 24 24 25 24 23 24 24 21 21 22 22 24 24 25 25 24 24 21 21 22 21 18 20 15 13 12
26 25 23 16 18 18 18 18 19 18 19 19 20 19 19 20 21 23 25 26 26 25 24 24 24 24 24 24 23 25 26 27 27 27 26 22 22 19 18 17 16 15 14
35 32 27 25 20 20 21 22 23 22 22 22 22 21 20 20 22 25 26 26 26 27 26 24 23 23 23 22 22 23 24 26 27 27 28 25 22 22 22 21 18 17 15
40 39 33 29 26 23 23 25 26 25 25 24 24 23 22 22 23 26 27 26 26 27 27 25 22 20 22 21 23 25 24 22 25 26 27 28 27 24 25 24 19 18 17
40 39 37 32 30 29 26 26 27 28 28 27 26 25 23 23 24 25 26 27 26 26 27 26 23 20 22 21 21 25 21 20 19 24 27 28 26 24 23 22 21 19 17
37 39 38 35 32 33 31 26 29 30 30 30 29 27 26 25 24 25 25 26 28 28 29 27 25 22 21 22 18 22 19 18 23 25 27 28 23 22 20 20 20 17 15
32 33 35 35 37 37 35 31 30 32 31 32 31 29 27 26 25 25 25 26 28 31 31 29 25 22 22 22 18 24 21 20 23 25 27 27 24 21 18 19 19 17 17
32 33 35 34 33 34 34 32 29 32 33 33 32 31 29 28 26 25 24 26 30 30 30 29 23 20 25 22 23 25 28 23 23 22 25 26 24 22 20 18 17 17 17
30 30 30 31 30 32 31 30 28 31 33 34 34 33 30 30 29 26 24 28 30 29 30 28 23 20 24 25 24 31 27 24 22 22 24 22 22 20 19 18 18 17 17
36 33 32 30 30 30 31 31 30 31 33 35 35 34 33 31 29 26 26 29 29 29 28 26 26 25 27 24 28 27 27 23 20 22 21 22 20 20 20 20 24 18 17
40 36 32 32 32 32 30 29 30 32 32 34 36 36 34 32 29 28 29 30 29 30 27 27 27 26 29 28 27 25 24 21 13 20 21 22 21 21 20 22 19 18 17
41 38 37 33 28 30 29 28 30 31 32 34 36 38 35 33 30 30 30 29 28 30 27 28 28 27 29 31 28 25 26 24 21 23 22 25 25 22 22 23 20 17 20
43 34 34 33 29 32 32 31 31 31 31 35 37 37 36 32 31 31 32 29 28 29 27 29 31 28 30 30 26 29 27 27 23 24 25 22 24 24 24 23 21 20 21
46 43 31 31 31 34 36 35 36 36 34 34 36 37 37 31 32 32 32 30 28 29 27 28 30 32 29 27 25 25 31 27 27 29 26 26 26 26 24 21 22 22 22
52 48 42 35 34 37 38 40 40 36 34 35 35 37 36 32 33 32 33 31 28 28 27 29 26 28 33 30 28 33 31 24 19 28 27 28 27 28 26 26 24 23 22
53 55 52 43 38 37 42 44 39 38 40 39 36 38 35 32 34 33 32 30 30 26 28 29 28 31 35 31 28 25 28 27 22 23 26 30 29 27 26 25 25 24 24
57 57 58 48 41 39 43 46 41 37 40 40 37 39 35 34 35 33 31 29 29 26 28 29 29 32 31 31 23 31 26 25 22 26 27 30 30 29 22 25 26 25 25
57 57 56 55 44 43 44 45 42 38 38 39 40 38 37 35 34 32 30 29 27 27 27 28 30 31 23 27 28 24 26 26 28 28 28 29 31 29 27 29 29 27 26
58 58 57 56 48 44 46 44 44 39 39 39 41 40 37 35 33 31 28 29 26 26 26 27 28 27 18 24 26 25 24 25 26 24 33 32 33 34 31 30 29 29 29
56 58 56 56 53 46 47 47 46 40 39 40 41 40 33 35 32 30 26 28 25 26 25 26 25 24 14 19 25 24 23 25 29 29 36 37 36 35 32 31 29 30 31
51 51 54 56 52 51 49 47 44 42 39 41 39 39 34 36 30 29 27 27 25 25 25 25 24 21 20 20 19 28 31 27 28 27 39 36 35 33 33 33 31 31 31
54 51 53 53 52 49 49 47 44 39 39 41 40 43 38 35 30 28 29 26 25 26 26 26 25 24 23 23 22 25 25 27 27 30 40 39 37 34 34 34 32 33 33
54 55 55 55 53 51 48 48 43 43 42 43 39 40 37 31 32 27 29 26 26 27 27 28 27 27 28 28 29 29 27 26 30 25 41 42 38 35 33 33 34 35 34
49 53 52 51 52 51 49 47 44 42 39 35 37 37 39 35 31 25 29 27 26 29 30 31 31 31 33 33 35 34 33 32 28 31 43 44 39 37 36 35 37 36 36
44 51 50 51 46 45 41 42 44 42 40 38 39 40 40 35 27 27 30 29 28 30 32 33 33 32 31 31 33 37 36 36 33 32 45 45 43 44 41 38 38 38 38
37 42 50 43 44 41 42 38 44 42 41 40 40 42 40 32 27 29 32 31 30 29 34 33 30 29 30 30 33 35 35 36 34 34 41 45 43 46 45 41 40 40 40

GFSSE_500_spd_102.txt.gz
Wind_Speed
27 20 17 14 13 17 21 20 17 16 15 13 13 13 14 15 17 17 18 21 23 23 23 22 20 20 21 21 22 21 19 20 21 23 22 18 16 17 17 18 15 15 12
28 28 24 21 15 16 18 20 20 18 17 17 17 16 16 15 16 18 20 21 21 22 21 22 20 19 21 21 21 19 17 20 20 23 21 23 11 17 20 24 11 14 14
29 28 32 30 22 17 18 19 20 20 19 19 19 19 18 17 17 19 21 22 21 21 20 21 20 18 18 20 19 18 17 19 21 22 20 24 24 21 22 15 17 15 14
32 31 35 35 32 28 21 22 24 24 22 21 21 21 21 20 19 19 20 20 21 21 21 21 21 19 19 20 21 18 17 17 18 19 22 21 23 23 22 21 20 18 15
32 31 31 36 34 34 31 26 24 25 27 26 25 23 22 22 22 21 20 21 23 23 23 24 24 22 20 20 23 21 17 16 16 16 19 21 26 26 26 22 20 19 16
31 30 31 33 36 34 33 31 29 28 30 30 29 26 25 25 24 24 22 23 23 23 24 26 26 24 18 18 22 22 20 18 18 17 20 24 24 23 22 22 19 17 15
34 34 32 31 31 29 31 31 30 28 31 32 33 29 28 27 26 26 25 24 24 24 25 28 26 24 19 17 21 24 21 22 20 18 20 26 23 23 20 17 16 15 16
35 35 32 32 33 33 30 29 29 28 29 32 33 30 29 28 28 28 27 27 26 25 27 28 27 26 20 19 21 22 23 22 25 23 19 24 24 23 21 16 14 16 16
39 35 33 32 33 28 28 28 28 28 28 31 32 30 30 30 30 29 29 29 27 27 29 28 28 25 21 21 21 24 25 24 25 23 22 23 23 22 22 18 16 17 16
39 38 36 33 32 30 29 30 29 28 29 32 33 33 32 33 32 31 30 29 28 29 30 30 29 25 23 22 23 25 28 24 25 23 28 21 22 23 23 19 19 19 18
41 36 35 38 32 31 28 31 29 28 29 30 32 33 34 34 33 32 31 30 30 31 31 30 31 29 25 24 25 27 26 23 25 19 16 19 22 22 21 21 20 19 22
43 40 35 33 33 32 30 28 29 28 28 29 30 32 35 33 34 34 31 30 31 32 31 32 32 30 25 26 27 27 25 23 21 22 18 19 21 22 21 20 18 21 22
47 44 40 34 33 31 30 30 28 30 30 29 29 31 36 35 34 35 31 29 31 32 31 33 32 30 28 26 27 27 25 23 24 24 19 22 23 23 23 20 27 21 18
50 49 47 38 33 32 31 32 32 32 32 31 32 33 36 36 34 33 30 28 30 31 31 32 31 30 27 25 24 22 24 23 22 26 20 23 21 24 29 27 22 25 21
50 56 50 47 38 34 36 36 36 36 36 34 33 35 35 35 33 33 30 28 29 30 30 31 30 27 27 24 23 27 27 27 23 21 26 27 25 25 29 27 22 24 22
54 53 52 50 48 38 39 41 40 41 39 37 34 36 34 35 34 32 30 30 29 29 30 30 28 28 27 24 26 27 26 25 22 25 26 30 28 23 28 30 26 23 22
54 51 51 51 53 48 42 42 43 43 43 40 38 38 38 36 36 33 31 31 28 28 30 29 28 29 26 26 27 31 28 24 28 32 27 26 25 24 26 24 26 24 24
55 53 54 53 53 55 47 44 45 44 45 44 40 40 38 38 36 35 34 31 27 27 30 28 29 27 26 24 28 23 25 25 21 26 24 25 29 24 25 24 26 24 24
58 58 57 54 53 54 51 44 48 48 48 47 42 41 37 39 37 36 34 28 27 26 29 26 29 25 26 21 29 23 25 25 23 19 28 27 27 27 29 33 27 27 26
58 58 57 56 55 56 55 49 50 49 48 45 42 40 40 41 39 35 34 27 25 25 28 26 27 24 23 22 24 16 24 22 21 19 20 29 33 33 33 33 32 28 28
55 55 54 55 57 55 54 55 52 48 45 45 45 42 42 42 39 33 33 27 24 25 27 27 24 23 23 24 18 15 25 28 21 26 25 23 36 37 36 35 32 30 31
50 52 53 55 56 55 54 53 52 48 46 44 48 46 44 41 37 35 31 28 24 26 27 27 23 23 24 26 22 22 21 21 22 24 20 25 31 40 43 37 35 34 34
51 51 53 55 56 55 54 56 52 51 50 50 52 47 45 38 38 36 32 29 25 27 26 25 23 23 26 27 27 26 23 21 22 24 23 29 30 42 39 36 34 36 36
56 55 58 58 58 55 56 57 54 50 48 47 48 45 46 39 40 39 37 30 26 27 26 24 25 24 27 30 32 32 32 29 30 29 27 25 28 40 40 38 37 37 37
59 57 58 60 60 57 56 57 56 51 46 47 48 45 47 39 38 42 37 31 27 28 24 24 27 26 28 32 34 36 37 37 35 32 33 28 30 39 43 39 38 39 40
54 53 53 54 57 56 54 53 52 48 50 49 48 47 47 43 45 42 37 34 28 27 25 25 28 30 28 34 34 31 34 37 36 36 35 34 32 41 45 42 41 42 42

GFSSE_500_spd_105.txt.gz
Wind_Speed
20 21 19 19 19 21 19 18 17 14 15 14 13 13 12 11 12 14 15 16 16 17 18 17 16 13 12 14 14 15 14 12 13 15 16 18 19 16 17 14 14 11 13
24 25 24 23 22 20 20 18 18 17 16 15 14 14 14 13 13 15 15 18 18 18 18 18 17 15 15 14 15 16 14 13 13 14 15 17 19 18 20 18 17 17 8
26 27 29 27 27 24 20 20 19 20 18 16 17 16 15 16 15 15 16 17 19 19 20 20 19 18 17 16 17 18 17 15 15 15 16 17 17 20 16 19 21 6 7
28 28 29 26 25 23 21 23 22 23 21 21 19 18 18 18 17 17 17 18 19 20 21 21 20 21 20 19 18 18 18 16 14 16 17 15 19 21 23 24 8 5 10
30 30 28 27 25 26 24 26 26 26 25 24 23 22 22 21 19 19 18 18 20 21 21 21 22 23 23 21 18 18 18 15 16 15 18 17 20 18 20 21 10 10 13
31 31 28 28 28 29 30 27 27 27 27 28 28 26 25 24 22 22 20 20 21 23 22 23 23 24 23 21 18 17 18 18 16 15 17 20 19 21 23 23 19 17 15
31 33 32 31 32 31 31 27 25 27 27 27 28 28 27 26 25 24 23 23 23 24 24 24 24 24 22 21 17 16 20 20 17 16 18 18 21 23 21 21 19 18 15
32 35 36 35 36 35 32 32 31 28 27 26 27 27 25 24 25 24 24 25 26 25 26 24 26 26 24 22 17 16 20 22 22 20 19 18 20 25 22 21 18 16 16
34 34 33 35 36 35 35 35 30 26 26 26 27 28 26 25 24 26 26 27 27 27 27 25 26 26 24 22 22 18 20 22 23 20 19 18 18 25 24 22 20 16 17
35 35 35 37 37 36 35 34 31 30 27 28 29 29 29 29 28 29 28 28 28 28 27 27 27 27 24 24 25 23 23 24 27 25 22 18 20 23 24 23 23 21 19
38 36 35 32 31 30 27 29 29 31 30 29 30 30 30 30 29 29 28 28 29 28 27 28 28 28 25 25 26 25 27 26 27 24 21 18 18 24 24 25 24 24 22
39 40 39 36 34 33 31 28 30 30 32 31 30 30 29 29 29 28 27 29 30 29 28 27 29 30 27 26 27 27 27 26 24 21 20 19 15 24 25 26 25 25 24
43 42 42 42 39 35 33 32 29 32 31 31 30 30 30 29 30 30 29 30 30 30 28 28 28 28 27 26 25 24 24 24 22 19 20 18 18 22 25 27 24 26 25
47 47 47 46 45 40 35 34 32 30 34 31 31 30 30 30 33 34 29 28 30 30 27 26 28 27 27 26 24 22 22 15 19 20 22 23 20 22 22 27 24 29 27
49 50 52 50 50 47 42 36 35 35 33 35 33 32 32 30 34 38 31 29 29 30 27 24 27 27 27 25 24 22 22 23 21 23 23 25 22 23 21 29 31 23 23
50 51 54 53 50 33 44 38 36 40 37 36 36 36 35 32 33 37 36 33 31 29 26 24 26 27 26 24 24 22 24 26 23 27 24 27 25 25 24 30 32 25 22
52 54 55 55 54 55 56 47 40 41 43 40 40 40 38 36 36 36 37 39 33 29 25 26 25 26 25 23 23 23 23 27 28 25 21 30 31 23 30 30 29 34 27
54 56 57 57 56 55 52 53 44 44 45 44 44 42 41 37 38 38 35 40 36 30 26 25 24 25 24 21 23 22 23 25 23 22 22 26 27 28 31 29 32 23 32
58 58 58 58 57 56 56 55 54 49 47 46 47 42 42 39 38 40 38 40 37 31 26 23 23 24 21 24 22 20 24 20 22 21 24 21 28 29 31 31 32 20 30
58 59 61 62 59 58 58 58 57 54 49 47 46 44 43 41 40 42 40 40 38 32 27 21 21 23 21 24 21 20 22 19 26 20 28 18 25 27 31 34 26 26 25
52 54 57 60 62 62 60 60 61 60 49 46 43 43 45 44 43 43 43 39 40 34 27 22 21 22 21 23 20 19 17 17 25 23 17 18 21 31 32 34 32 31 31
49 50 53 55 58 60 60 60 62 61 53 48 45 46 47 48 45 44 42 37 41 34 26 24 22 23 20 22 21 19 19 19 18 27 26 29 27 22 37 37 36 35 33
48 48 51 54 55 54 55 57 58 59 58 54 49 45 46 48 47 44 43 40 41 33 28 27 23 23 21 21 20 21 21 20 23 25 26 25 23 21 28 41 42 37 40
52 53 55 56 55 54 56 58 57 52 53 53 47 46 48 46 48 46 43 40 42 38 29 29 26 23 24 22 23 23 23 26 27 25 26 26 24 26 30 35 46 44 41
55 56 58 58 59 57 57 59 59 55 52 55 49 46 50 50 50 46 44 44 44 44 30 31 27 25 25 23 24 25 25 28 32 31 31 31 31 30 30 34 40 43 40
54 56 57 59 60 61 60 59 60 58 53 56 50 47 48 49 50 45 47 48 47 41 31 32 29 27 27 24 25 27 27 28 30 31 33 35 35 33 31 30 40 45 46

GFSSE_500_spd_108.txt.gz
Wind_Speed
19 19 19 19 19 22 22 24 23 19 18 18 16 15 13 11 10 10 10 11 12 12 13 15 15 13 12 12 12 13 15 14 12 11 12 12 15 17 19 16 21 15 9
22 21 21 21 21 20 23 22 24 23 19 18 17 17 16 14 13 12 12 12 12 12 13 15 15 14 14 14 15 16 16 15 15 14 13 13 14 17 18 21 22 12 16
23 24 24 24 24 20 18 18 22 24 23 20 18 17 17 17 16 16 15 14 13 13 14 15 15 15 17 17 17 17 18 17 14 16 13 14 15 18 21 14 16 18 11
24 26 27 27 25 23 19 19 20 21 23 24 21 20 18 19 19 19 18 16 16 15 16 16 16 16 19 20 19 18 17 18 16 15 16 14 16 16 18 17 18 17 14
25 26 28 28 27 24 20 21 23 22 23 25 25 22 21 20 21 21 20 19 19 17 17 17 17 19 20 22 19 18 18 17 17 15 16 16 15 19 20 18 18 15 7
28 28 29 26 26 26 24 24 25 25 23 26 28 27 25 23 22 21 21 20 21 20 18 19 19 20 22 22 19 18 16 18 20 17 16 17 16 17 19 22 16 15 12
29 28 28 27 28 28 28 28 29 27 26 26 28 28 27 24 22 20 20 22 22 22 22 21 21 22 22 23 20 18 17 17 20 19 18 21 17 16 20 23 19 17 13
30 30 29 28 29 29 29 29 29 29 29 28 28 28 26 23 21 20 19 21 23 23 24 23 22 23 23 24 20 18 20 18 19 20 19 19 21 17 16 21 18 17 17
31 31 30 30 30 30 31 30 30 31 30 29 29 27 26 24 24 23 23 23 25 24 25 25 24 25 24 24 22 20 21 22 21 22 22 21 20 20 16 24 20 18 14
34 33 33 32 32 33 33 32 33 33 34 33 31 31 30 28 26 25 26 26 26 25 25 25 25 26 25 24 23 22 23 23 25 26 25 25 24 22 19 23 24 21 18
36 35 37 37 36 37 36 31 29 27 29 33 32 32 31 30 29 27 28 26 25 24 25 25 26 25 23 25 25 24 25 26 26 27 26 23 24 23 22 22 27 25 24
37 38 38 39 38 37 36 32 30 29 28 32 34 33 33 33 30 28 28 25 24 26 28 26 25 25 23 25 24 24 26 27 27 25 25 23 22 23 22 27 28 28 27
39 39 41 42 42 40 39 37 34 33 30 31 33 34 34 33 32 30 28 26 26 28 30 27 26 24 21 22 23 25 27 26 23 24 23 22 23 21 22 26 30 29 29
42 43 44 44 44 45 42 37 35 36 35 31 32 31 33 33 32 33 30 27 26 27 29 27 27 25 19 19 23 24 26 23 21 19 21 24 23 20 27 24 22 33 32
47 47 46 49 46 45 45 42 38 40 39 38 34 33 28 32 32 32 34 30 29 28 29 29 28 24 21 20 22 25 25 23 22 24 21 24 27 31 29 26 39 30 31
49 50 51 50 50 50 50 46 42 43 39 41 38 36 36 34 34 33 34 33 32 32 30 31 30 25 23 21 22 26 25 23 22 28 27 28 28 29 30 30 23 36 29
48 51 52 53 54 53 53 50 46 40 46 36 40 40 40 40 37 37 35 34 34 36 33 30 31 27 24 22 22 25 25 24 24 24 28 29 25 31 26 26 29 34 32
51 51 52 54 54 55 56 54 52 50 49 49 48 45 45 43 41 40 37 36 36 38 35 30 29 29 24 22 23 24 24 23 23 26 27 27 23 32 32 35 36 34 30
52 54 55 55 56 57 57 58 56 55 54 51 51 48 46 47 43 42 40 39 38 38 36 32 29 28 24 23 23 23 24 23 24 26 22 25 22 26 30 29 33 32 34
51 54 57 59 60 58 58 59 59 57 56 55 49 49 49 48 47 44 43 42 40 37 37 34 30 28 25 24 23 22 23 24 23 20 22 26 26 24 25 28 29 27 31
50 51 53 56 57 59 60 60 59 58 56 56 56 49 49 51 52 47 42 46 41 39 37 37 31 30 27 25 22 21 22 23 22 18 22 32 25 26 24 25 37 34 32
44 45 46 47 50 53 56 57 58 58 58 57 56 56 50 52 54 52 44 47 43 41 38 37 31 31 29 27 21 22 21 22 20 19 17 28 20 23 25 28 32 25 30
42 43 44 46 48 49 51 54 57 57 57 56 57 56 52 48 50 52 51 47 45 42 40 38 34 32 30 27 23 24 22 21 23 21 19 20 27 31 26 26 35 32 33
45 45 46 48 50 52 54 55 55 57 56 54 56 53 50 49 47 52 52 48 46 44 43 40 38 33 32 27 27 26 27 22 23 23 24 21 24 24 28 27 27 37 38
47 49 50 52 53 55 58 60 59 57 56 56 57 54 49 49 48 53 52 50 47 46 44 45 42 37 34 29 28 28 28 27 25 26 29 29 29 28 26 24 25 29 37
49 50 50 51 52 54 58 61 62 61 59 59 58 54 51 49 46 48 51 51 46 46 46 45 47 42 37 30 29 28 30 29 26 27 30 32 33 33 32 31 33 32 37

GFSSE_500_spd_111.txt.gz
Wind_Speed
22 21 20 21 19 18 17 18 20 23 24 23 22 20 16 16 14 12 11 11 11 10 10 10 11 11 11 12 12 14 15 16 16 15 16 16 14 14 17 19 19 24 16
23 23 22 22 21 20 19 17 18 22 25 24 23 21 19 18 16 15 14 13 14 14 11 10 11 12 12 13 14 16 16 16 17 17 16 19 15 15 17 16 21 22 21
24 24 23 22 23 24 20 17 20 20 24 24 25 23 22 19 18 17 16 15 16 17 15 12 11 12 13 15 17 17 16 17 18 17 16 17 15 13 15 19 21 24 21
23 23 23 24 25 25 22 18 20 22 22 23 24 24 22 21 20 20 19 18 18 19 18 15 13 13 14 16 17 18 16 17 18 18 17 18 17 16 17 20 17 16 15
24 25 25 25 25 26 24 21 21 23 21 20 20 23 25 23 22 22 21 21 21 20 20 18 16 16 17 17 18 18 17 16 17 18 18 22 18 15 16 19 21 19 14
26 26 26 26 27 27 24 21 22 25 23 20 20 21 23 25 25 23 23 23 23 22 21 20 20 19 19 19 19 19 18 17 18 19 20 19 19 19 17 17 20 14 14
29 27 27 27 28 29 28 26 24 24 24 23 23 23 23 23 23 23 21 20 21 22 22 21 21 21 21 21 20 19 18 19 18 19 16 21 21 18 18 19 19 21 11
30 30 28 29 31 30 30 30 28 27 25 25 24 25 24 23 23 23 21 20 19 21 22 23 23 23 23 22 21 19 20 20 18 7 25 24 23 20 20 19 19 18 15
33 33 32 31 30 30 30 31 31 29 28 28 28 27 27 25 25 24 24 23 22 22 23 24 23 23 24 23 22 20 20 21 21 21 25 24 27 26 20 20 19 18 16
34 35 35 33 32 32 33 33 32 30 29 31 34 33 31 30 29 27 27 26 26 26 26 24 22 22 23 24 23 22 21 22 24 24 27 26 30 30 23 21 23 22 20
36 36 36 34 35 36 36 35 34 33 30 30 32 34 34 32 32 31 27 26 26 26 25 23 21 21 23 24 25 24 22 22 24 26 28 27 24 28 21 21 24 25 24
38 38 37 37 37 38 37 37 36 34 31 29 30 33 34 36 36 33 31 29 26 23 23 23 24 23 23 24 26 25 22 23 24 26 27 24 30 27 23 20 27 30 27
40 39 40 40 40 39 40 41 39 36 34 33 31 32 37 38 37 36 34 31 27 25 23 24 26 23 21 23 25 24 22 24 24 24 25 27 27 25 23 23 26 31 28
39 41 42 43 42 41 42 44 42 38 37 36 35 36 36 38 39 38 37 35 29 28 26 24 24 23 22 23 24 23 22 23 23 24 25 26 27 26 26 25 27 30 31
41 41 43 44 45 46 45 46 44 41 38 37 37 39 37 37 39 37 37 37 31 30 28 27 25 24 23 24 24 23 24 24 24 27 26 24 26 27 31 30 35 28 34
41 42 43 45 47 49 49 48 47 46 43 41 40 41 44 44 40 41 36 37 38 33 29 30 27 26 27 24 25 25 25 24 25 29 27 27 31 36 33 35 35 31 28
44 45 45 47 48 50 50 51 51 50 48 43 41 40 31 37 41 42 41 39 39 39 34 31 30 26 27 27 26 27 26 25 27 27 30 29 31 33 35 33 30 29 28
50 48 47 49 50 50 52 52 53 53 53 49 44 42 46 40 42 42 45 45 43 42 38 35 35 28 27 27 28 27 26 25 27 28 29 33 32 34 31 34 34 36 20
50 49 50 50 51 52 53 53 55 55 56 53 50 47 44 43 43 46 44 47 48 46 41 40 38 32 27 29 28 26 26 26 28 28 28 29 35 34 28 26 28 38 32
48 50 50 51 51 52 54 56 57 58 57 56 52 49 47 46 46 46 47 47 51 48 45 43 40 36 29 28 28 26 28 25 28 26 26 28 31 28 26 27 29 24 30
46 47 49 51 53 54 56 56 57 57 57 56 55 52 51 50 47 48 49 48 52 49 46 46 44 37 32 30 29 27 29 25 27 26 25 26 25 29 27 25 29 24 26
45 46 47 49 51 54 56 58 57 56 56 55 53 54 54 51 47 45 48 49 51 54 48 49 47 39 34 32 31 30 28 26 26 28 25 25 22 21 26 19 23 21 25
44 45 46 46 46 49 51 52 53 53 53 52 52 51 51 49 48 44 44 47 53 52 51 51 47 46 38 33 32 31 28 26 28 29 27 23 23 23 25 26 26 21 28
43 44 45 45 45 47 47 48 49 49 49 50 52 52 51 52 52 50 48 47 50 51 53 51 48 47 44 36 35 31 30 27 28 28 30 27 24 25 25 24 22 24 27
44 44 45 45 47 49 48 50 51 52 54 54 56 56 54 54 52 50 48 47 50 52 53 52 49 48 45 41 39 34 32 27 29 30 30 31 29 28 31 28 23 21 26
45 45 45 47 49 50 51 53 55 56 58 59 60 61 61 60 57 49 50 46 48 52 53 52 49 48 49 44 37 39 34 29 31 31 31 32 32 32 32 32 29 26 26

GFSSE_500_spd_114.txt.gz
Wind_Speed
18 22 22 21 21 20 19 19 18 16 18 20 21 20 18 18 19 18 17 14 13 12 11 11 8 8 8 10 11 12 12 14 16 18 18 18 18 18 18 17 16 18 17
18 24 23 23 22 22 21 21 19 18 17 20 20 20 19 17 18 18 17 16 15 14 14 14 12 9 9 10 12 15 14 14 15 16 17 17 18 19 17 17 13 16 19
20 24 24 24 24 23 23 23 19 20 20 21 22 22 20 18 18 17 17 17 17 17 17 17 16 13 12 13 13 14 16 15 15 14 15 16 18 18 19 17 18 16 18
25 25 24 24 25 25 24 24 22 21 22 23 21 21 23 22 19 17 17 18 18 18 18 19 18 17 16 14 16 15 15 17 16 15 15 16 15 17 17 18 21 19 17
29 26 24 26 26 27 26 25 23 24 23 24 22 19 20 22 23 21 20 19 19 19 20 19 20 19 18 16 17 16 16 16 18 16 17 13 14 17 16 18 20 18 19
30 27 26 26 27 27 28 25 24 24 25 25 22 21 20 19 21 22 21 20 20 20 20 19 20 19 19 18 19 17 16 16 19 22 19 20 13 14 18 18 18 18 20
33 27 28 28 28 28 29 28 26 26 26 26 25 21 21 21 20 20 21 21 21 20 19 20 20 19 19 19 19 18 18 17 20 23 21 15 10 20 18 17 19 20 19
34 32 29 29 30 31 31 30 29 28 27 27 27 25 22 21 20 20 20 21 20 21 21 21 21 20 19 19 19 18 20 19 20 22 22 16 24 25 21 16 17 19 19
31 32 31 31 32 33 33 33 31 31 29 28 28 28 27 25 24 22 22 23 23 23 23 23 23 22 21 19 19 19 20 20 20 22 20 21 25 14 28 25 20 19 18
32 32 34 34 33 33 35 34 35 33 33 30 29 30 32 30 27 26 26 26 27 27 26 24 24 22 21 19 20 20 20 21 22 22 23 25 24 23 26 27 24 19 18
33 32 34 35 35 35 35 36 36 36 34 32 30 30 32 31 29 28 28 29 28 28 27 25 23 21 20 20 20 21 21 22 22 23 21 27 24 24 22 23 22 21 20
35 37 36 36 37 38 37 37 38 37 35 33 30 29 32 34 33 31 31 30 29 28 27 25 23 21 22 22 22 23 23 22 22 25 24 25 28 25 23 27 26 23 27
39 38 38 39 40 39 39 39 40 40 36 34 32 32 33 35 35 37 34 32 30 30 28 27 24 23 23 23 21 22 23 23 21 25 25 28 21 29 27 24 24 23 21
42 39 39 43 41 41 41 40 42 43 41 36 34 35 35 35 35 36 38 35 33 31 30 29 28 26 24 24 24 23 23 23 22 25 26 26 30 29 24 26 24 23 21
44 44 43 40 41 43 43 43 42 43 43 40 37 37 37 36 37 38 40 39 37 34 31 32 29 29 26 24 25 23 25 23 22 23 25 28 29 30 26 27 28 26 32
52 47 45 42 42 40 42 42 42 43 44 42 39 38 39 37 38 40 42 43 40 35 36 33 32 29 29 27 26 27 25 23 23 23 24 28 31 32 33 31 34 30 29
52 50 46 47 45 42 42 43 43 46 46 45 41 40 40 37 40 38 40 37 40 41 36 36 35 33 30 30 29 28 28 27 26 24 25 26 32 32 33 31 34 30 31
49 49 48 46 52 52 50 48 47 48 49 48 46 44 41 40 38 38 39 37 39 43 40 38 39 37 33 33 32 31 27 27 27 26 27 29 29 33 32 35 36 32 31
46 49 50 49 52 53 51 50 49 49 50 49 48 47 45 44 40 42 43 41 43 42 45 42 42 41 37 36 34 33 30 27 28 27 29 31 29 31 31 34 38 31 29
46 48 48 48 48 51 51 51 52 51 51 51 51 51 52 48 46 44 44 42 41 44 43 45 44 43 37 38 36 36 31 29 29 27 29 29 30 29 28 31 30 28 26
43 45 47 47 48 48 50 51 52 53 53 53 54 54 53 55 49 48 47 45 40 43 43 48 48 46 40 39 39 36 36 31 30 30 29 28 28 28 26 22 26 27 28
43 42 43 45 47 48 49 49 51 52 53 53 53 53 53 53 53 50 48 45 43 42 45 45 50 47 44 41 41 37 35 33 30 32 30 29 27 25 25 21 23 29 20
44 41 41 42 44 46 47 48 49 49 51 53 53 54 55 53 55 55 51 48 48 43 45 46 49 50 45 44 44 40 37 33 32 33 32 30 28 27 24 24 21 26 24
49 44 43 43 44 45 46 47 49 49 50 51 51 51 51 50 51 51 48 46 49 46 47 47 48 49 48 49 44 40 38 38 34 33 33 32 29 28 26 24 26 23 17
46 45 45 45 45 46 47 47 48 48 50 51 51 52 50 50 49 50 48 48 47 48 47 50 49 50 51 51 44 41 41 40 38 35 33 32 29 31 29 27 28 26 21
45 46 46 45 45 45 46 47 47 48 49 51 52 54 54 55 54 53 53 53 49 46 47 48 51 51 53 53 49 45 42 41 40 37 37 34 30 28 30 29 29 30 25

GFSSE_500_spd_117.txt.gz
Wind_Speed
22 22 21 20 20 22 21 20 20 19 19 19 20 20 17 18 19 20 20 18 16 14 13 11 10 10 9 9 10 12 14 15 14 16 17 16 15 15 16 15 17 15 15
20 22 22 22 22 24 24 23 22 22 20 20 21 21 21 18 17 18 19 19 19 17 15 14 13 12 11 11 11 13 15 15 16 16 17 17 15 14 15 15 15 12 16
19 20 19 22 24 26 26 25 23 24 22 22 23 23 22 21 19 19 18 20 19 17 17 16 16 15 14 13 13 14 15 15 17 19 19 17 15 14 13 12 13 15 18
25 25 23 25 25 26 27 26 24 22 22 23 23 22 22 21 21 19 19 17 18 18 18 17 17 17 16 14 14 15 16 17 17 19 19 17 15 13 13 12 12 13 14
26 26 25 26 26 26 28 27 26 24 24 23 24 22 20 19 20 20 20 20 18 18 17 17 17 17 17 16 15 15 17 18 18 19 17 16 16 12 13 12 14 15 13
26 26 29 28 28 28 29 29 28 27 27 25 24 23 20 20 19 18 17 18 19 19 19 18 18 18 17 16 15 17 18 19 20 20 15 20 18 20 12 12 12 12 15
29 28 31 29 30 30 31 31 30 29 27 26 25 26 24 21 21 21 18 17 16 17 17 18 18 18 18 17 16 17 19 21 20 23 17 18 21 21 11 16 14 12 12
28 28 31 30 30 30 31 33 33 31 29 28 28 28 27 26 23 21 20 18 17 17 18 19 19 19 19 19 19 18 20 21 23 23 19 19 18 13 16 13 18 15 11
30 29 29 30 30 30 31 33 33 32 32 31 30 30 28 28 27 24 23 21 19 20 20 20 21 22 21 21 18 18 20 22 25 25 18 21 17 32 10 22 18 17 13
31 29 31 32 31 32 32 34 34 34 33 32 32 31 29 29 27 25 23 23 22 21 20 21 22 22 22 21 18 18 20 23 26 26 22 18 19 22 24 22 28 20 16
33 31 31 34 32 33 35 34 35 36 35 34 32 31 29 30 30 27 25 25 24 23 23 21 22 22 22 21 19 20 22 24 27 28 26 18 19 24 21 16 14 17 18
35 39 36 37 38 37 38 37 37 38 38 37 34 32 31 30 30 29 28 27 26 24 23 24 22 21 23 20 22 21 24 26 29 26 25 25 24 22 20 20 23 26 23
42 39 40 40 40 42 41 41 39 39 40 39 37 34 32 31 30 30 31 32 30 27 24 24 22 22 21 23 23 22 24 27 29 29 23 24 22 24 20 26 28 23 20
43 46 42 42 41 42 42 42 43 43 42 42 40 36 33 32 30 31 33 34 34 32 29 25 24 24 23 23 24 26 26 27 27 28 26 24 23 25 25 24 26 21 21
51 54 49 42 43 42 43 47 47 47 45 43 42 39 35 33 32 32 32 34 36 34 34 32 28 25 24 25 27 25 27 28 29 28 27 25 23 26 28 27 26 25 27
47 47 47 51 45 46 43 47 49 54 45 44 46 43 35 35 34 33 33 35 36 36 35 38 36 31 27 27 26 28 27 27 28 30 26 27 24 27 29 29 27 29 27
47 46 44 38 38 43 49 55 50 61 50 43 51 41 35 35 36 35 35 36 37 38 34 35 35 30 29 29 27 29 29 28 27 32 32 28 27 27 29 30 30 27 26
44 42 40 40 38 40 47 54 54 57 46 38 43 41 39 38 38 38 38 36 39 39 37 32 34 35 34 31 29 29 29 29 28 29 34 29 30 30 30 32 30 29 30
44 41 36 42 42 43 47 50 54 53 56 48 44 45 46 45 44 40 38 37 40 43 43 41 40 39 38 36 35 31 29 30 29 29 31 32 30 31 30 30 29 27 31
50 43 42 46 46 44 45 48 51 53 52 51 50 49 47 50 45 44 40 39 42 45 46 46 42 41 42 39 37 34 31 30 31 29 29 31 31 32 29 27 26 28 30
56 43 47 47 46 45 44 46 49 51 52 53 53 52 49 46 50 46 48 44 43 47 48 48 48 45 42 41 40 35 32 30 31 29 31 33 34 31 30 26 25 27 27
59 43 48 47 45 46 45 46 48 50 50 51 52 52 52 51 50 50 53 55 47 54 54 50 51 48 45 43 42 40 37 31 29 30 33 32 32 32 30 27 24 24 25
50 45 50 47 46 45 46 46 46 48 49 50 51 52 52 52 51 52 51 51 51 52 59 54 50 52 51 47 44 42 39 35 32 32 33 33 34 36 30 27 24 24 24
41 49 50 50 47 46 46 47 47 47 48 48 48 49 50 52 51 52 53 51 50 51 52 54 58 50 49 52 49 44 43 40 35 34 35 34 36 36 32 28 26 24 24
39 45 44 45 45 45 46 46 47 48 48 48 48 49 50 52 52 52 53 53 52 52 52 54 49 54 56 56 52 47 47 44 41 34 36 35 36 34 34 29 28 27 25
38 41 42 43 45 46 47 46 46 47 47 48 49 50 51 52 52 52 53 54 54 54 53 52 53 56 57 57 53 52 49 47 42 38 39 40 38 37 35 31 29 28 26

GFSSE_500_spd_120.txt.gz
Wind_Speed
24 21 23 22 21 21 22 20 18 19 20 23 22 21 19 18 18 20 20 21 21 19 17 16 14 12 11 10 10 11 12 14 15 16 18 18 17 15 11 12 11 11 8
24 20 21 21 21 22 23 23 21 20 20 22 23 22 22 21 18 17 17 19 19 20 19 18 17 16 14 13 13 13 13 14 16 18 19 18 18 18 13 12 11 10 10
23 23 22 22 23 23 25 26 24 23 21 22 22 23 23 23 21 19 17 17 18 19 20 18 18 18 17 16 15 15 15 15 18 19 18 18 18 20 14 8 10 10 11
23 25 25 25 26 27 27 27 26 25 22 22 22 22 22 23 22 20 18 17 17 18 19 20 20 19 19 19 18 17 17 17 18 20 20 19 21 26 12 10 7 9 12
28 27 26 26 27 28 29 29 27 27 25 25 24 23 22 21 20 19 20 18 17 17 17 18 19 20 21 21 20 19 19 19 18 21 20 17 20 15 30 15 8 9 10
26 27 27 27 28 29 30 30 29 29 27 27 26 25 24 21 20 19 19 19 16 16 17 17 18 20 21 22 22 21 21 21 21 23 20 18 19 20 21 12 7 9 12
27 26 28 28 29 29 30 31 31 29 28 28 28 28 26 24 22 21 20 19 17 15 15 15 17 18 19 20 20 21 22 23 24 23 21 21 21 14 16 13 10 14 14
29 29 28 29 28 29 30 32 33 32 29 29 28 28 27 25 24 23 22 21 20 17 16 15 15 17 19 20 21 22 22 24 26 25 24 21 20 17 20 20 22 19 18
28 28 31 32 29 29 30 31 33 34 32 30 30 30 30 27 26 25 24 22 22 21 20 18 18 18 19 20 21 21 22 24 26 25 25 21 22 18 15 21 18 20 25
31 27 26 31 31 30 32 33 34 35 34 32 31 32 32 29 27 26 25 24 22 21 21 20 19 18 19 21 21 20 20 21 24 25 27 23 23 22 20 23 19 15 15
29 33 31 29 33 32 33 35 36 38 37 35 33 34 33 32 29 29 26 25 24 23 23 22 20 20 20 20 20 20 21 23 23 25 27 27 23 23 19 17 21 20 20
34 36 36 37 38 36 35 38 39 40 40 38 37 37 36 34 31 31 29 27 26 25 24 23 21 21 21 20 21 21 22 22 23 26 27 28 25 22 19 18 18 19 22
40 39 38 39 39 40 40 38 39 41 42 42 41 40 40 38 34 31 31 31 30 28 25 23 22 21 21 21 22 23 23 22 23 25 27 28 27 24 19 19 21 22 22
44 44 42 41 42 44 45 44 41 38 42 45 44 45 45 43 37 34 33 33 32 31 30 26 26 24 22 23 24 25 26 23 24 25 26 27 28 25 21 19 24 25 22
44 45 46 45 45 51 51 47 42 43 44 45 48 50 49 46 41 36 34 35 34 33 32 31 30 31 27 24 24 27 28 25 24 25 26 26 26 26 22 24 25 25 25
45 43 44 42 43 44 45 50 44 47 51 50 53 57 59 52 44 39 37 37 36 36 35 35 33 33 33 30 30 28 29 28 26 25 25 26 25 28 26 26 25 25 27
45 43 42 40 38 41 43 44 46 46 51 52 49 50 51 61 49 43 40 39 37 37 38 38 37 34 34 29 30 31 30 29 29 27 25 26 26 27 29 29 28 26 28
50 48 47 43 41 39 41 45 47 48 45 45 49 58 53 59 53 46 45 39 38 39 40 40 39 37 33 30 32 33 33 31 30 28 28 27 26 26 29 30 30 30 27
53 54 53 51 48 45 44 46 48 48 52 48 49 55 50 44 45 52 49 42 39 42 42 41 40 40 40 36 37 38 35 35 33 29 29 29 28 26 27 31 30 31 27
56 55 53 55 51 52 50 46 48 48 50 51 51 51 48 41 45 34 37 47 43 42 41 40 39 42 45 43 42 41 42 40 35 30 28 30 28 27 27 31 30 28 26
63 53 48 47 47 51 53 52 50 50 50 51 52 51 50 48 45 48 49 47 46 48 43 41 43 48 48 47 48 46 45 41 36 34 30 30 29 27 30 30 29 28 26
69 65 59 48 48 47 53 53 51 50 49 49 51 50 49 49 49 51 52 51 50 44 48 43 42 45 50 51 50 45 45 44 36 33 32 32 32 29 29 30 31 30 27
63 56 50 46 45 45 51 49 50 50 51 51 50 51 51 51 51 51 52 52 52 48 48 44 47 48 47 49 50 44 47 44 40 40 36 33 34 32 30 31 31 33 28
54 48 45 43 40 44 50 50 49 49 49 50 50 50 52 53 52 53 53 53 53 53 51 48 49 47 44 57 47 47 45 47 41 41 40 35 36 36 33 35 32 33 29
49 46 45 46 46 43 51 50 50 50 50 50 51 51 51 53 54 53 53 53 52 53 54 54 53 52 51 53 52 47 51 41 42 44 41 38 37 38 38 36 34 32 31
52 52 48 43 41 43 47 48 49 50 50 50 51 51 52 54 55 57 57 57 57 56 57 56 55 55 55 53 57 54 56 49 46 46 46 40 39 38 42 36 35 34 32

GFSSE_500_spd_123.txt.gz
Wind_Speed
28 25 21 21 21 20 19 18 16 16 18 19 22 22 19 18 18 18 16 17 18 19 20 19 19 18 16 15 14 15 15 15 16 17 18 19 20 21 20 17 14 12 10
28 25 24 24 23 22 20 19 20 18 20 20 22 23 23 20 18 20 20 18 17 17 18 19 19 19 19 17 16 17 17 17 18 19 20 19 19 20 21 21 14 10 8
28 24 24 24 25 25 24 23 22 22 21 20 22 24 24 23 21 20 20 19 16 17 17 18 19 20 20 20 19 19 20 20 19 21 21 20 21 22 23 26 11 10 7
27 26 26 26 24 25 26 26 25 24 23 21 22 24 24 23 22 21 19 17 17 17 18 17 18 19 19 18 19 20 21 21 23 23 21 21 23 20 21 27 26 10 8
25 25 27 27 26 25 26 27 27 26 25 24 23 23 23 23 23 21 19 19 18 18 19 20 19 19 18 18 19 20 22 22 24 25 23 23 24 23 22 21 17 1 9
24 26 25 25 27 28 28 29 28 28 26 25 24 24 24 23 22 21 20 19 19 19 18 19 20 20 20 20 20 21 22 23 25 25 25 23 23 23 19 19 18 7 12
24 24 26 28 28 30 30 30 30 29 28 27 26 25 26 25 23 23 21 21 21 20 19 18 18 19 19 18 19 20 20 22 23 25 25 24 22 24 21 21 19 15 21
25 26 25 28 30 30 30 30 31 31 31 29 29 28 28 27 24 23 23 22 22 22 20 20 19 19 18 19 19 20 20 21 21 23 24 23 22 24 22 21 17 18 17
26 26 26 25 28 31 31 31 31 32 32 31 28 29 29 30 28 26 25 24 24 23 23 22 21 21 21 20 21 21 20 19 18 19 22 23 21 21 23 19 19 21 15
26 30 27 28 29 28 30 32 33 34 34 33 31 30 30 32 32 29 28 27 27 25 25 25 23 22 22 23 22 21 19 17 17 20 20 22 22 22 22 21 19 18 21
30 32 33 31 31 33 32 32 34 35 36 36 35 33 33 33 35 33 31 29 28 28 26 25 25 24 23 22 23 23 20 18 18 19 20 20 21 20 21 21 19 19 19
32 35 36 36 35 34 36 38 37 36 36 38 39 37 35 36 37 35 32 32 31 30 29 28 25 25 24 23 23 25 22 20 20 19 21 20 19 18 19 21 20 19 17
34 36 37 38 37 38 37 41 40 40 40 39 40 40 39 39 40 37 35 34 33 34 32 31 29 26 25 24 24 25 24 23 22 21 20 21 19 17 18 19 20 19 20
34 36 39 39 36 40 40 42 43 44 45 43 41 41 41 42 43 43 40 37 35 34 33 33 32 30 27 27 26 25 26 24 26 24 22 20 21 19 17 19 21 20 22
37 40 42 39 36 39 43 45 48 48 54 49 46 45 45 46 47 48 45 42 39 38 37 37 36 33 31 30 30 28 29 27 26 27 25 23 22 20 18 20 21 23 22
45 42 42 45 37 37 41 44 47 46 56 45 52 57 52 53 54 53 53 50 44 43 42 39 39 37 35 32 32 31 31 30 28 28 28 26 25 23 21 21 21 21 22
46 48 48 49 48 42 41 43 47 45 47 46 42 38 51 53 56 59 50 54 53 50 47 42 43 41 36 33 32 32 32 33 31 29 29 28 26 27 25 22 21 21 24
53 51 50 50 53 54 48 47 45 49 50 49 44 42 50 48 50 57 48 49 51 60 52 47 44 44 39 34 32 34 34 31 31 32 31 30 29 27 27 26 24 23 24
62 61 59 59 58 59 56 51 51 50 53 52 51 53 52 48 48 51 51 53 68 65 59 51 47 47 43 40 36 39 38 35 32 31 32 31 33 31 30 28 27 26 25
68 67 62 59 59 59 60 57 54 54 55 56 52 54 55 54 52 50 49 54 49 60 66 53 50 51 45 44 41 42 44 40 37 36 34 35 36 34 33 31 29 27 27
77 74 68 61 57 56 56 59 59 54 54 55 56 55 56 58 51 49 50 50 48 31 64 53 54 52 51 50 46 46 49 48 42 38 36 38 37 37 35 33 30 30 28
71 69 61 52 52 52 53 53 56 55 54 56 57 56 56 59 55 51 48 50 49 43 47 41 37 44 44 48 47 54 52 51 48 42 35 38 37 39 37 37 31 30 28
60 58 60 57 51 44 47 52 58 54 57 58 56 56 58 58 55 50 49 51 48 44 46 46 44 43 48 46 50 50 63 50 50 49 37 38 39 36 35 39 36 33 31
60 57 60 56 49 47 45 54 51 50 56 59 56 55 57 59 58 51 50 50 51 50 49 51 50 51 47 51 40 57 43 43 42 41 40 43 40 37 35 39 40 36 33
56 63 53 53 47 45 46 43 40 45 54 59 57 56 56 57 60 57 49 51 51 52 51 52 53 53 50 50 51 42 45 49 47 45 49 41 41 35 36 39 42 39 35
43 45 50 50 47 43 37 38 41 46 54 59 55 56 56 56 56 60 56 53 52 52 52 52 53 54 54 53 50 48 49 50 46 46 42 46 36 36 39 39 40 40 39